     2.11           OBSERVATION DATA    G (GPS)             RINEX VERSION / TYPE
teqc 2010Oct21 OPUS Account 20111025 20:23:24UTC            PGM / RUN BY / DATE
3153                                                        MARKER NAME
1134                                                        MARKER NUMBER
CSMIDDLETON NGS                                             OBSERVER / AGENCY
0220269730 TRIMBLE 5700 NP 1.22 / SP 1.22                   REC # / TYPE / VERS
60041226 TRM41249.00 NONE                                   ANT # / TYPE
  -739569.6025 -5478172.2407  3171357.6065                  APPROX POSITION XYZ
        2.0010        0.0000        0.0000                  ANTENNA: DELTA H/E/N
     1     1                                                WAVELENGTH FACT L1/2
     5    L1    L2    C1    P1    P2                        # / TYPES OF OBSERV
    15                                                      LEAP SECONDS
  2011     7    29     0     0   30.0000000     GPS         TIME OF FIRST OBS
                                                            END OF HEADER
 11  7 29  0  0 30.0000000  0  8G10G17G09G04G28G20G27G02
 -11004299.15257 -10108400.17354  23495582.4924                   23495584.1644
 -72550225.04357 -56519705.00455  21516659.9224                   21516658.7154
 -26441680.82857 -20565073.03054  22230587.9774                   22230587.4264
 -55779426.40658 -43450891.93056  19983947.8524                   19983947.0394
 -90048939.71957 -70157435.27655  21982254.9304                   21982253.6334
 -22036002.55156 -17162115.90453  24364336.8984                   24364335.6334
 -38930566.35557 -30322330.19955  22493161.3284                   22493160.9924
 -27310755.73857 -21268412.30755  22305276.7424                   22305274.1844
 11  7 29  0  1  0.0000000  0  8G10G17G09G04G28G20G27G02
 -11191740.89846 -10254458.55343  23459913.1414                   23459914.2384
 -72612645.68747 -56568344.49046  21504781.8284                   21504780.3054
 -26558357.13347 -20655989.59844  22208384.6414                   22208384.7814
 -55883408.76648 -43531917.13746  19964160.8984                   19964159.9614
 -90089575.55947 -70189099.61845  21974522.2584                   21974521.1134
 -22091300.16446 -17205205.00842  24353814.3364                   24353812.4304
 -39031227.48447 -30400767.46545  22474005.7664                   22474005.7894
 -27482238.55947 -21402035.22045  22272644.5314                   22272642.3324
 11  7 29  0  1 30.0000000  0  8G10G17G09G04G28G20G27G02
 -11379023.78946 -10400393.14443  23424274.4384                   23424276.1454
 -72674886.76647 -56616844.04546  21492937.7114                   21492936.5824
 -26674306.73047 -20746339.94744  22186320.6804                   22186319.6764
 -55986733.27748 -43612429.73946  19944498.4144                   19944497.6994
 -90129751.30947 -70220405.41745  21966877.3284                   21966876.1484
 -22146021.55146 -17247845.06642  24343400.6414                   24343399.8094
 -39131309.77047 -30478753.67145  22454961.2814                   22454960.8404
 -27653332.50447 -21535355.09245  22240086.0554                   22240084.1564
 11  7 29  0  2  0.0000000  0  8G10G17G09G04G28G20G27G02
 -11566151.65246 -10546206.90243  23388664.7894                   23388666.2154
 -72736955.94147 -56665209.64046  21481126.0234                   21481124.9184
 -26789536.28147 -20836129.20544  22164393.3984                   22164392.7114
 -56089407.76648 -43692435.81146  19924960.1724                   19924959.8914
 -90169473.80947 -70251358.04045  21959318.4304                   21959316.9494
 -22200174.80946 -17290042.45342  24333095.8594                   24333095.0474
 -39230820.28547 -30556294.33945  22436024.7584                   22436024.5704
 -27824043.19147 -21668376.35945  22207601.4844                   22207599.3404
 11  7 29  0  2 30.0000000  0  8G10G17G09G04G28G20G27G02
 -11753116.72346 -10691893.84143  23353086.5784                   23353087.2774
 -72798848.32447 -56713437.47645  21469348.1334                   21469347.1214
 -26904040.52747 -20925353.27444  22142603.7504                   22142603.3404
 -56191427.71548 -43771931.86546  19905546.4384                   19905545.8634
 -90208738.72347 -70281954.11145  21951846.7034                   21951845.0554
 -22253755.64146 -17331793.77143  24322898.8984                   24322899.4694
 -39329754.57047 -30633385.99845  22417198.8364                   22417198.0044
 -27994364.56647 -21801094.25045  22175190.2194                   22175187.9494
 11  7 29  0  3  0.0000000  0  8G10G17G09G04G28G20G27G02
 -11939917.78546 -10837452.97143  23317539.5314                   23317540.5474
 -72860565.98047 -56761529.17545  21457604.3984                   21457602.8324
 -27017821.30547 -21014013.62544  22120951.8054                   22120951.5824
 -56292795.85548 -43850920.00646  19886256.8754                   19886255.8594
 -90247547.84847 -70312195.03545  21944461.3914                   21944460.0274
 -22306767.02046 -17373101.28143  24312811.8204                   24312811.6764
 -39428114.75447 -30710030.31645  22398481.2734                   22398480.8984
 -28164297.21547 -21933509.26045  22142853.4384                   22142850.7814
 11  7 29  0  3 30.0000000  0  8G10G17G09G04G28G20G27G02
 -12126548.31246 -10982879.22843  23282024.5864                   23282025.0664
 -72922105.60947 -56809482.14646  21445893.7814                   21445892.2424
 -27130875.03947 -21102107.43145  22099437.9924                   22099437.8014
 -56393509.23848 -43929397.94646  19867091.6334                   19867090.9384
 -90285897.68047 -70342078.04845  21937164.0084                   21937162.5474
 -22359206.30546 -17413963.07843  24302833.6884                   24302832.3794
 -39525897.96947 -30786225.02045  22379873.2974                   22379873.0634
 -28333836.62548 -22065617.83545  22110590.6094                   22110588.3444
 11  7 29  0  4  0.0000000  0  8G10G17G09G04G28G20G27G02
 -12313002.87946 -11128168.33643  23246543.4924                   23246544.2664
 -72983466.15647 -56857295.56545  21434216.8674                   21434215.5394
 -27243198.93747 -21189632.53544  22078064.1094                   22078063.6644
 -56493566.32048 -44007364.49346  19848051.4454                   19848050.6024
 -90323786.44947 -70371601.77945  21929953.8134                   21929952.4534
 -22411072.21146 -17454378.11843  24292963.1724                   24292962.3594
 -39623102.07447 -30861968.49045  22361376.0394                   22361375.9574
 -28502979.37147 -22197417.33145  22078404.1414                   22078401.4884
 11  7 29  0  4 30.0000000  0  8G10G17G09G04G28G20G27G02
 -12499274.44146 -11273314.90143  23211097.0704                   23211097.3014
 -73044643.55147 -56904966.27946  21422575.4454                   21422573.8714
 -27354789.12947 -21276585.94345  22056828.7274                   22056828.2074
 -56592963.84448 -44084817.08646  19829136.8054                   19829136.0514
 -90361210.43747 -70400763.36745  21922832.1644                   21922830.7974
 -22462361.84446 -17494344.14343  24283203.1024                   24283202.2894
 -39719723.61747 -30937258.02345  22342989.3594                   22342989.3834
 -28671720.37547 -22328903.77645  22046293.9384                   22046291.1804
 11  7 29  0  5  0.0000000  0  8G10G17G09G04G28G20G27G02
 -12685350.25446 -11418308.83644  23175687.9924                   23175689.2814
 -73105628.82047 -56952487.27245  21410970.3444                   21410969.1134
 -27465635.77347 -21362959.95545  22035735.8594                   22035735.2154
 -56691692.89148 -44161748.79946  19810349.2894                   19810348.3954
 -90398160.34447 -70429555.54245  21915800.9224                   21915799.8594
 -22513066.74246 -17533854.47343  24273554.3754                   24273554.2894
 -39815753.58647 -31012086.57645  22324715.8134                   22324715.5474
 -28840048.80147 -22460068.73545  22014261.7734                   22014259.5204
 11  7 29  0  5 30.0000000  0  8G10G17G09G04G28G20G27G02
 -12871225.84046 -11563146.84243  23140316.1174                   23140317.5554
 -73166420.62147 -56999857.53445  21399401.8054                   21399400.7934
 -27575737.48847 -21448753.50445  22014783.6484                   22014783.2624
 -56789752.93047 -44238159.21146  19791689.0554                   19791688.0904
 -90434635.23447 -70457977.56745  21908859.7664                   21908858.5274
 -22563186.51646 -17572908.84543  24264017.4064                   24264016.8554
 -39911191.06247 -31086453.48445  22306554.4454                   22306554.2074
 -29007962.39547 -22590910.44845  21982308.6564                   21982306.7544
 11  7 29  0  6  0.0000000  0  8G10G17G09G04G28G20G27G02
 -13056900.12146 -11707827.95344  23104983.3134                   23104985.0204
 -73227021.41047 -57047078.93445  21387869.8674                   21387868.6414
 -27685096.28547 -21533968.12944  21993973.4774                   21993973.6094
 -56887146.71948 -44314050.44746  19773155.6024                   19773154.9774
 -90470637.33647 -70486031.16345  21902008.9224                   21902007.5274
 -22612724.50046 -17611509.93243  24254589.8834                   24254589.7384
 -40006038.42646 -31160360.52745  22288506.1254                   22288505.9024
 -29175461.96547 -22721429.53745  21950434.4064                   21950432.2624
 11  7 29  0  6 30.0000000  0  8G10G17G09G04G28G20G27G02
 -13242365.18046 -11852346.02444  23069691.0634                   23069692.1214
 -73287426.75047 -57094148.05945  21376375.1804                   21376373.8714
 -27793707.18047 -21618600.01045  21973305.5164                   21973305.4224
 -56983870.14148 -44389419.34946  19754749.7734                   19754748.9574
 -90506161.98447 -70513712.73645  21895249.1024                   21895247.9804
 -22661676.85946 -17649654.54443  24245275.3444                   24245274.5824
 -40100291.59047 -31233804.56245  22270570.1024                   22270569.8094
 -29342541.78147 -22851621.55745  21918640.5634                   21918638.0784
 11  7 29  0  7  0.0000000  0  8G10G17G09G04G28G20G27G02
 -13427615.87546 -11996697.08144  23034438.7504                   23034440.2114
 -73347635.22747 -57141063.75745  21364918.1334                   21364916.6214
 -27901568.37547 -21702647.67744  21952779.8754                   21952780.3634
 -57079922.47348 -44464265.30446  19736471.3754                   19736470.8284
 -90541208.12147 -70541021.42945  21888579.5234                   21888578.6524
 -22710042.81246 -17687342.38143  24236071.4924                   24236071.3324
 -40193949.35947 -31306784.66045  22252747.7504                   22252747.6994
 -29509198.87547 -22981484.17645  21886926.2034                   21886924.4144
 11  7 29  0  7 30.0000000  0  8G10G17G09G04G28G20G27G02
 -12037218.94146 -10913270.75144  23299022.0554                   23299023.0944
 -71832220.68447 -55960221.25345  21653291.7114                   21653290.5824
 -26433252.39547 -20558505.35845  22232191.6564                   22232191.5354
 -55599877.03548 -43310983.13746  20018114.9774                   20018113.9494
 -89000350.39147 -69340353.11045  22181795.4064                   22181794.0634
 -21182397.71146 -16496969.57643  24526772.5164                   24526772.0744
 -38711584.77047 -30151695.37145  22534832.2584                   22534832.0234
 -28100002.55547 -21883409.08245  22155087.7424                   22155085.6374
 11  7 29  0  8  0.0000000  0  8G10G17G09G04G28G20G27G02
 -12222028.96546 -11057278.42644  23263854.2194                   23263855.3094
 -71892032.93447 -56006828.21246  21641910.0554                   21641908.5904
 -26539611.82047 -20641382.83845  22211952.3364                   22211951.7424
 -55694586.36347 -43384782.59046  20000092.1644                   20000091.6054
 -89034437.01247 -69366914.15645  22175308.9064                   22175307.3404
 -21229591.19946 -16533743.76643  24517791.7504                   24517791.6914
 -38804049.95347 -30223746.19545  22517237.2114                   22517236.8714
 -28265808.21947 -22012608.25945  22123535.7664                   22123533.4534
 11  7 29  0  8 30.0000000  0  8G10G17G09G04G28G20G27G02
 -12406610.09046 -11201107.72244  23228729.5864                   23228730.0704
 -71951644.04347 -56053278.45345  21630566.6254                   21630565.1724
 -26645216.83247 -20723672.43445  22191855.9924                   22191856.1254
 -55788622.16847 -43458057.25146  19982197.9224                   19982197.0944
 -89068041.07047 -69393099.16145  22168914.1884                   22168913.2464
 -21276196.93446 -16570059.85343  24508923.6094                   24508922.4184
 -38895916.29747 -30295330.38145  22499755.7194                   22499755.4494
 -28431183.09447 -22141471.72945  22092066.0474                   22092063.6484
 11  7 29  0  9  0.0000000  0  9G10G17G09G12G04G28G20G27G02
 -12590965.01646 -11344760.78144  23193648.1644                   23193648.9414
 -72011060.19547 -56099576.74945  21619259.9694                   21619258.8554
 -26750073.20747 -20805378.69645  22171902.5234                   22171902.3284
   1294941.45356   1030592.62952  24735550.6094                   24735548.5354
 -55881991.03547 -43530812.19246  19964430.4064                   19964429.1094
 -89101168.54747 -69418912.83444  22162610.1024                   22162608.9654
 -21322221.72746 -16605923.32443  24500164.8444                   24500164.3674
 -38987190.05946 -30366452.79145  22482386.2114                   22482386.2854
 -28596131.76647 -22270003.13845  22060677.0004                   22060674.7624
 11  7 29  0  9 30.0000000  0  9G10G17G09G12G04G28G20G27G02
 -12775101.66846 -11488243.75244  23158607.9224                   23158608.5434
 -72070292.64547 -56145731.92045  21607988.6094                   21607987.5704
 -26854192.46147 -20886510.59245  22152089.1334                   22152088.9384
   1105611.69146    883063.05942  24699521.5474                   24699519.6564
 -55974704.90647 -43603056.76446  19946787.5234                   19946786.4964
 -89133830.97347 -69444364.10544  22156394.6334                   22156393.6134
 -21367677.64546 -16641343.55943  24491515.3754                   24491514.8914
 -39077883.10247 -30437122.74245  22465128.2274                   22465127.8284
 -28760664.70747 -22398210.56245  22029367.4694                   22029365.3954
 11  7 29  0 10  0.0000000  0  9G10G17G09G12G04G28G20G27G02
 -12959028.23846 -11631563.01144  23123606.9694                   23123608.3134
 -72129352.64847 -56191752.70945  21596749.0164                   21596748.2074
 -26957585.76647 -20967076.78945  22132413.9534                   22132414.0904
    916344.66046    735582.31642  24663506.2664                   24663504.0204
 -56066775.85947 -43674800.35046  19929267.0944                   19929265.8914
 -89166039.63747 -69469461.78545  22150265.8984                   22150264.2074
 -21412577.24245 -16676330.27743  24482970.2664                   24482970.7974
 -39168007.08647 -30507349.22045  22447978.2974                   22447978.0514
 -28924791.65647 -22526101.64445  21998135.2664                   21998133.1454
 11  7 29  0 10 30.0000000  0  9G10G17G09G12G04G28G20G27G02
 -13142735.62146 -11774711.51443  23088648.8444                   23088650.1884
 -72188234.84047 -56237634.94346  21585544.7664                   21585543.4454
 -27060247.55147 -21047072.98645  22112878.2424                   22112877.7734
    727147.91446    588156.31443  24627502.2424                   24627501.3834
 -56158199.11347 -43746039.22946  19911869.7504                   19911868.5904
 -89197789.35547 -69494201.87245  22144224.1954                   22144223.2624
 -21456915.82845 -16710879.85542  24474533.1484                   24474533.8164
 -39257556.93746 -30577128.35845  22430937.6414                   22430937.2774
 -29088505.95747 -22653671.18745  21966981.4614                   21966978.9614
 11  7 29  0 11  0.0000000  0  9G10G17G09G12G04G28G20G27G02
 -13326219.73846 -11917686.02644  23053733.5084                   23053734.1884
 -72246938.52747 -56283378.09245  21574373.7034                   21574372.6994
 -27162177.34847 -21126498.79845  22093481.4534                   22093481.2934
    538023.70346    440786.88043  24591513.0944                   24591512.2664
 -56248974.87547 -43816773.58446  19894595.5314                   19894594.8204
 -89229079.96947 -69518584.19745  22138269.8674                   22138268.6334
 -21500693.99645 -16744992.70342  24466202.3914                   24466202.3834
 -39346532.50847 -30646460.00245  22414005.5474                   22414005.6684
 -29251805.74247 -22780917.71545  21935906.5704                   21935904.3714
 11  7 29  0 11 30.0000000  0  9G10G17G09G12G04G28G20G27G02
 -13509472.19546 -12060480.03844  23018861.5784                   23018861.9964
 -72305459.24647 -56328978.65045  21563237.1954                   21563236.3324
 -27263370.28947 -21205350.43045  22074225.2274                   22074225.3094
    348978.48446    293479.03743  24555538.9614                   24555538.2664
 -56339099.07847 -43887000.22246  19877445.4924                   19877444.9804
 -89259906.84047 -69542605.17845  22132403.6414                   22132402.5554
 -21543908.01245 -16778666.02742  24457979.5704                   24457978.3674
 -39434929.55147 -30715340.83545  22397184.5864                   22397184.5354
 -29414685.14847 -22907836.67645  21904911.5084                   21904909.1414
 11  7 29  0 12  0.0000000  0  9G10G17G09G12G04G28G20G27G02
 -13692485.91046 -12203087.97844  22984034.5314                   22984035.1174
 -72363792.81647 -56374433.40645  21552137.1254                   21552136.0354
 -27363822.80147 -21283625.13545  22055109.7274                   22055109.7274
    160017.94546    146237.10543  24519581.5944                   24519580.2034
 -56428568.95348 -43956717.00046  19860419.8444                   19860419.0164
 -89290266.37147 -69566262.01245  22126626.2974                   22126625.1644
 -21586555.30146 -16811897.63742  24449864.0004                   24449862.7814
 -39522744.91447 -30783768.41945  22380473.5314                   22380473.6524
 -29577139.19947 -23034424.20745  21873997.2664                   21873994.9384
 11  7 29  0 12 30.0000000  0  9G10G17G09G12G04G28G20G27G02
 -13875258.79746 -12345508.29543  22949253.9304                   22949255.2194
 -72421940.40647 -56419743.23246  21541071.5634                   21541070.8954
 -27463536.05947 -21361323.78445  22036135.0634                   22036134.6604
    -28857.00446      -938.09343  24483639.4924                   24483639.2234
 -56517386.26647 -44025925.29046  19843518.5394                   19843517.7934
 -89320159.95347 -69589555.73945  22120937.6724                   22120936.9454
 -21628637.84846 -16844689.30942  24441855.5634                   24441854.7624
 -39609980.15247 -30851743.95345  22363873.9844                   22363873.3834
 -29739167.72747 -23160680.14445  21843164.2194                   21843161.7814
 11  7 29  0 13  0.0000000  0  9G10G17G09G12G04G28G20G27G02
 -14057790.17646 -12487740.43244  22914519.6254                   22914520.2114
 -72479905.06247 -56464910.50745  21530041.5554                   21530040.5944
 -27562513.06247 -21438448.72745  22017300.2424                   22017300.2034
   -217647.87946   -148047.78343  24447713.8674                   24447713.4414
 -56605554.57847 -44094627.85246  19826740.8754                   19826740.0944
 -89349590.55547 -69612488.69844  22115337.3754                   22115336.2194
 -21670159.60246 -16877043.93042  24433954.2814                   24433953.7774
 -39696638.64846 -30919270.05745  22347382.6484                   22347382.9804
 -29900772.47347 -23286605.86445  21812411.6334                   21812409.4844
 11  7 29  0 13 30.0000000  0  9G10G17G09G12G04G28G20G27G02
 -14240072.58246 -12629778.57544  22879831.9454                   22879833.2584
 -72537682.71147 -56509932.06745  21519047.1254                   21519045.8324
 -27660749.94147 -21514996.95445  21998606.6804                   21998606.3364
   -406348.64546   -295087.32844  24411805.0634                   24411804.6094
 -56693070.97748 -44162822.44646  19810086.8914                   19810086.1724
 -89378554.67247 -69635058.20244  22109825.8914                   22109824.4924
 -21711117.85546 -16908959.45342  24426159.9064                   24426160.2814
 -39782716.98447 -30986344.12845  22331003.1564                   22331002.6764
 -30061948.45347 -23412197.48145  21781740.8134                   21781738.8164
 11  7 29  0 14  0.0000000  0  9G10G17G09G12G04G28G20G27G02
 -14422102.91046 -12771620.26844  22845193.4614                   22845193.3674
 -72595273.78947 -56554808.23145  21508087.5784                   21508086.6094
 -27758247.30547 -21590968.94145  21980053.0634                   21980053.1174
   -594957.67646   -442055.30543  24375914.0164                   24375913.4494
 -56779936.73847 -44230510.03546  19793557.0704                   19793555.7854
 -89407052.72347 -69657264.52845  22104402.9774                   22104402.0944
 -21751514.10946 -16940437.09443  24418473.1564                   24418472.5784
 -39868216.23846 -31052966.92245  22314732.5004                   22314732.4774
 -30222694.59847 -23537454.17045  21751151.7424                   21751149.5824
 11  7 29  0 14 30.0000000  0  9G10G17G09G12G04G28G20G27G02
 -14603875.07047 -12913260.84044  22810602.7114                   22810603.2664
 -72652675.26247 -56599536.68545  21497164.6254                   21497163.6054
 -27855002.64147 -21666362.73445  21961641.5394                   21961641.2464
   -783470.63346   -588948.45943  24340040.8674                   24340040.6174
 -56866149.94548 -44297689.15546  19777151.0554                   19777149.9024
 -89435082.77747 -69679106.15444  22099068.7894                   22099067.9344
 -21791346.87946 -16971475.59042  24410893.3284                   24410892.2854
 -39953134.12947 -31119136.74745  22298573.4614                   22298573.4654
 -30383007.45347 -23662373.22845  21720645.7424                   21720643.2544
 11  7 29  0 15  0.0000000  0  9G10G17G09G12G04G28G20G27G02
 -14785382.34447 -13054694.93144  22776063.2424                   22776064.0044
 -72709883.90247 -56644114.85246  21486278.3054                   21486276.8834
 -27951013.00847 -21741176.00845  21943371.2274                   21943371.0984
   -971882.10946   -735762.53943  24304187.1724                   24304186.8014
 -56951708.43748 -44364358.09746  19760869.8364                   19760868.8444
 -89462641.42247 -69700580.44944  22093824.3444                   22093823.7234
 -21830613.83645 -17002073.20742  24403420.7034                   24403419.4414
 -40037468.13347 -31184851.55745  22282525.4774                   22282525.5044
 -30542882.38748 -23786951.04345  21690222.2114                   21690219.9184
 11  7 29  0 15 30.0000000  0  9G10G17G09G12G04G28G20G27G02
 -14966617.99647 -13195917.44244  22741575.4064                   22741575.3364
 -72766896.24247 -56688540.06245  21475429.0864                   21475428.0044
 -28046275.54347 -21815406.57045  21925243.2504                   21925243.7034
  -1160187.26646   -882493.76443  24268354.2194                   24268353.6214
 -57036609.83248 -44430515.02546  19744713.3914                   19744712.6684
 -89489726.09847 -69721685.46244  22088670.9304                   22088669.7624
 -21869313.23445 -17032228.62542  24396056.7424                   24396054.9534
 -40121215.58647 -31250109.34345  22266588.7584                   22266588.8204
 -30702315.02047 -23911184.21545  21659883.3054                   21659881.3444
 11  7 29  0 16  0.0000000  0  9G10G17G09G12G04G28G20G27G02
 -13572161.48047 -12109327.84544  23006931.0864                   23006931.9924
 -71248299.19147 -55505217.71146  21764408.4384                   21764407.3594
 -26565376.16447 -20661459.02045  22207049.3834                   22207049.1454
    227033.21146    198457.28543  24532333.8754                   24532332.1604
 -55545441.03547 -43268565.31246  20028473.6334                   20028472.5984
 -87940925.05947 -68514827.52145  22383397.8444                   22383396.8134
 -20332033.57446 -15834348.39142  24688591.9924                   24688590.2704
 -38628963.32446 -30087315.39545  22550554.9224                   22550554.5394
 -29285887.89547 -22807474.70545  21929420.3524                   21929417.9804
 11  7 29  0 16 30.0000000  0  9G10G17G09G12G04G28G20G27G02
 -13752861.98446 -12250133.36344  22972544.6804                   22972545.8014
 -71304937.84047 -55549351.72445  21753631.0084                   21753629.5634
 -26659162.07047 -20734538.96545  22189201.9614                   22189202.3444
     38928.36346     51882.16743  24496537.6254                   24496537.1024
 -55629049.20748 -43333714.52146  20012563.5394                   20012562.5594
 -87967080.71947 -68535208.61044  22378420.4224                   22378419.6604
 -20369619.22746 -15863635.91442  24681439.4694                   24681437.8594
 -38711558.09047 -30151674.94645  22534837.4304                   22534837.7274
 -29444451.15247 -22931030.43745  21899246.5314                   21899244.5354
 11  7 29  0 17  0.0000000  0  9G10G17G09G12G04G28G20G27G02
 -13933286.68446 -12390723.91844  22938211.1954                   22938211.8554
 -71361386.08647 -55593337.39545  21742888.7814                   21742887.8284
 -26752206.90247 -20807041.45145  22171496.7344                   22171496.3204
   -149069.88746    -94609.99243  24460763.1484                   24460762.4024
 -55712009.19948 -43398358.67246  19996776.6094                   19996775.5514
 -87992769.23446 -68555225.68944  22373532.3524                   22373530.9224
 -20406646.52346 -15892488.37542  24674393.1884                   24674392.2074
 -38793574.39847 -30215583.78745  22519231.0394                   22519230.3204
 -29602574.62947 -23054243.49845  21869157.1174                   21869154.8134
 11  7 29  0 17 30.0000000  0  9G10G17G09G12G04G28G20G27G02
 -14113427.59446 -12531093.32644  22903931.8444                   22903931.7034
 -71417639.79347 -55637171.47446  21732184.2814                   21732183.0984
 -26844507.58247 -20878964.07644  22153932.5704                   22153932.1334
   -336956.58646   -241015.18043  24425009.3364                   24425008.4964
 -55794318.28548 -43462495.62346  19981113.8204                   19981112.7424
 -88017987.70347 -68574876.49244  22368733.0704                   22368731.6294
 -20443112.94546 -15920903.78142  24667453.9144                   24667453.1454
 -38875009.25047 -30279039.54545  22503734.1884                   22503734.0434
 -29760253.59847 -23177110.18445  21839151.2664                   21839149.2384
 11  7 29  0 18  0.0000000  0  8G10G17G09G12G04G28G27G02
 -14293286.06246 -12671242.68344  22869705.5784                   22869706.1484
 -71473703.45347 -55680857.45945  21721515.4774                   21721514.5234
 -26936068.53547 -20950310.28145  22136508.9144                   22136508.7034
   -524733.84846   -387335.00243  24389276.4534                   24389275.4534
 -55875981.66448 -43526129.40746  19965573.7734                   19965573.2774
 -88042740.49647 -68594164.43544  22364023.2274                   22364021.9614
 -38955867.80547 -30342046.21645  22488347.5784                   22488347.3554
 -29917491.71147 -23299633.32245  21809229.7424                   21809227.6994
 11  7 29  0 18 30.0000000  0  8G10G17G09G12G04G28G27G02
 -14472849.54346 -12811162.15744  22835535.6564                   22835536.3094
 -71529568.01647 -55724388.29745  21710884.8364                   21710883.9104
 -27026881.29347 -21021073.47044  22119228.0704                   22119228.1414
   -712390.21546   -533560.69843  24353566.8594                   24353565.3714
 -55956991.48447 -43589253.94546  19950158.2194                   19950157.2234
 -88067018.80147 -68613082.63344  22359403.3284                   22359402.3404
 -39036141.53546 -30404597.18745  22473071.6174                   22473071.7704
 -30074278.46147 -23421804.76545  21779394.1414                   21779391.8164
 11  7 29  0 19  0.0000000  0  8G10G17G09G12G04G28G27G02
 -14652091.39546 -12950831.00944  22801426.5084                   22801427.3444
 -71585210.03147 -55767745.71345  21700296.4694                   21700295.2854
 -27116923.05147 -21091235.88645  22102093.5164                   22102093.1214
   -899901.07846   -679672.93443  24317884.6094                   24317883.5864
 -56037325.59448 -43651851.93546  19934870.8674                   19934870.2304
 -88090800.28947 -68631613.68844  22354877.7894                   22354876.9104
 -39115808.06647 -30466675.01145  22457911.1804                   22457911.1844
 -30230589.69147 -23543605.66345  21749649.1484                   21749646.9024
 11  7 29  0 19 30.0000000  0  8G10G17G09G12G04G28G27G02
 -14831002.84846 -13090242.43744  22767381.2584                   22767381.6454
 -71640624.27047 -55810925.65545  21689751.5394                   21689750.4304
 -27206189.41847 -21160794.11545  22085106.8674                   22085106.2814
  -1087259.25046   -825666.36543  24282231.4774                   24282230.6174
 -56116979.87548 -43713920.20046  19919713.1954                   19919712.2934
 -88114079.83247 -68649753.67344  22350447.8914                   22350446.9574
 -39194863.20347 -30528276.45945  22442867.6884                   22442868.1254
 -30386419.66847 -23665031.59345  21719995.8674                   21719993.5514
 11  7 29  0 20  0.0000000  0  8G10G17G09G12G04G28G27G02
 -15009585.51646 -13229397.70644  22733398.0784                   22733398.4454
 -71695814.82447 -55853931.29446  21679249.2584                   21679248.0124
 -27294685.51647 -21229752.13044  22068266.5004                   22068266.4734
  -1274467.22746   -971542.62743  24246607.0164                   24246606.1484
 -56195960.25048 -43775463.33746  19904683.7814                   19904683.0084
 -88136862.55147 -68667506.47144  22346112.5554                   22346111.5944
 -39273312.20347 -30589405.57145  22427939.5394                   22427939.6724
 -30541771.32847 -23786084.78645  21690432.9384                   21690430.9024
 11  7 29  0 20 30.0000000  0  8G10G17G09G12G04G28G27G02
 -15187837.65647 -13368295.31844  22699477.1804                   22699478.0274
 -71750784.53947 -55896764.84045  21668789.1334                   21668787.8284
 -27382414.25447 -21298112.19445  22051572.1174                   22051571.9104
  -1461525.23446  -1117302.12243  24211010.8914                   24211009.7624
 -56274269.92248 -43836483.86146  19889781.8754                   19889780.7234
 -88159151.35947 -68684874.42644  22341871.3754                   22341870.0434
 -39351158.07047 -30650064.70645  22413126.1024                   22413126.1334
 -30696646.21548 -23906766.47145  21660961.5084                   21660959.4344
 11  7 29  0 21  0.0000000  0  8G10G17G09G12G04G28G27G02
 -15365761.57846 -13506937.24444  22665619.5784                   22665619.8634
 -71805538.44147 -55939430.22645  21658369.3754                   21658368.2114
 -27469381.81247 -21365879.12744  22035022.9144                   22035022.4614
  -1648436.97346  -1262947.56543  24175442.5474                   24175441.8054
 -56351915.70348 -43896987.06946  19875006.7194                   19875005.2234
 -88180952.13347 -68701862.11144  22337722.2894                   22337721.3054
 -39428407.42647 -30710259.06545  22398426.0864                   22398426.1414
 -30851048.67647 -24027080.05146  21631579.8284                   21631577.4184
 11  7 29  0 21 30.0000000  0  8G10G17G09G12G04G28G27G02
 -15543359.86747 -13645325.45944  22631824.2584                   22631824.1294
 -71860082.58647 -55981932.16445  21647990.4304                   21647989.1804
 -27555594.74247 -21433058.03645  22018616.8444                   22018616.9064
  -1835206.12146  -1408481.89543  24139901.7194                   24139901.1134
 -56428904.81248 -43956978.57046  19860355.8984                   19860355.1454
 -88202271.79347 -68718474.85444  22333665.3674                   22333664.8594
 -39505067.21947 -30769993.97745  22383837.8834                   22383837.8054
 -31004984.07847 -24147029.64946  21602287.1414                   21602284.6454
 11  7 29  0 22  0.0000000  0  8G10G17G09G12G04G28G27G02
 -15720623.69547 -13783453.02844  22598091.3364                   22598091.8754
 -71914411.37947 -56024266.29145  21637651.7344                   21637650.4844
 -27641048.16847 -21499645.13145  22002356.2974                   22002355.4064
  -2021826.01646  -1553899.95043  24104389.1954                   24104388.4804
 -56505233.23448 -44016455.25646  19845831.0164                   19845830.3284
 -88223105.31247 -68734708.82644  22329700.9534                   22329700.2814
 -39581132.90647 -30829265.97245  22369363.4064                   22369363.5314
 -31158446.19947 -24266610.49546  21573084.1414                   21573081.7274
 11  7 29  0 22 30.0000000  0  8G10G17G09G12G04G28G27G02
 -15897551.25047 -13921318.56144  22564423.1254                   22564423.3834
 -71968526.32047 -56066433.78345  21627354.2734                   21627353.0124
 -27725744.69147 -21565642.42645  21986238.3524                   21986238.1884
  -2208296.16846  -1699201.30243  24068904.9144                   24068904.1564
 -56580903.76248 -44075419.31246  19831431.6174                   19831430.8404
 -88243455.13347 -68750565.88544  22325828.8364                   22325828.0704
 -39656607.20347 -30888077.11345  22355000.6174                   22355000.8634
 -31311435.56248 -24385822.93546  21543970.8914                   21543968.5394
 11  7 29  0 23  0.0000000  0  8G10G17G09G12G04G28G27G02
 -16074140.07847 -14058920.15444  22530819.4534                   22530819.4774
 -72022428.25047 -56108435.28145  21617096.4614                   21617095.5434
 -27809686.21147 -21631051.42745  21970265.1334                   21970264.8954
  -2394615.15646  -1844384.88643  24033449.8594                   24033449.3634
 -56655918.67248 -44133872.48246  19817156.5944                   19817155.5514
 -88263322.51647 -68766046.98644  22322048.1644                   22322047.3404
 -39731492.05947 -30946429.00045  22340750.7734                   22340750.9534
 -31463952.45748 -24504667.23046  21514947.6644                   21514945.7934
 11  7 29  0 23 30.0000000  0  8G10G17G09G12G04G28G27G02
 -16250388.18047 -14196256.27044  22497281.0314                   22497280.4884
 -72076118.50847 -56150271.86345  21606879.6334                   21606878.7814
 -27892875.02047 -21695873.88145  21954434.7114                   21954434.7934
  -2580782.58246  -1989450.35043  23998023.3204                   23998022.7934
 -56730280.88348 -44191817.06246  19803006.1884                   19803005.2464
 -88282709.79747 -68781154.03344  22318358.8204                   22318358.1884
 -39805789.89847 -31004323.45045  22326612.7504                   22326612.7774
 -31615997.34847 -24623143.73646  21486014.9614                   21486012.4694
 11  7 29  0 24  0.0000000  0  8G10G17G09G12G04G28G27G02
 -16426297.75447 -14333328.58344  22463805.9534                   22463806.4654
 -72129602.39847 -56191947.61545  21596702.3674                   21596701.0434
 -27975317.42647 -21760114.71745  21938746.0784                   21938746.4574
  -2766802.18046  -2134400.61743  23962624.4844                   23962624.0354
 -56803997.10948 -44249258.26646  19788978.1884                   19788977.2154
 -88301623.08647 -68795891.69344  22314759.8914                   22314759.2344
 -39879507.45747 -31061765.73445  22312584.6334                   22312584.1374
 -31767575.11747 -24741256.24046  21457170.1644                   21457168.3404
 11  7 29  0 24 30.0000000  0  8G10G17G09G12G04G28G27G02
 -16601858.29747 -14470128.91544  22430397.4454                   22430397.6294
 -72182873.32847 -56233457.44745  21586565.6414                   21586563.9494
 -28057007.31247 -21823769.19745  21923201.7274                   21923200.9924
  -2952664.84046  -2279228.61543  23927256.1724                   23927255.7194
 -56877061.66448 -44306191.68646  19775074.4064                   19775073.5984
 -88320056.03147 -68810255.07844  22311252.2584                   22311251.3914
 -39952638.63347 -31118751.09245  22298668.3914                   22298668.3674
 -31918677.85547 -24858998.58745  21428416.7894                   21428414.1884
 11  7 29  0 25  0.0000000  0  8G10G17G09G12G04G28G27G02
 -15201645.74247 -13379054.13444  22696849.3444                   22696849.2704
 -70660513.91047 -55047203.36045  21876260.3364                   21876259.5164
 -26562528.11747 -20659239.97845  22207591.9614                   22207591.2424
  -1562947.54746  -1196332.01144  24191710.5554                   24191710.0274
 -55374058.82448 -43135020.65146  20061086.4924                   20061085.6454
 -86762593.75447 -67596648.16144  22607627.2344                   22607626.8244
 -38449767.52047 -29947682.71345  22584655.7274                   22584655.1604
 -30493885.01247 -23748770.38046  21699545.5314                   21699543.0634
 11  7 29  0 25 30.0000000  0  8G10G17G09G12G04G28G27G02
 -15376508.53147 -13515310.76144  22663574.3054                   22663574.1414
 -70713367.98047 -55088388.36645  21866202.8834                   21866201.5664
 -26642726.30547 -20721732.08045  22192330.4844                   22192329.6024
  -1748501.04746  -1340919.05443  24156401.0554                   24156400.3134
 -55445834.96948 -43190950.10946  20047427.8204                   20047427.0004
 -86780078.59047 -67610272.76344  22604300.0944                   22604300.0354
 -38521740.25447 -30003765.37145  22570959.3054                   22570959.1764
 -30644045.91047 -23865778.84146  21670970.5164                   21670968.3834
 11  7 29  0 26  0.0000000  0  8G10G17G09G12G04G28G27G02
 -15551016.29347 -13651290.73844  22630366.4144                   22630366.7814
 -70766012.63747 -55129410.17645  21856185.0314                   21856183.5824
 -26722179.09447 -20783643.36744  22177210.6724                   22177210.5084
  -1933895.80946  -1485382.45443  24121121.6094                   24121121.1374
 -55516967.84448 -43246378.31646  20033891.7894                   20033890.8874
 -86797089.60947 -67623528.12444  22601062.9694                   22601062.6954
 -38593134.22747 -30059397.07745  22557373.3914                   22557373.6724
 -30793733.09447 -23982418.17246  21642486.2504                   21642484.0664
 11  7 29  0 26 30.0000000  0  8G10G17G09G12G04G28G27G02
 -15725162.69547 -13786989.15444  22597226.7814                   22597227.1024
 -70818444.29747 -55170266.03545  21846207.1884                   21846206.5354
 -26800884.30147 -20844972.11345  22162233.9534                   22162233.0944
  -2119126.62546  -1629718.09943  24085872.9064                   24085872.5164
 -55587455.85548 -43301304.03446  20020478.0864                   20020477.4414
 -86813624.30947 -67636412.34644  22597916.4844                   22597916.2894
 -38663947.62147 -30114576.37445  22543898.1254                   22543897.9304
 -30942943.11347 -24098685.67346  21614092.5864                   21614089.7854
 11  7 29  0 27  0.0000000  0  8G10G17G09G12G04G28G27G02
 -15898948.98447 -13922406.96644  22564156.1174                   22564156.3444
 -70870667.76247 -55210959.65645  21836269.8134                   21836268.2584
 -26878848.33247 -20905723.32345  22147398.0944                   22147397.2274
  -2304196.34046  -1773928.18643  24050655.4774                   24050654.8204
 -55657305.73448 -43355732.51246  20007186.4694                   20007185.3284
 -86829688.57447 -67648930.00344  22594859.9224                   22594858.7854
 -38734186.60547 -30169308.05745  22530532.1174                   22530531.5824
 -31091680.26648 -24214584.72545  21585788.7194                   21585786.2584
 11  7 29  0 27 30.0000000  0  8G10G17G09G12G04G28G27G02
 -16072371.05546 -14057540.93444  22531155.6484                   22531155.7274
 -70922682.59847 -55251490.71845  21826371.7504                   21826370.1994
 -26956071.27047 -20965897.05945  22132703.1564                   22132702.4804
  -2489102.38346  -1918010.75644  24015469.5784                   24015468.3484
 -55726517.65648 -43409663.87546  19994015.9774                   19994015.1214
 -86845282.07047 -67661080.83244  22591892.5314                   22591891.3984
 -38803851.47347 -30223592.39145  22517275.2734                   22517275.2544
 -31239943.05547 -24330114.13845  21557575.1644                   21557572.7194
 11  7 29  0 28  0.0000000  0  8G10G17G09G12G04G28G27G02
 -16245428.69947 -14192390.98244  22498223.5944                   22498223.7704
 -70974491.60547 -55291861.39545  21816512.5634                   21816511.7704
 -27032557.45747 -21025496.73945  22118148.4384                   22118147.4064
  -2673846.06246  -2061966.81843  23980313.4384                   23980312.4804
 -55795096.72348 -43463102.10946  19980965.7274                   19980964.7464
 -86860408.97747 -67672868.09644  22589013.7504                   22589013.2234
 -38872946.71147 -30277432.84845  22504126.4614                   22504126.8594
 -31387733.60547 -24445275.55646  21529451.8204                   21529449.1884
 11  7 29  0 28 30.0000000  0  8G10G17G09G12G04G28G27G02
 -16418114.28147 -14326951.07944  22465362.5234                   22465362.9224
 -71026090.31647 -55332068.19745  21806694.0554                   21806692.7034
 -27108303.48447 -21084519.64045  22103734.0314                   22103733.3634
  -2858420.20347  -2205790.75744  23945190.4224                   23945189.1294
 -55863039.84448 -43516044.79146  19968036.5004                   19968035.3244
 -86875065.59847 -67684288.87644  22586225.1484                   22586223.6054
 -38941469.17647 -30330826.99945  22491087.6884                   22491087.5314
 -31535047.12147 -24560065.26546  21501418.6414                   21501416.6484
 11  7 29  0 29  0.0000000  0  8G10G17G09G12G04G28G27G02
 -16590424.46147 -14461218.69044  22432573.1334                   22432573.1254
 -71077478.37947 -55372110.85245  21796914.4614                   21796913.8754
 -27183310.78947 -21142966.89745  22089460.4224                   22089460.6054
  -3042823.72746  -2349481.78744  23910099.2344                   23910098.5554
 -55930348.85947 -43568493.37146  19955227.9384                   19955226.9734
 -86889253.13347 -67695344.16944  22583525.4064                   22583524.5944
 -39009420.47346 -30383776.09344  22478156.6414                   22478156.8284
 -31681883.08247 -24674482.84946  21473477.2274                   21473474.1414
 11  7 29  0 29 30.0000000  0  8G10G17G09G12G04G28G27G02
 -16762355.57447 -14595190.91944  22399855.3444                   22399856.0124
 -71128654.98447 -55411988.75145  21787176.6024                   21787175.4694
 -27257580.07047 -21200839.11545  22075327.8444                   22075327.3094
  -3227053.91846  -2493037.64944  23875041.5314                   23875040.6024
 -55997024.79347 -43620448.64446  19942540.1884                   19942538.9964
 -86902971.55547 -67706033.88344  22580915.1094                   22580913.9104
 -39076801.21546 -30436280.59845  22465334.5634                   22465335.1414
 -31828240.23447 -24788527.35146  21445625.9384                   21445623.3594
 11  7 29  0 30  0.0000000  0  8G10G17G09G12G04G28G27G02
 -16933902.79747 -14728864.01044  22367211.2664                   22367211.5434
 -71179619.04747 -55451701.03645  21777478.3754                   21777477.3484
 -27331111.16047 -21258136.09645  22061334.9694                   22061334.6374
  -3411107.16846  -2636455.72644  23840017.2584                   23840016.9024
 -56063067.61348 -43671910.58846  19929972.4694                   19929972.0204
 -86916220.47347 -67716357.75844  22578393.7274                   22578393.0594
 -39143610.99647 -30488340.19945  22452621.4064                   22452621.6214
 -31974116.48847 -24902197.12846  21417866.5394                   21417863.7974
 11  7 29  0 30 30.0000000  0  8G10G17G09G12G04G28G27G02
 -17105071.63347 -14862242.25444  22334638.9454                   22334638.7894
 -71230379.31247 -55491254.51045  21767818.7034                   21767817.9414
 -27403914.30547 -21314865.84945  22047481.7344                   22047480.9224
  -3594990.25046  -2779741.16544  23805025.4844                   23805024.8014
 -56128488.06248 -43722887.55546  19917523.2424                   19917522.3244
 -86929009.82447 -67726323.57244  22575959.7584                   22575959.3014
 -39209860.38747 -30539963.14844  22440014.3914                   22440014.8754
 -32119519.95347 -25015498.48846  21390197.0944                   21390194.0824
 11  7 29  0 31  0.0000000  0  8G10G17G09G12G04G28G27G02
 -17275859.16447 -14995323.40245  22302139.3364                   22302139.1334
 -71280935.97747 -55530649.32945  21758198.2664                   21758197.1374
 -27475991.25047 -21371029.70245  22033765.5554                   22033764.6054
  -3778701.35946  -2922892.64444  23770066.5394                   23770065.4414
 -56193288.20748 -43773381.16546  19905192.3134                   19905191.3914
 -86941341.08647 -67735932.41044  22573613.2274                   22573612.9964
 -39275551.49247 -30591151.03345  22427513.3594                   22427514.0744
 -32264450.91047 -25128431.66246  21362617.6094                   21362614.9964
 11  7 29  0 31 30.0000000  0  8G10G17G09G12G04G28G27G02
 -17446257.20747 -15128101.03744  22269713.0164                   22269712.8634
 -71331283.94147 -55569881.53845  21748617.4924                   21748616.2814
 -27547338.69547 -21426625.15845  22020188.6334                   22020188.2304
  -3962234.15646  -3065905.16543  23735140.9924                   23735140.3134
 -56257465.01648 -43823389.07546  19892979.8984                   19892979.2114
 -86953210.15247 -67745181.09444  22571354.9224                   22571354.4924
 -39340680.75847 -30641901.15145  22415120.1414                   22415120.2854
 -32408903.93048 -25240992.43446  21335129.1334                   21335126.4304
 11  7 29  0 32  0.0000000  0  8G10G17G09G12G04G28G27G02
 -17616260.64847 -15260571.16444  22237362.4774                   22237362.6684
 -71381421.48847 -55608949.76545  21739076.7194                   21739075.5354
 -27617956.16047 -21481651.76445  22006750.8444                   22006750.0744
  -4145584.83246  -3208775.75143  23700250.3984                   23700249.6484
 -56321018.37947 -43872911.15946  19880885.7584                   19880885.1764
 -86964616.44947 -67754069.17344  22569184.0704                   22569183.6764
 -39405247.88746 -30692213.20944  22402833.0164                   22402833.6524
 -32552876.69547 -25353178.95146  21307731.9694                   21307729.2704
 11  7 29  0 32 30.0000000  0  8G10G17G09G12G04G28G27G02
 -17785876.53147 -15392739.31545  22205085.9534                   22205085.4344
 -71431358.84847 -55647862.02345  21729573.8754                   21729572.5394
 -27687855.38747 -21536118.69845  21993448.9304                   21993448.5704
  -4328761.25446  -3351510.57744  23665393.6564                   23665392.6254
 -56383960.30948 -43921956.82346  19868908.7424                   19868907.7234
 -86975571.25847 -67762605.45744  22567099.7034                   22567099.7894
 -39469264.71147 -30742096.48345  22390651.6024                   22390651.6644
 -32696378.60948 -25464998.57246  21280424.6094                   21280422.0044
 11  7 29  0 33  0.0000000  0  8G10G17G09G12G04G28G27G02
 -17955093.69547 -15524596.76844  22172884.6884                   22172885.1684
 -71481087.87147 -55686611.93445  21720110.7114                   21720109.5274
 -27757029.91447 -21590020.96145  21980285.7814                   21980285.3094
  -4511753.11746  -3494101.55044  23630571.1094                   23630570.8134
 -56446284.48048 -43970521.11846  19857048.3754                   19857047.7664
 -86986067.75847 -67770784.60744  22565102.1094                   22565101.8404
 -39532724.45747 -30791545.67045  22378575.4534                   22378575.6254
 -32839401.22348 -25576444.73146  21253207.9844                   21253205.4614
 11  7 29  0 33 30.0000000  0  8G10G17G09G12G04G28G27G02
 -16548481.81647 -14428535.50844  22440554.2974                   22440554.0234
 -69955185.15247 -54497596.85445  22010480.4614                   22010479.1684
 -26250057.40647 -20415756.70045  22267052.8914                   22267052.0004
  -3119131.84846  -2408942.04744  23895577.6644                   23895577.2234
 -54932569.39848 -42791002.88146  20145099.4844                   20145098.2074
 -85420684.89847 -66551005.84644  22862985.0394                   22862984.2854
 -38020205.27047 -29612959.33844  22666398.2814                   22666398.3914
 -31406518.14148 -24459912.42746  21525876.6254                   21525874.0124
 11  7 29  0 34  0.0000000  0  8G10G17G09G12G04G28G27G02
 -16716886.10247 -14559759.56445  22408507.9224                   22408507.9574
 -70004491.23847 -54536017.19645  22001097.5704                   22001096.5514
 -26317781.59447 -20468528.83345  22254165.1484                   22254165.1334
  -3301744.25846  -2551237.41544  23860827.2504                   23860827.3134
 -54993658.09047 -42838604.44146  20133474.2194                   20133473.2274
 -85430261.75847 -66558468.37944  22861162.2584                   22861162.2584
 -38082550.32846 -29661539.92644  22654534.0634                   22654534.3834
 -31548575.77048 -24570606.65446  21498843.9844                   21498841.4694
 11  7 29  0 34 30.0000000  0  8G10G17G09G12G04G28G27G02
 -16884885.80547 -14690668.34444  22376538.1484                   22376538.2384
 -70053592.58647 -54574277.98245  21991753.7664                   21991752.8014
 -26384790.09847 -20520743.24145  22241414.4534                   22241413.8324
  -3484170.82446  -2693387.91544  23826113.3754                   23826112.8954
 -55054138.61748 -42885732.11646  20121965.2274                   20121964.0634
 -85439387.73447 -66565579.59044  22859425.8984                   22859425.8054
 -38144347.30147 -29709693.45545  22642774.9534                   22642775.3014
 -31690156.96147 -24680929.62046  21471901.8134                   21471899.3524
 11  7 29  0 35  0.0000000  0  8G10G17G09G12G04G28G27G02
 -17052480.75447 -14821261.76844  22344645.6804                   22344646.2664
 -70102492.18047 -54612381.59045  21982448.6564                   21982447.6134
 -26451087.37947 -20572403.48745  22228798.3914                   22228798.1214
  -3666412.06646  -2835394.03844  23791433.4694                   23791433.3164
 -55114015.69147 -42932389.59146  20110571.3204                   20110570.1454
 -85448066.62547 -66572342.45044  22857774.2584                   22857774.0824
 -38205600.71546 -29757423.41044  22631118.4224                   22631119.3324
 -31831264.27348 -24790883.34546  21445050.0634                   21445047.4924
 11  7 29  0 35 30.0000000  0  8G10G17G09G12G04G28G27G02
 -17219656.84847 -14951528.79344  22312833.1884                   22312832.9964
 -70151178.98047 -54650319.37845  21973183.7664                   21973182.6484
 -26516664.14147 -20623502.29945  22216319.2974                   22216319.7734
  -3848454.93446  -2977245.59544  23756792.4844                   23756791.2584
 -55173280.71148 -42978570.12946  20099293.0474                   20099292.3164
 -85456288.64847 -66578749.26944  22856210.1804                   22856208.7664
 -38266301.34447 -29804722.63345  22619568.3594                   22619568.0784
 -31971886.54347 -24900459.11146  21418290.5234                   21418287.8914
 11  7 29  0 36  0.0000000  0  8G10G17G09G12G04G28G27G02
 -17386417.92647 -15081472.43344  22281099.6174                   22281100.0164
 -70199659.72347 -54688096.58645  21963958.5314                   21963957.1414
 -26581529.20747 -20674046.51644  22203976.4064                   22203975.6954
  -4030304.44547  -3118946.53044  23722187.5554                   23722186.7194
 -55231942.09848 -43024280.30146  20088130.2974                   20088129.0634
 -85464061.87547 -66584806.40244  22854730.4064                   22854730.3444
 -38326457.85947 -29851597.88944  22608120.8364                   22608120.5664
 -32112030.30547 -25009662.01446  21391622.2274                   21391619.3404
 11  7 29  0 36 30.0000000  0  8G10G17G09G12G04G28G27G02
 -17552762.61347 -15211091.61145  22249445.0004                   22249445.1414
 -70247936.20747 -54725714.64145  21954771.5554                   21954770.6294
 -26645686.14547 -20724038.96044  22191767.3134                   22191766.8524
  -4211960.86747  -3260496.94444  23687620.1884                   23687618.4344
 -55290003.77748 -43069523.17346  20077081.6334                   20077080.8284
 -85471389.41047 -66590516.24644  22853336.0474                   22853336.2424
 -38386073.80147 -29898051.91644  22596776.1954                   22596775.4964
 -32251697.16847 -25118493.32546  21365044.2194                   21365041.5864
 11  7 29  0 37  0.0000000  0  8G10G17G09G12G04G28G27G02
 -17718686.26647 -15340382.71345  22217870.9844                   22217870.9064
 -70296006.50447 -54763172.04845  21945624.4694                   21945623.0784
 -26709135.16847 -20773479.80044  22179693.4384                   22179692.9024
  -4393420.29747  -3401893.89844  23653089.1254                   23653087.7504
 -55347466.33248 -43114299.19046  20066146.8594                   20066146.1524
 -85478271.00447 -66595878.58944  22852027.0704                   22852026.2704
 -38445149.50047 -29944084.96344  22585534.3594                   22585534.3284
 -32390885.07047 -25226951.40746  21338557.7504                   21338554.9654
 11  7 29  0 37 30.0000000  0  8G10G17G09G12G04G28G27G02
 -17884188.69547 -15469345.59845  22186377.1094                   22186377.0594
 -70343874.25847 -54800471.60945  21936515.5314                   21936514.2664
 -26771881.40647 -20822372.98545  22167753.6954                   22167752.9144
  -4574683.94547  -3543138.30044  23618595.6884                   23618594.4734
 -55404334.62147 -43158612.14146  20055325.3754                   20055324.5234
 -85484711.21147 -66600896.97644  22850801.2664                   22850801.8874
 -38503689.95746 -29989700.93844  22574394.3364                   22574395.2114
 -32529597.14148 -25335038.71246  21312161.9064                   21312159.0634
 11  7 29  0 38  0.0000000  0  8G10G17G09G12G04G28G27G02
 -18049260.34047 -15597972.80744  22154965.3364                   22154964.3834
 -70391532.91047 -54837608.24045  21927446.3674                   21927445.5554
 -26833920.02347 -20870714.79244  22155947.8134                   22155947.5394
  -4755743.41247  -3684223.61744  23584141.3054                   23584139.3634
 -55460604.35548 -43202458.69046  20044617.2274                   20044616.4024
 -85490704.66847 -66605567.29744  22849661.1254                   22849660.8404
 -38561690.40647 -30034896.12844  22563357.4304                   22563357.9924
 -32667826.50847 -25442749.87846  21285857.6094                   21285855.1604
 11  7 29  0 38 30.0000000  0  8G10G17G09G12G04G28G27G02
 -18213898.23847 -15726262.01745  22123634.9614                   22123635.0004
 -70438982.04747 -54874581.59345  21918417.1254                   21918416.2194
 -26895253.03147 -20918506.76445  22144276.7584                   22144276.2424
  -4936596.51246  -3825148.03544  23549725.9064                   23549724.9804
 -55516277.51648 -43245840.37146  20034023.0864                   20034022.2584
 -85496252.70347 -66609890.47244  22848604.9384                   22848604.7424
 -38619152.75447 -30079672.00945  22552423.0554                   22552422.6764
 -32805572.99248 -25550084.77146  21259645.1884                   21259642.4884
 11  7 29  0 39  0.0000000  0  8G10G17G09G12G04G28G27G02
 -18378104.41047 -15854214.83344  22092387.9614                   22092387.4384
 -70486226.75047 -54911395.66445  21909426.8134                   21909426.0594
 -26955887.59847 -20965754.49945  22132738.2734                   22132737.9064
  -5117246.10246  -3965913.92344  23515349.0704                   23515348.1484
 -55571361.05548 -43288762.62146  20023541.3594                   20023540.0554
 -85501361.66847 -66613871.59344  22847632.9304                   22847632.5004
 -38676083.38347 -30124033.58545  22541589.3754                   22541589.4614
 -32942841.14548 -25657046.95446  21233523.8204                   21233521.0984
 11  7 29  0 39 30.0000000  0  8G10G17G09G12G04G28G27G02
 -18541873.09847 -15981826.74345  22061223.3754                   22061223.8674
 -70533264.48447 -54948048.45745  21900475.6254                   21900474.8754
 -27015823.32847 -21012457.69345  22121332.6564                   22121332.3834
  -5297688.09846  -4106518.04844  23481012.2894                   23481011.3794
 -55625854.93048 -43331225.38146  20013171.4774                   20013170.1524
 -85506030.51247 -66617509.71244  22846744.5784                   22846744.0904
 -38732481.90247 -30167980.51844  22530857.6644                   22530856.9654
 -33079628.54348 -25763634.49746  21207494.0784                   21207491.6994
 11  7 29  0 40  0.0000000  0  8G10G17G09G12G04G28G27G02
 -18705197.88347 -16109092.75945  22030144.5164                   22030144.1524
 -70580091.68447 -54984537.19245  21891564.9614                   21891563.5204
 -27075058.44147 -21058614.94845  22110060.8364                   22110060.6524
  -5477916.78146  -4246955.89544  23446715.7034                   23446714.8404
 -55679757.52348 -43373227.40446  20002913.6884                   20002913.0354
 -85510257.08647 -66620803.21944  22845940.4774                   22845940.4494
 -38788346.90647 -30211511.71344  22520226.4614                   22520226.4144
 -33215931.27347 -25869844.38546  21181556.3524                   21181554.2504
 11  7 29  0 40 30.0000000  0  8G10G17G09G12G04G28G27G02
 -18868078.30147 -16236012.52745  21999148.9844                   21999148.8364
 -70626710.65647 -55020863.68445  21882693.7974                   21882692.2344
 -27133597.53947 -21104229.85744  22098920.7424                   22098920.6764
  -5657932.67646  -4387227.96944  23412459.2114                   23412459.2424
 -55733073.51647 -43414772.34846  19992768.2344                   19992767.3594
 -85514045.26647 -66623755.11044  22845219.5784                   22845219.6454
 -38843682.80947 -30254630.63544  22509696.5004                   22509696.4494
 -33351752.19547 -25975678.84146  21155710.6644                   21155708.1294
 11  7 29  0 41  0.0000000  0  8G10G17G09G12G04G28G27G02
 -19030511.87147 -16362584.08445  21968239.2194                   21968238.6414
 -70673122.35947 -55057028.66745  21873861.9614                   21873860.6564
 -27191443.49647 -21149304.66244  22087913.6644                   22087913.1024
  -5837734.14846  -4527332.97544  23378244.2584                   23378244.1564
 -55785805.91448 -43455862.54146  19982733.5474                   19982732.6644
 -85517397.11747 -66626367.02744  22844582.2344                   22844581.5124
 -38898492.23847 -30297339.33444  22499266.1724                   22499266.2974
 -33487091.50047 -26081138.02246  21129956.8204                   21129954.1724
 11  7 29  0 41 30.0000000  0  8G10G17G09G12G04G28G27G02
 -19192493.36347 -16488803.39345  21937414.6724                   21937414.4454
 -70719324.22747 -55093030.13145  21865069.4694                   21865068.3054
 -27248596.16047 -21193839.24344  22077037.6334                   22077037.6564
  -6017317.43446  -4667267.88344  23344070.2974                   23344070.5084
 -55837954.40648 -43496497.73446  19972809.9064                   19972809.1374
 -85520312.16847 -66628638.60444  22844027.7734                   22844027.5984
 -38952775.04347 -30339637.65244  22488936.7814                   22488937.3404
 -33621947.00447 -26186220.20146  21104294.1884                   21104291.7504
 11  7 29  0 42  0.0000000  0  8G10G17G09G12G04G28G27G02
 -19354022.62947 -16614670.29345  21906676.2894                   21906676.5044
 -70765319.32047 -55128870.48345  21856317.3054                   21856316.1564
 -27305060.52747 -21237837.48145  22066292.8054                   22066292.8634
  -6196683.48047  -4807033.58544  23309938.7274                   23309938.0664
 -55889524.34448 -43536682.09846  19962996.7974                   19962995.9884
 -85522794.47747 -66630572.94444  22843555.2034                   22843554.8794
 -39006536.04747 -30381529.37644  22478706.6564                   22478706.7854
 -33756321.80148 -26290927.80846  21078723.8914                   21078721.3674
 11  7 29  0 42 30.0000000  0  8G10G17G09G12G04G28G27G02
 -19515094.40647 -16740180.74145  21876025.9064                   21876025.6054
 -70811104.91847 -55164547.60745  21847604.6414                   21847603.5474
 -27360836.39147 -21281299.22645  22055679.0164                   22055678.8674
  -6375827.85247  -4946626.53944  23275848.8914                   23275848.0594
 -55940515.07048 -43576415.14946  19953293.1804                   19953292.5514
 -85524842.98047 -66632169.24644  22843165.5004                   22843165.0354
 -39059774.82447 -30423014.16944  22468575.4534                   22468575.8554
 -33890212.92648 -26395258.53846  21053245.2584                   21053242.4454
 11  7 29  0 43  0.0000000  0  8G10G17G09G12G04G28G27G02
 -18100281.91447 -15637729.37245  22145255.2814                   22145255.1884
 -69281261.90247 -53972462.13645  22138723.8674                   22138722.7234
 -25840506.20347 -20096626.36544  22344988.2424                   22344988.3984
  -4979324.19547  -3858441.79644  23541594.5864                   23541593.7274
 -54415509.43448 -42388099.06146  20243492.3834                   20243491.4344
 -83951041.18747 -65405830.27344  23142649.9844                   23142649.8324
 -37537073.70747 -29236493.86245  22758335.6644                   22758335.6804
 -32448197.89148 -25271610.41346  21327651.3134                   21327648.8134
 11  7 29  0 43 30.0000000  0  8G10G17G09G12G04G28G27G02
 -18260432.96947 -15762522.35245  22114780.1414                   22114779.5864
 -69326632.34447 -54007815.74545  22130090.4694                   22130089.1094
 -25894915.82447 -20139023.51545  22334634.2344                   22334634.7114
  -5158022.46947  -3997687.13444  23507589.0084                   23507588.5354
 -54465352.87548 -42426938.10346  20234007.5234                   20234006.8794
 -83952230.71947 -65406757.21644  23142424.1024                   23142422.6764
 -37589277.98847 -29277172.54945  22748401.8444                   22748402.1024
 -32581125.40248 -25375190.27246  21302356.2034                   21302353.1994
 11  7 29  0 44  0.0000000  0  8G10G17G09G12G04G28G27G02
 -18420122.72747 -15886955.88945  22084391.6644                   22084391.5744
 -69371798.96147 -54043010.53445  22121495.5704                   22121494.0044
 -25948649.46147 -20180893.92644  22324409.3054                   22324409.2304
  -5336498.19547  -4136759.05444  23473626.9454                   23473625.6454
 -54514629.58648 -42465335.54746  20224630.3834                   20224629.5864
 -83952996.33646 -65407353.93343  23142277.6484                   23142277.4344
 -37640971.82047 -29317453.49044  22738564.8444                   22738564.6914
 -32713574.86348 -25478397.61346  21277151.6024                   21277148.9694
 11  7 29  0 44 30.0000000  0  9G10G17G09G12G04G28G05G27G02
 -18579339.80147 -16011021.09745  22054094.0944                   22054093.6604
 -69416752.78147 -54078039.49345  22112940.9144                   22112940.1174
 -26001700.25446 -20222232.25745  22314314.4454                   22314314.4964
  -5514740.94147  -4275649.45044  23439708.0394                   23439707.2894
 -54563332.99248 -42503286.26746  20215362.6094                   20215361.6524
 -83953331.55146 -65407615.20043  23142213.7974                   23142212.9534
   7597329.24656   5941734.96654  24751438.5164                   24751442.8444
 -37692148.54346 -29357331.48444  22728826.1804                   22728826.3204
 -32845537.52748 -25581225.62646  21252039.9384                   21252037.3444
 11  7 29  0 45  0.0000000  0  9G10G17G09G12G04G28G05G27G02
 -18738097.60247 -16134728.42945  22023883.5394                   22023883.0204
 -69461509.84447 -54112915.13945  22104423.8444                   22104422.8674
 -26054087.37547 -20263053.39745  22304345.4774                   22304345.1564
  -5692764.89147  -4414369.37544  23405830.7814                   23405830.1334
 -54611481.91048 -42540804.89346  20206199.8204                   20206199.0704
 -83953253.83646 -65407554.72043  23142230.2274                   23142228.4804
   7408216.96146   5794375.03644  24715451.0084                   24715455.1524
 -37742826.76246 -29396821.03644  22719182.0234                   22719182.3834
 -32977029.85948 -25683687.15346  21227017.8754                   21227015.2624
 11  7 29  0 45 30.0000000  0  9G10G17G09G12G04G28G05G27G02
 -18896400.21547 -16258081.08345  21993759.1644                   21993758.6604
 -69506077.89147 -54147643.51445  22095943.2814                   22095941.6094
 -26105820.34047 -20303364.86045  22294500.7034                   22294500.6914
  -5870575.06647  -4552922.70844  23371994.6724                   23371993.5514
 -54659085.80948 -42577898.85146  20197141.6024                   20197140.1884
 -83952772.16846 -65407179.50743  23142320.8054                   23142320.9654
   7219115.85546   5647023.86643  24679466.0554                   24679469.9344
 -37793015.64847 -29435929.30244  22709631.8914                   22709632.2774
 -33108059.13748 -25785787.86646  21202083.9694                   21202081.2194
 11  7 29  0 46  0.0000000  0  9G10G17G09G12G04G28G05G27G02
 -19054244.46547 -16381076.54745  21963722.7424                   21963722.2814
 -69550456.11347 -54182223.95745  22087498.2974                   22087497.0744
 -26156901.05147 -20343168.04044  22284780.2344                   22284780.1254
  -6048169.18446  -4691307.67744  23338199.7344                   23338198.6604
 -54706146.55948 -42614569.55746  20188186.0864                   20188185.3094
 -83951887.43746 -65406490.20543  23142489.6724                   23142488.5044
   7030028.76246   5499683.57143  24643483.4534                   24643487.5824
 -37842717.09447 -29474657.73344  22700174.0234                   22700174.1954
 -33238624.74248 -25887527.28246  21177238.0234                   21177235.1334
 11  7 29  0 46 30.0000000  0  9G10G17G09G12G04G28G05G27G02
 -19211619.79747 -16503706.65145  21933774.8134                   21933774.4614
 -69594636.93447 -54216650.59145  22079090.3204                   22079089.4104
 -26207323.97347 -20382458.65944  22275184.8984                   22275185.2504
  -6225537.44947  -4829516.64944  23304447.4384                   23304446.2114
 -54752659.01648 -42650813.03846  20179334.8364                   20179334.1214
 -83950593.92246 -65405482.30243  23142734.9844                   23142735.1844
   6840964.89546   5352361.41643  24607506.1024                   24607509.8554
 -37891925.69947 -29513002.14644  22690809.3444                   22690810.2814
 -33368719.23048 -25988899.57546  21152481.8284                   21152478.9844
 11  7 29  0 47  0.0000000  0  9G10G17G09G12G04G28G05G27G02
 -19368519.94547 -16625966.46645  21903917.3284                   21903917.1914
 -69638616.95747 -54250920.75245  22070721.8444                   22070720.2934
 -26257088.58647 -20421236.33244  22265715.5004                   22265715.8054
  -6402674.68747  -4967545.62244  23270739.2114                   23270738.2774
 -54798621.85548 -42686628.23346  20170588.5784                   20170587.8984
 -83948889.71146 -65404154.42943  23143060.0784                   23143059.3364
   6651930.43846   5205062.18543  24571534.0474                   24571537.0274
 -37940640.16447 -29550961.51144  22681539.5474                   22681540.6134
 -33498339.48048 -26089902.33746  21127816.1334                   21127812.9964
 11  7 29  0 47 30.0000000  0  9G10G17G09G12G04G28G05G27G02
 -19524940.68047 -16747852.70245  21874151.7974                   21874151.2934
 -69682394.32846 -54285033.00445  22062390.9384                   22062389.7384
 -26306195.52047 -20459501.48445  22256370.9844                   22256370.9064
  -6579577.40247  -5105391.85244  23237075.8524                   23237074.3404
 -54844036.09447 -42722015.95946  20161946.2274                   20161945.5904
 -83946775.27346 -65402506.91643  23143462.6334                   23143462.0554
   6462929.15246   5057788.71843  24535567.1094                   24535570.5824
 -37988861.35247 -29588536.48744  22672363.6724                   22672364.1914
 -33627484.02348 -26190534.42646  21103240.5784                   21103237.7034
 11  7 29  0 48  0.0000000  0  9G10G17G09G12G04G28G05G27G02
 -19680876.85547 -16869361.36545  21844477.9774                   21844477.5984
 -69725967.22347 -54318985.92945  22054099.0864                   22054098.7274
 -26354645.43047 -20497254.69145  22247150.5394                   22247150.8284
  -6756241.04347  -5243051.78644  23203457.8754                   23203456.4694
 -54888902.20748 -42756976.55646  20153408.8284                   20153407.9614
 -83944249.78146 -65400539.03943  23143943.0234                   23143942.5904
   6273965.18046   4910544.38343  24499608.5944                   24499611.5164
 -38036589.45346 -29625727.26544  22663281.5084                   22663281.6764
 -33756150.82848 -26290794.24946  21078756.1094                   21078752.9694
 11  7 29  0 48 30.0000000  0  9G10G17G09G12G04G28G05G27G02
 -19836322.00847 -16990487.41745  21814897.2734                   21814897.0434
 -69769332.04347 -54352776.71245  22045847.5084                   22045846.3054
 -26402437.08647 -20534494.98944  22238056.8284                   22238056.7114
  -6932660.53147  -5380521.47444  23169886.4614                   23169885.3874
 -54933218.61748 -42791508.82346  20144975.6724                   20144974.7894
 -83941311.77046 -65398249.73143  23144501.7034                   23144501.6134
   6085045.03946   4763334.11343  24463658.5234                   24463661.3674
 -38083822.82447 -29662532.50644  22654293.3444                   22654293.4534
 -33884336.37548 -26390679.07446  21054363.1254                   21054360.0274
 11  7 29  0 49  0.0000000  0  9G10G17G09G12G04G28G05G27G02
 -19991278.59047 -17111232.75945  21785410.4384                   21785410.2544
 -69812493.86747 -54386409.31845  22037633.7974                   22037632.9614
 -26449578.64547 -20571228.69844  22229086.0164                   22229085.9064
  -7108838.64547  -5517803.13144  23136360.7424                   23136359.7544
 -54976993.19948 -42825618.89646  20136645.5394                   20136644.5944
 -83937967.76647 -65395644.10244  23145138.6414                   23145138.6454
   5896165.28546   4616155.36043  24427715.8284                   24427718.5084
 -38130569.29347 -29698958.37844  22645397.9774                   22645397.7624
 -34012046.46148 -26490193.41546  21030060.5864                   21030057.8914
 11  7 29  0 49 30.0000000  0  9G10G17G09G12G04G28G05G27G02
 -20145741.71947 -17231593.59345  21756017.0474                   21756016.5514
 -69855449.94947 -54419881.61945  22029459.3594                   22029458.9654
 -26496070.51647 -20607456.16645  22220239.2504                   22220238.6134
  -7284771.35247  -5654893.51344  23102882.0314                   23102880.8054
 -55020226.36748 -42859307.08246  20128418.6564                   20128417.5864
 -83934217.08647 -65392721.56544  23145852.3364                   23145851.8444
   5707330.42246   4469011.55343  24391781.6484                   24391784.1294
 -38176828.95347 -29735004.90244  22636594.7034                   22636595.5124
 -34139278.34848 -26589335.12646  21005849.2664                   21005846.3134
 11  7 29  0 50  0.0000000  0  9G10G17G09G12G04G28G05G27G02
 -20299704.85247 -17351564.82045  21726718.7894                   21726718.4144
 -69898197.29347 -54453191.23945  22021325.0314                   22021324.1844
 -26541911.44947 -20643176.39044  22211515.5084                   22211515.5434
  -7460453.11347  -5791788.35744  23069451.0084                   23069449.8364
 -55062916.70348 -42892572.26546  20120294.8594                   20120293.8094
 -83930058.56247 -65389481.23344  23146644.0554                   23146642.9264
   5518546.56346   4321907.52943  24355856.7344                   24355859.8484
 -38222600.55547 -29770671.13444  22627884.4454                   22627885.1094
 -34266029.40248 -26688102.16246  20981729.0554                   20981726.5594
 11  7 29  0 50 30.0000000  0  9G10G17G09G12G04G28G05G27G02
 -20453163.69947 -17471143.11045  21697516.4144                   21697515.9804
 -69940734.39847 -54486337.06745  22013230.8524                   22013229.6604
 -26587102.48047 -20678390.21944  22202916.4844                   22202916.4454
  -7635880.23847  -5928484.82344  23036068.3594                   23036067.1844
 -55105065.18748 -42925415.23746  20112274.2734                   20112273.1604
 -83925492.12946 -65385923.06744  23147512.7814                   23147513.5864
   5329817.95746   4174846.52643  24319943.0164                   24319946.0354
 -38267884.89847 -29805957.66644  22619267.2114                   22619267.8594
 -34392298.00448 -26786493.27546  20957701.0864                   20957698.3444
 11  7 29  0 51  0.0000000  0  9G10G17G09G12G04G28G05G27G02
 -20606115.52347 -17590326.28445  21668410.6884                   21668409.9574
 -69983061.12547 -54519318.94645  22005176.2424                   22005175.2664
 -26631646.21547 -20713099.64444  22194439.6804                   22194439.6024
  -7811050.58247  -6064981.14644  23002734.2424                   23002733.3484
 -55146674.18048 -42957837.83446  20104356.3754                   20104355.5594
 -83920519.36346 -65382048.28543  23148457.5474                   23148458.9694
   5141146.35246   4027829.99043  24284039.1884                   24284042.2424
 -38312684.44947 -29840866.43144  22610742.3524                   22610742.8874
 -34518084.39848 -26884508.62146  20933765.0864                   20933762.0904
 11  7 29  0 51 30.0000000  0  9G10G17G09G12G04G28G05G27G02
 -20758557.20747 -17709111.96045  21639401.8364                   21639401.5004
 -70025176.53947 -54552136.17245  21997161.9614                   21997160.6724
 -26675545.33247 -20747306.77144  22186085.6724                   22186085.7934
  -7985961.52347  -6201275.37644  22969450.0004                   22969448.7034
 -55187745.84448 -42989841.72746  20096540.8524                   20096539.7384
 -83915141.89146 -65377858.14243  23149482.8754                   23149482.4574
   4952534.73046   3880860.12643  24248147.2034                   24248150.1954
 -38357001.07447 -29875398.91744  22602309.3524                   22602309.8164
 -34643388.53148 -26982148.19046  20909920.1024                   20909917.8014
 11  7 29  0 52  0.0000000  0  9G10G17G09G12G04G28G05G27G02
 -20910490.58247 -17827501.54845  21610489.9694                   21610489.3444
 -70067085.26247 -54584792.34545  21989187.0314                   21989186.2774
 -26718806.93047 -20781017.15044  22177853.2974                   22177853.6214
  -8160615.84047  -6337369.63144  22936214.1724                   22936213.3874
 -55228287.41447 -43021432.56146  20088826.0944                   20088825.0904
 -83909366.32846 -65373357.85043  23150580.4924                   23150581.9884
   4763980.54346   3733935.09843  24212267.3284                   24212269.6954
 -38400841.90647 -29909560.64744  22593967.0314                   22593966.9454
 -34768215.07448 -27079415.61346  20886166.3674                   20886163.5744
 11  7 29  0 52 30.0000000  0  9G10G17G09G12G04G28G05G27G02
 -19486479.76247 -16717882.69845  21881470.0164                   21881469.7974
 -68533358.13347 -53389680.31445  22281045.0944                   22281044.4224
 -25186004.17647 -19586625.38644  22469536.4924                   22469536.2774
  -6759577.65647  -5245651.53344  23202822.9694                   23202821.9734
 -53692871.73048 -41825004.74746  20381005.9924                   20381005.0904
 -82327766.44846 -64140942.43943  23451550.8204                   23451549.9384
   6150920.52746   4814667.78943  24476192.7664                   24476195.3754
 -36868779.83247 -28715746.08644  22885508.6804                   22885508.9844
 -33317132.19948 -25948701.66046  21162298.0944                   21162295.4884
 11  7 29  0 53  0.0000000  0  9G10G17G09G12G04G28G05G27G02
 -19637373.36747 -16835462.07845  21852756.0084                   21852755.7304
 -68574839.16447 -53422003.21545  22273152.1954                   22273151.1054
 -25227983.89847 -19619336.90644  22461548.0704                   22461547.8594
  -6933697.84447  -5381329.57044  23169689.0314                   23169687.9104
 -53732345.20348 -41855763.30346  20373494.1484                   20373493.2464
 -82321184.90246 -64135813.95043  23452802.5314                   23452802.0434
   5962503.74646   4667849.78844  24440338.0084                   24440340.2034
 -36911661.21547 -28749160.17144  22877348.5234                   22877349.1174
 -33440989.89548 -26045214.13646  21138728.6724                   21138726.4264
 11  7 29  0 53 30.0000000  0  9G10G17G09G12G04G28G05G27G02
 -19787740.38747 -16952631.12645  21824141.9694                   21824141.7544
 -68616103.52047 -53454157.28045  22265299.6804                   22265298.8164
 -25269324.55947 -19651550.44444  22453680.6884                   22453680.9144
  -7107544.95747  -5516794.84344  23136606.7424                   23136606.5004
 -53771286.09448 -41886106.85346  20366083.9694                   20366083.3164
 -82314200.25446 -64130371.47643  23454131.9224                   23454131.9224
   5774161.71946   4521090.01144  24404497.1174                   24404499.6994
 -36954063.93747 -28782201.32444  22869279.9144                   22869279.9414
 -33564360.98448 -26141347.43046  21115252.4924                   21115249.5514
 11  7 29  0 54  0.0000000  0  9G10G17G09G12G04G28G05G27G02
 -19937578.03147 -17069387.69145  21795628.7504                   21795628.2854
 -68657150.82447 -53486142.20545  22257488.7274                   22257487.8594
 -25310028.52047 -19683267.83844  22445935.5634                   22445934.8674
  -7281117.00047  -5652045.76044  23103577.8524                   23103576.2664
 -53809696.72348 -41916037.23146  20358774.4924                   20358773.8834
 -82306814.32046 -64124616.25843  23455537.4924                   23455536.9104
   5585896.37146   4374390.06644  24368672.0634                   24368674.1374
 -36995990.30947 -28814871.25144  22861301.1334                   22861301.8244
 -33687245.85548 -26237101.86746  21091867.8134                   21091865.0204
 11  7 29  0 54 30.0000000  0  9G10G17G09G12G04G28G05G27G02
 -20086881.95747 -17185728.37845  21767217.7274                   21767216.9224
 -68697979.25847 -53517956.59745  22249719.3754                   22249718.4654
 -25350096.75847 -19714489.86444  22438311.1094                   22438310.8054
  -7454409.96147  -5787079.21344  23070600.6644                   23070599.6484
 -53847577.55948 -41945554.77846  20351565.8754                   20351565.0634
 -82299027.28146 -64118548.51843  23457019.4614                   23457019.5044
   5397712.60946   4227753.63543  24332860.4224                   24332862.9694
 -37037440.98847 -28847170.52544  22853413.8914                   22853414.1054
 -33809642.83248 -26332476.11646  21068576.7664                   21068573.9494
 11  7 29  0 55  0.0000000  0  9G10G17G09G12G04G28G05G27G02
 -20235652.19947 -17301653.20445  21738907.5394                   21738906.7194
 -68738592.15647 -53549603.02545  22241990.8524                   22241990.1604
 -25389535.64547 -19745221.49745  22430805.6254                   22430805.4104
  -7627425.16047  -5921896.23244  23037676.8754                   23037675.9184
 -53884934.37948 -41974663.99046  20344457.2894                   20344456.7664
 -82290844.02046 -64112172.05043  23458576.6644                   23458576.5784
   5209609.56646   4081180.09343  24297065.9224                   24297068.7664
 -37078421.55946 -28879103.46744  22845615.1414                   22845615.5084
 -33931555.25848 -26427472.78746  21045377.4614                   21045374.5434
 11  7 29  0 55 30.0000000  0  9G10G17G09G12G04G28G05G27G02
 -20383880.36347 -17417155.61845  21710700.7734                   21710699.8594
 -68778983.44947 -53581076.79345  22234304.6644                   22234303.5314
 -25428342.06646 -19775460.31245  22423421.2274                   22423421.2194
  -7800154.35947  -6056490.38844  23004807.8674                   23004806.4264
 -53921763.74248 -42003362.21546  20337449.0944                   20337448.5394
 -82282260.77746 -64105483.95643  23460210.3754                   23460209.9414
   5021595.25846   3934675.75143  24261287.6884                   24261289.9694
 -37118928.80146 -28910667.59544  22837907.3284                   22837907.7504
 -34052977.62948 -26522087.60146  21022271.5704                   21022268.7504
 11  7 29  0 56  0.0000000  0  9G10G17G09G12G04G28G05G27G02
 -20531564.56647 -17532234.18345  21682597.0394                   21682596.5084
 -68819153.51647 -53612378.16645  22226660.7664                   22226659.9774
 -25466519.37947 -19805208.89944  22416156.9224                   22416156.4734
  -7972596.09847  -6190860.54444  22971993.3364                   22971992.0274
 -53958068.90648 -42031651.96146  20330540.4844                   20330539.8204
 -82273280.10946 -64098486.03044  23461919.1564                   23461919.5124
   4833671.64146   3788241.99643  24225527.0004                   24225528.7424
 -37158965.75047 -28941865.27444  22830288.4924                   22830288.7424
 -34173911.15248 -26616321.49846  20999258.5864                   20999256.2114
 11  7 29  0 56 30.0000000  0  9G10G17G09G12G04G28G05G27G02
 -20678699.46547 -17646884.70645  21654597.9614                   21654597.5514
 -68859100.06247 -53643505.36545  22219059.0164                   22219058.1294
 -25504068.05147 -19834467.64444  22409011.2344                   22409010.9614
  -8144745.78547  -6325003.13144  22939234.0164                   22939233.0434
 -53993850.12948 -42059533.44046  20323731.6724                   20323731.0084
 -82263901.07046 -64091177.88843  23463703.7274                   23463704.4104
   4645843.42246   3641882.63743  24189783.9304                   24189786.4184
 -37198532.59847 -28972696.63244  22822758.9144                   22822759.8874
 -34294353.60548 -26710172.73946  20976339.0634                   20976336.2854
 11  7 29  0 57  0.0000000  0  9G10G17G09G12G04G28G05G27G02
 -20825284.07047 -17761106.44845  21626703.8364                   21626703.5044
 -68898824.37547 -53674459.38445  22211500.1094                   22211499.1724
 -25540992.41847 -19863239.93544  22401984.6724                   22401984.0864
  -8316603.07047  -6458917.86944  22906530.7114                   22906529.7934
 -54029111.37547 -42087009.76246  20317021.3054                   20317020.6994
 -82254127.35547 -64083561.97443  23465564.0704                   23465563.2034
   4458111.66846   3495598.41943  24154059.8284                   24154061.9064
 -37237633.39847 -29003164.82244  22815318.6254                   22815319.0944
 -34414307.19948 -26803643.06046  20953511.9924                   20953509.8094
 11  7 29  0 57 30.0000000  0  9G10G17G09G12G04G28G05G27G02
 -20971317.37547 -17874898.60945  21598914.6644                   21598914.1334
 -68938327.85547 -53705241.33445  22203983.0084                   22203981.7154
 -25577296.65247 -19891528.97644  22395076.4064                   22395075.7624
  -8488166.99647  -6592604.00245  22873883.4064                   22873882.2584
 -54063856.48048 -42114083.87446  20310409.9844                   20310408.8204
 -82243962.26246 -64075641.16543  23467498.1334                   23467497.9144
   4270477.38346   3349390.11443  24118354.1804                   24118355.5274
 -37276272.03947 -29033272.90344  22807965.7894                   22807966.2624
 -34533773.43748 -26896733.61746  20930779.6954                   20930776.5234
 11  7 29  0 58  0.0000000  0  9G10G17G09G12G04G28G05G27G02
 -21116795.18047 -17988257.89745  21571231.5004                   21571230.9264
 -68977608.48847 -53735849.63945  22196507.8914                   22196506.7384
 -25612982.35947 -19919336.08044  22388285.8134                   22388285.3674
  -8659433.88347  -6726058.70045  22841292.1564                   22841291.0044
 -54098086.35948 -42140756.51946  20303896.0704                   20303895.3444
 -82233406.06246 -64067415.66243  23469507.7504                   23469507.3014
   4082944.52046   3203260.89843  24082667.3834                   24082669.3484
 -37314449.29347 -29063021.46444  22800700.5554                   22800701.5084
 -34652751.14148 -26989443.50046  20908138.2114                   20908135.0664
 11  7 29  0 58 30.0000000  0  9G10G17G09G12G04G28G05G27G02
 -21261716.22347 -18101183.34645  21543653.6804                   21543653.2894
 -69016667.64147 -53766285.35845  22189075.1484                   22189074.3954
 -25648054.09847 -19946664.72844  22381611.9064                   22381611.4344
  -8830402.74647  -6859281.14245  22808758.2114                   22808757.1134
 -54131805.22348 -42167030.96746  20297479.7034                   20297478.9064
 -82222462.21545 -64058888.03743  23471588.0864                   23471589.4844
   3895513.93846   3057211.35244  24047000.3524                   24047002.0664
 -37352169.27047 -29092413.70944  22793522.5394                   22793523.6724
 -34771242.00848 -27081774.02046  20885590.3834                   20885587.3594
 11  7 29  0 59  0.0000000  0  9G10G17G09G12G04G28G05G27G02
 -21406074.41447 -18213670.20945  21516183.5554                   21516182.7734
 -69055501.66447 -53796545.66545  22181684.8444                   22181684.1684
 -25682511.41447 -19973514.60544  22375054.4924                   22375054.6994
  -9001068.52047  -6992267.42745  22776281.3444                   22776280.2234
 -54165012.09848 -42192906.45946  20291160.5704                   20291159.9924
 -82211129.29746 -64050057.36543  23473746.9844                   23473746.5234
   3708191.40246   2911245.96143  24011353.8984                   24011355.6174
 -37389431.26647 -29121449.06644  22786432.1724                   22786432.7624
 -34889243.62148 -27173723.30246  20863135.3054                   20863132.2344
 11  7 29  0 59 30.0000000  0  9G10G17G09G12G04G28G05G27G02
 -21549869.60247 -18325718.38845  21488819.6564                   21488819.2814
 -69094113.24247 -53826632.63345  22174337.7424                   22174336.7424
 -25716359.52047 -19999889.81044  22368613.4924                   22368613.7384
  -9171431.17647  -7125017.48845  22743862.1484                   22743861.3054
 -54197712.10248 -42218386.99246  20284937.9844                   20284937.2424
 -82199411.57046 -64040926.72743  23475975.0394                   23475976.5944
   3520977.16447   2765364.91543  23975728.1414                   23975729.7624
 -37426240.01647 -29150131.24644  22779427.8284                   22779428.4694
 -35006758.39848 -27265293.23446  20840773.1564                   20840770.1764
 11  7 29  1  0  0.0000000  0  9G10G17G09G12G04G28G05G27G02
 -21693097.34047 -18437324.37645  21461564.6094                   21461564.2384
 -69132500.12547 -53856544.49345  22167032.7114                   22167032.1054
 -25749599.37947 -20025791.02444  22362287.9844                   22362288.3014
  -9341486.39547  -7257528.00945  22711501.6094                   22711500.5784
 -54229905.50848 -42243472.76746  20278811.7424                   20278810.9574
 -82187308.94546 -64031496.23844  23478280.3984                   23478279.7974
   3333875.76646   2619571.80543  23940123.5314                   23940125.2154
 -37462596.34847 -29178460.92944  22772509.9924                   22772510.0434
 -35123784.83248 -27356482.64546  20818503.3984                   20818500.5744
 11  7 29  1  0 30.0000000  0  9G10G17G09G12G04G28G05G27G02
 -21835746.90647 -18548479.85845  21434418.8594                   21434418.6954
 -69170654.25447 -53886275.00545  22159772.2584                   22159771.5234
 -25782226.28547 -20051214.61144  22356079.5704                   22356079.9654
  -9511224.58247  -7389791.46245  22679202.0704                   22679200.7464
 -54261587.35948 -42268159.92846  20272783.1884                   20272782.1804
 -82174815.65646 -64021761.27843  23480656.7734                   23480657.7114
   3146897.39846   2473874.58144  23904542.5864                   23904544.4344
 -37498494.92247 -29206433.87444  22765678.8204                   22765678.6724
 -35240315.67648 -27447285.86846  20796328.4454                   20796325.4184
 11  7 29  1  1  0.0000000  0  9G10G17G09G12G04G28G05G27G02
 -21977824.26247 -18659189.44645  21407382.8054                   21407382.2704
 -69208583.70747 -53915830.45945  22152554.3364                   22152553.7464
 -25814251.82447 -20076169.62944  22349985.2504                   22349985.3524
  -9680651.81647  -7521812.63545  22646960.4924                   22646959.4734
 -54292768.50448 -42292456.93446  20266849.6254                   20266848.6454
 -82161942.01646 -64011729.98943  23483105.4924                   23483106.0554
   2960036.20746   2328268.66844  23868984.6484                   23868986.1254
 -37533946.84047 -29234058.78344  22758932.0704                   22758932.4454
 -35356359.74248 -27537709.79246  20774246.0084                   20774243.0944
 11  7 29  1  1 30.0000000  0  9G10G17G09G12G04G28G05G27G02
 -22119320.05147 -18769445.88545  21380457.0704                   21380456.2894
 -69246281.94147 -53945205.71145  22145380.6484                   22145380.2894
 -25845672.20347 -20100653.05944  22344006.0234                   22344006.2664
  -9849758.97747  -7653584.38745  22614780.3914                   22614779.4574
 -54323444.63748 -42316360.42646  20261012.3204                   20261010.9534
 -82148683.25846 -64001398.41543  23485629.4064                   23485629.1254
   2773301.47346   2182761.27244  23833449.6884                   23833451.6054
 -37568947.71947 -29261332.23944  22752271.6804                   22752272.1564
 -35471910.64848 -27627749.42246  20752257.2974                   20752253.9964
 11  7 29  1  2  0.0000000  0  9G10G17G09G12G04G28G05G27G02
 -20684807.21147 -17651643.63945  21653435.3444                   21653435.2544
 -67708327.10947 -52746799.38245  22438044.1954                   22438043.0044
 -24301069.02747 -18897066.19944  22637934.2274                   22637934.8244
  -8443118.09047  -6557500.52345  22882455.4304                   22882454.4184
 -52778197.21548 -41112271.53546  20555062.9534                   20555062.5164
 -80559621.30146 -62763168.56242  23788016.9694                   23788018.9574
   4162121.98046   3264959.25044  24097733.4534                   24097735.0204
 -36028078.97747 -28060655.36844  23045489.2034                   23045489.9024
 -34011544.66048 -26489801.86846  21030155.6094                   21030152.6254
 11  7 29  1  2 30.0000000  0  9G10G17G09G12G04G28G05G27G02
 -20825137.88747 -17760992.17845  21626731.7504                   21626731.0784
 -67745567.00047 -52775817.50245  22430957.8914                   22430956.6644
 -24331292.97747 -18920617.35744  22632185.0314                   22632183.3484
  -8611583.69147  -6688772.37245  22850397.5084                   22850396.0744
 -52807876.57048 -41135398.31546  20549415.0234                   20549414.1024
 -80545603.30546 -62752245.44142  23790686.1724                   23790684.3204
   3975642.32446   3119650.63444  24062247.0084                   24062248.1414
 -36062191.00847 -28087236.20844  23038998.3444                   23038998.5984
 -34126115.80148 -26579078.06446  21008353.6334                   21008350.4614
 11  7 29  1  3  0.0000000  0  9G10G17G09G12G04G28G05G27G02
 -20964880.52747 -17869882.50245  21600138.9844                   21600138.5434
 -67782575.64547 -52804655.43145  22423915.1254                   22423913.9264
 -24360921.92247 -18943704.88844  22626545.2034                   22626545.2734
  -8779723.00047  -6819789.96745  22818401.6954                   22818400.4734
 -52837059.50448 -41158138.26246  20543861.8674                   20543860.8134
 -80531206.92646 -62741027.51143  23793424.6334                   23793424.4654
   3789295.81646   2974445.73543  24026786.5474                   24026788.7464
 -36095860.89847 -28113472.52744  23032590.9774                   23032591.4924
 -34240196.21148 -26667971.84546  20986644.8834                   20986641.8364
 11  7 29  1  3 30.0000000  0  9G10G17G09G12G04G28G05G27G02
 -21104033.27747 -17978313.21545  21573659.3054                   21573658.7624
 -67819353.94547 -52833313.88345  22416916.4534                   22416915.5474
 -24389959.61347 -18966331.68444  22621019.5004                   22621019.5084
  -8947535.67647  -6950553.04645  22786467.6804                   22786466.5124
 -52865749.45348 -41180494.09046  20538402.1094                   20538401.3404
 -80516435.32847 -62729517.27643  23796236.9064                   23796236.5784
   3603084.10946   2829345.95644  23991351.7034                   23991352.7464
 -36129092.19947 -28139367.08944  23026267.1024                   23026268.0784
 -34353787.21548 -26756484.29846  20965029.3054                   20965026.0164
 11  7 29  1  4  0.0000000  0  9G10G17G09G12G04G28G05G27G02
 -21242593.96547 -18086282.55345  21547292.2894                   21547291.6994
 -67855902.13347 -52861793.01445  22409961.8594                   22409960.4024
 -24418409.64147 -18988500.56144  22615605.6644                   22615606.0124
  -9115019.34447  -7081059.76745  22754596.6484                   22754595.3094
 -52893949.46548 -41202468.14046  20533035.8754                   20533035.0204
 -80501290.51246 -62717716.10443  23799118.0474                   23799118.0314
   3417009.20746   2684352.63144  23955942.2344                   23955943.6684
 -36161887.81247 -28164922.17744  23020026.8364                   23020027.4184
 -34466889.69548 -26844616.08446  20943506.3054                   20943503.4804
 11  7 29  1  4 30.0000000  0  9G10G17G09G12G04G28G05G27G02
 -21380554.61347 -18193784.32645  21521039.4224                   21521038.5744
 -67892213.93747 -52890087.94845  22403051.9924                   22403050.8244
 -24446269.34047 -19010209.44644  22610303.6094                   22610304.2304
  -9282166.14547  -7211303.99745  22722789.2424                   22722788.0084
 -52921656.32448 -41224057.91046  20527763.6094                   20527762.7974
 -80485768.99646 -62705621.54943  23802071.4224                   23802072.4184
   3231079.21547   2539472.25444  23920561.4224                   23920562.1684
 -36194244.73847 -28190135.39444  23013869.0784                   23013869.7504
 -34579498.48848 -26932363.16746  20922077.6024                   20922074.8364
 11  7 29  1  5  0.0000000  0  9G10G17G09G12G04G28G05G27G02
 -21517918.42647 -18300821.04245  21494899.6334                   21494898.8874
 -67928295.04347 -52918203.11745  22396185.7974                   22396184.8054
 -24473547.35547 -19031465.05844  22605113.5394                   22605113.3364
  -9448979.17647  -7341288.14945  22691046.0704                   22691045.0354
 -52948878.28148 -41245269.83446  20522583.5554                   20522582.3984
 -80469878.03546 -62693239.07743  23805096.3204                   23805096.3404
   3045291.57846   2394702.79944  23885206.1174                   23885207.4264
 -36226170.99647 -28215013.05444  23007793.4144                   23007794.6294
 -34691619.71148 -27019730.33946  20900741.6954                   20900738.8874
 11  7 29  1  5 30.0000000  0  9G10G17G09G12G04G28G05G27G02
 -21654679.59447 -18407388.16545  21468874.9774                   21468873.8204
 -67964142.08247 -52946135.90745  22389364.4064                   22389363.1134
 -24500243.96547 -19052267.66344  22600032.9614                   22600033.6994
  -9615453.27747  -7471008.18345  22659367.2894                   22659365.9454
 -52975614.81648 -41266103.50246  20517495.6564                   20517494.4534
 -80453616.89545 -62680568.18442  23808188.1334                   23808190.3834
   2859651.75847   2250048.58344  23849880.9694                   23849881.6564
 -36257666.37147 -28239554.93744  23001800.3674                   23001801.2234
 -34803250.71547 -27106715.52046  20879498.5634                   20879496.1454
 11  7 29  1  6  0.0000000  0  9G10G17G09G12G04G28G05G27G02
 -21790838.58247 -18513486.04745  21442964.6954                   21442963.9454
 -67999756.91847 -52973887.76145  22382586.7194                   22382585.7974
 -24526364.82847 -19072621.63644  22595062.2194                   22595062.8754
  -9781588.10947  -7600463.89645  22627752.5784                   22627751.2734
 -53001870.91448 -41286562.82046  20512499.0474                   20512498.2384
 -80436990.25446 -62667612.47742  23811355.5084                   23811354.9924
   2674160.00846   2105509.71044  23814582.3284                   23814583.4774
 -36288736.10947 -28263765.17844  22995888.5554                   22995889.1094
 -34914394.80948 -27193321.29546  20858348.8834                   20858346.0164
 11  7 29  1  6 30.0000000  0  9G10G17G09G12G04G28G05G27G02
 -21926394.46147 -18619113.98145  21417168.9844                   21417168.6914
 -68035141.86747 -53001460.49645  22375853.6884                   22375852.4024
 -24551914.60947 -19092530.60644  22590200.4144                   22590200.8874
  -9947384.02347  -7729655.49945  22596202.6644                   22596201.6484
 -53027651.25848 -41306651.40246  20507593.3364                   20507592.4614
 -80420001.94145 -62654374.97143  23814586.5234                   23814588.5944
   2488816.82447   1961086.60744  23779312.5474                   23779313.5784
 -36319384.66447 -28287647.19744  22990056.3054                   22990056.9064
 -35025054.14147 -27279549.33746  20837290.8754                   20837288.3204
 11  7 29  1  7  0.0000000  0  9G10G17G09G12G04G28G05G27G02
 -22061339.08647 -18724265.60945  21391490.3834                   21391489.0004
 -68070290.70747 -53028849.21645  22369165.1414                   22369164.3324
 -24576891.17647 -19111992.88944  22585447.8754                   22585447.8014
 -10112833.07047  -7858576.82645  22564719.0314                   22564717.7664
 -53052952.61748 -41326366.76146  20502778.5164                   20502777.4774
 -80402648.20746 -62640852.57543  23817890.7114                   23817889.6094
   2303630.20746   1816785.51243  23744072.6024                   23744073.8444
 -36349609.08247 -28311198.71644  22984304.3984                   22984304.9534
 -35135223.71147 -27365395.74346  20816326.6334                   20816323.3244
 11  7 29  1  7 30.0000000  0  9G10G17G09G12G04G28G05G27G02
 -22195667.44547 -18828937.02845  21365928.3054                   21365927.4804
 -68105200.61347 -53056051.77145  22362522.1954                   22362521.1294
 -24601294.89147 -19131008.82544  22580804.1484                   22580804.4064
 -10277929.93447  -7987223.71845  22533302.3444                   22533301.1644
 -53077774.77048 -41345708.70646  20498054.8834                   20498054.3554
 -80384928.43747 -62627044.98443  23821261.9924                   23821262.4884
   2118605.75446   1672610.76744  23708863.0634                   23708864.8244
 -36379409.20347 -28334419.63644  22978633.6174                   22978634.2274
 -35244901.58248 -27450859.01146  20795455.7584                   20795452.6844
 11  7 29  1  8  0.0000000  0  9G10G17G09G12G04G28G05G27G02
 -22329378.19147 -18933127.20845  21340483.8054                   21340483.6334
 -68139871.71547 -53083068.26345  22355924.2894                   22355923.5824
 -24625129.49247 -19149581.26044  22576268.0234                   22576268.9804
 -10442673.08647  -8115594.98945  22501952.1174                   22501950.9344
 -53102120.73848 -41364679.61246  20493422.1724                   20493421.3364
 -80366845.25446 -62612954.34543  23824702.8594                   23824703.8364
   1933745.66446   1528564.10544  23673685.5164                   23673687.2424
 -36408788.16447 -28357312.37644  22973043.0164                   22973043.9774
 -35354088.56647 -27535939.76746  20774677.9534                   20774674.8244
 11  7 29  1  8 30.0000000  0  9G10G17G09G12G04G28G05G27G02
 -22462473.71947 -19036837.97245  21315156.6334                   21315155.9844
 -68174308.79747 -53109902.38145  22349370.8284                   22349370.1024
 -24648403.38747 -19167716.78844  22571839.3364                   22571839.5944
 -10607064.94347  -8243692.56145  22470669.6564                   22470668.4064
 -53125998.27048 -41383285.50146  20488878.2114                   20488877.5164
 -80348405.64146 -62598585.88643  23828211.9774                   23828212.3524
   1749047.54347   1384643.64944  23638538.6484                   23638540.0164
 -36437753.73047 -28379882.97744  22967531.2504                   22967531.4924
 -35462790.21148 -27620642.33446  20753992.6564                   20753989.6024
 11  7 29  1  9  0.0000000  0  9G10G17G09G12G04G28G05G27G02
 -22594948.34047 -19140064.93545  21289947.4774                   21289946.4614
 -68208508.21947 -53136551.29845  22342862.7034                   22342862.6254
 -24671116.60947 -19185415.44244  22567517.1414                   22567517.5594
 -10771099.99647  -8371512.03145  22439455.0084                   22439453.3914
 -53149406.74248 -41401525.87346  20484423.7894                   20484422.9964
 -80329608.13746 -62583938.52343  23831788.1414                   23831789.8244
   1564517.17246   1240853.90844  23603423.3984                   23603424.9494
 -36466305.54747 -28402131.21244  22962098.1254                   22962098.9844
 -35571003.99248 -27704964.74246  20733400.5394                   20733397.3794
 11  7 29  1  9 30.0000000  0  9G10G17G09G12G04G28G05G27G02
 -22726801.06647 -19242807.29845  21264856.6414                   21264855.7464
 -68242471.66847 -53163016.36045  22336400.5474                   22336399.5704
 -24693273.72347 -19202680.75544  22563300.9924                   22563301.2504
 -10934777.40247  -8499052.85845  22408307.9844                   22408306.5944
 -53172349.95348 -41419403.71146  20480057.9844                   20480056.9344
 -80310456.89146 -62569015.70643  23835433.8284                   23835435.0514
   1380155.39147   1097195.53244  23568340.5704                   23568342.0784
 -36494447.97347 -28424060.40344  22956742.4534                   22956742.9224
 -35678732.33647 -27788908.88146  20712900.0084                   20712897.3634
 11  7 29  1 10  0.0000000  0  9G10G17G09G12G04G28G05G27G02
 -22858033.63347 -19345066.40845  21239884.2114                   21239883.4734
 -68276202.37547 -53189300.07045  22329981.5234                   22329980.5984
 -24714881.85547 -19219518.32344  22559189.1254                   22559189.2664
 -11098099.03147  -8626316.44845  22377229.0474                   22377227.6134
 -53194834.73848 -41436924.34246  20475779.3754                   20475778.4454
 -80290958.07446 -62553821.93243  23839143.9694                   23839145.2814
   1195961.15647    953667.73244  23533289.1414                   23533290.8954
 -36522187.64847 -28445675.76944  22951464.1334                   22951464.8204
 -35785979.55548 -27872478.13046  20692491.5234                   20692488.6294
 11  7 29  1 10 30.0000000  0  9G10G17G09G12G04G28G05G27G02
 -22988642.80147 -19446839.75845  21215029.9144                   21215029.1414
 -68309699.50047 -53215401.74845  22323607.2194                   22323606.4414
 -24735943.70347 -19235930.18344  22555181.3674                   22555181.7384
 -11261061.69947  -8753300.34645  22346218.3984                   22346216.9804
 -53216862.63748 -41454088.94446  20471587.4384                   20471586.9654
 -80271112.25046 -62538357.72742  23842920.7194                   23842921.4024
   1011937.81647    810273.05544  23498270.9774                   23498272.1644
 -36549526.43047 -28466978.77244  22946261.5394                   22946262.7544
 -35892745.46147 -27955672.33446  20672174.8674                   20672171.7424
 11  7 29  1 11  0.0000000  0  9G10G17G09G12G04G28G05G27G02
 -23118634.19147 -19548131.73045  21190293.0394                   21190292.5944
 -68342970.32047 -53241327.09745  22317276.0164                   22317275.2384
 -24756469.80147 -19251924.59144  22551275.4384                   22551275.3054
 -11423670.58247  -8880008.54345  22315274.7734                   22315273.5704
 -53238443.96548 -41470905.57846  20467480.8444                   20467480.0004
 -80250929.37546 -62522630.79843  23846761.9694                   23846762.1484
    828080.51247    667007.81344  23463283.7734                   23463285.0944
 -36576474.53147 -28487977.30744  22941133.3834                   22941134.6024
 -35999038.18748 -28038497.80446  20651948.1414                   20651944.9184
 11  7 29  1 11 30.0000000  0  9G10G17G09G12G04G28G05G27G02
 -23247998.02047 -19648934.68045  21165676.2194                   21165675.4694
 -68376007.03547 -53267070.00945  22310989.1334                   22310988.3754
 -24776456.36747 -19267498.56744  22547472.2424                   22547472.2114
 -11585916.10947  -9006433.59645  22284400.6644                   22284399.3014
 -53259574.12548 -41487370.64746  20463459.9144                   20463459.2934
 -80230404.41846 -62506637.45743  23850667.1024                   23850667.9614
    644399.15647    523879.59444  23428329.9844                   23428331.3054
 -36603027.44147 -28508667.93044  22936081.2584                   22936081.6604
 -36104851.12948 -28120949.43546  20631812.4694                   20631809.6174
 11  7 29  1 12  0.0000000  0  9G10G17G09G12G04G28G05G27G02
 -21801307.07047 -18521643.00245  21440972.2424                   21440971.4064
 -66833387.99247 -52065029.23145  22604539.6564                   22604539.3714
 -23220485.22747 -18055053.54344  22843563.2344                   22843564.0004
 -10172369.98047  -7904969.04945  22553389.0704                   22553388.1134
 -51704833.86748 -40275884.74646  20759317.3364                   20759316.5904
 -78634119.30146 -61262778.85242  24154429.1254                   24154430.0744
   2036323.11747   1608495.79044  23693204.7344                   23693206.1564
 -35053766.49247 -27301451.67644  23230895.1254                   23230896.2974
 -34634760.71548 -26975424.42546  20911561.2894                   20911558.4454
 11  7 29  1 12 30.0000000  0  9G10G17G09G12G04G28G05G27G02
 -21929404.09847 -18621458.83045  21416596.5704                   21416595.3324
 -66865951.18747 -52090403.14845  22598342.9144                   22598342.4414
 -23239397.35247 -18069790.30444  22839964.3364                   22839965.3554
 -10333876.64547  -8030818.35145  22522655.6724                   22522654.4144
 -51725063.76248 -40291648.30746  20755467.5084                   20755466.9884
 -78612911.23446 -61246253.07842  24158466.3754                   24158465.5704
   1853006.45346   1465651.77444  23658320.1884                   23658321.6604
 -35079532.46147 -27321529.09144  23225992.3524                   23225993.5394
 -34739611.11748 -27057126.00646  20891608.9384                   20891606.0744
 11  7 29  1 13  0.0000000  0  9G10G17G09G12G04G28G05G27G02
 -22056865.87947 -18720779.66245  21392341.0784                   21392340.4304
 -66898278.34447 -52115593.15445  22592191.8054                   22592191.3954
 -23257778.55547 -18084113.35844  22836466.4144                   22836467.4534
 -10495011.59447  -8156378.01945  22491992.8054                   22491991.6134
 -51744848.75448 -40307065.19246  20751702.5634                   20751701.9614
 -78591366.07045 -61229464.73543  24162564.9774                   24162566.6094
   1669875.27046   1322952.25044  23623471.5394                   23623472.8794
 -35104910.19547 -27341304.02644  23221163.3754                   23221164.5084
 -34843982.67648 -27138454.47346  20871747.9454                   20871744.7344
 11  7 29  1 13 30.0000000  0  9G10G17G09G12G04G28G05G27G02
 -22183693.20747 -18819606.12945  21368206.8444                   21368205.7074
 -66930372.48447 -52140601.57845  22586084.8054                   22586083.4844
 -23275635.46546 -18098027.85444  22833068.7114                   22833069.1684
 -10655775.94947  -8281648.91745  22461400.3834                   22461399.0704
 -51764194.74247 -40322140.00246  20748021.4774                   20748020.5554
 -78569489.03555 -61212417.89152  24166728.6724                   24166729.9654
   1486928.69547   1180396.65944  23588658.3134                   23588659.1684
 -35129905.91447 -27360781.22844  23216406.9384                   23216407.4694
 -34947879.11748 -27219412.71946  20851976.9534                   20851973.9574
 11  7 29  1 14  0.0000000  0  9G10G17G09G12G04G28G05G27G02
 -22309878.50047 -18917932.29245  21344194.6644                   21344193.8134
 -66962227.87147 -52165423.96645  22580022.7034                   22580021.6724
 -23292966.00847 -18111532.20544  22829770.5634                   22829770.6724
 -10816161.95347  -8406624.98845  22430879.4384                   22430878.5984
 -51783098.77047 -40336870.41946  20744423.7194                   20744423.0084
 -78547277.33646 -61195110.09743  24170956.4774                   24170956.6254
   1304174.57447   1037990.94144  23553880.9384                   23553881.7424
 -35154516.80147 -27379958.61544  23211723.4064                   23211724.6764
 -35051295.86348 -27299997.16446  20832297.5784                   20832294.3444
 11  7 29  1 14 30.0000000  0  9G10G17G09G12G04G28G05G27G02
 -22435423.56647 -19015759.57245  21320304.0784                   21320303.1134
 -66993848.11747 -52190063.12245  22574005.6414                   22574004.4884
 -23309777.26647 -18124631.92844  22826571.8134                   22826571.8484
 -10976171.06647  -8531307.36745  22400430.8284                   22400429.4614
 -51801567.34847 -40351261.51946  20740909.3754                   20740908.7194
 -78524736.79346 -61177546.20043  24175245.0084                   24175246.5904
   1121611.91046    895734.44144  23519139.9844                   23519141.1684
 -35178749.53947 -27398841.32544  23207111.9304                   23207113.6954
 -35154237.26648 -27380211.21146  20812708.0554                   20812704.9734
 11  7 29  1 15  0.0000000  0  9G10G17G09G12G04G28G05G27G02
 -22560331.26247 -19113090.20945  21296534.8204                   21296533.5514
 -67025237.85247 -52214522.64345  22568032.2034                   22568031.2814
 -23326077.68747 -18137333.59644  22823470.0704                   22823470.1994
 -11135805.64847  -8655697.93645  22370053.7734                   22370051.8834
 -51819607.84047 -40365319.05446  20737476.3054                   20737475.6294
 -78501874.27746 -61159731.45443  24179596.5864                   24179597.2154
    939238.88746    753625.69444  23484436.1564                   23484436.6054
 -35202611.88347 -27417435.42944  23202572.0864                   23202572.5234
 -35256709.19148 -27460059.44146  20793208.3834                   20793205.2074
 11  7 29  1 15 30.0000000  0  9G10G17G09G12G04G28G05G27G02
 -22684595.84447 -19209919.71845  21272888.0004                   21272887.4064
 -67056393.05547 -52238799.44045  22562103.2504                   22562102.4384
 -23341866.71946 -18149636.77444  22820465.7424                   22820465.4224
 -11295060.01647  -8779792.22145  22339748.1254                   22339747.0394
 -51837219.17647 -40379042.18046  20734125.0554                   20734124.1844
 -78478688.19547 -61141664.37843  24184009.1884                   24184009.1644
    757061.43046    611669.34044  23449768.7734                   23449769.3594
 -35226102.96947 -27435740.24944  23198100.9614                   23198102.4494
 -35358708.69548 -27539539.55646  20773798.5084                   20773795.4184
 11  7 29  1 16  0.0000000  0  9G10G17G09G12G04G28G05G27G02
 -22808215.37947 -19306246.59145  21249363.7194                   21249363.2934
 -67087313.91847 -52262893.61745  22556219.2344                   22556218.4734
 -23357148.35947 -18161544.55544  22817557.0394                   22817557.4654
 -11453932.08247  -8903588.57445  22309516.0864                   22309514.4694
 -51854404.48048 -40392433.30946  20730855.0474                   20730854.2974
 -78455181.54746 -61123347.56843  24188481.1884                   24188482.3524
    575081.81346    469867.16444  23415138.7034                   23415139.0554
 -35249226.05547 -27453758.29244  23193701.0554                   23193702.1844
 -35460236.61748 -27618652.18846  20754478.3444                   20754475.6644
 11  7 29  1 16 30.0000000  0  9G10G17G09G12G04G28G05G27G02
 -22931184.13747 -19402066.36545  21225963.7344                   21225962.8754
 -67117996.36347 -52286802.02145  22550381.1804                   22550379.8594
 -23371922.12947 -18173056.61844  22814745.8594                   22814746.7114
 -11612415.66047  -9027082.24245  22279357.4224                   22279356.3754
 -51871162.59847 -40405491.59746  20727665.9144                   20727665.4574
 -78431352.32846 -61104779.52543  24193016.3984                   24193016.6604
    393306.61346    328224.26744  23380547.1954                   23380549.1254
 -35271980.37147 -27471488.98744  23189371.2194                   23189372.0904
 -35561290.28948 -27697395.28346  20735248.5784                   20735245.7424
 11  7 29  1 17  0.0000000  0  9G10G17G09G12G04G28G05G27G02
 -23053503.92647 -19497380.44845  21202686.9694                   21202686.2894
 -67148443.74247 -52310527.27245  22544586.6174                   22544585.9264
 -23386195.33646 -18184178.63044  22812030.0864                   22812029.8324
 -11770512.22347  -9150274.32645  22249272.5084                   22249271.5164
 -51887499.63747 -40418221.75346  20724557.2114                   20724556.4774
 -78407206.76646 -61085964.90243  24197611.3524                   24197612.1684
    211734.87146    186739.90544  23345995.9614                   23345996.8324
 -35294372.25047 -27488937.29444  23185110.1024                   23185111.2464
 -35661874.66848 -27775772.69346  20716107.8674                   20716105.1024
 11  7 29  1 17 30.0000000  0  9G10G17G09G12G04G28G05G27G02
 -23175175.55947 -19592189.48445  21179533.5234                   21179532.6804
 -67178658.55947 -52334071.29045  22538837.9614                   22538836.1094
 -23399974.31647 -18194915.53544  22809408.0084                   22809408.4264
 -11928222.32447  -9273165.29745  22219261.4224                   22219260.1724
 -51903421.25448 -40430628.20546  20721527.1804                   20721526.5004
 -78382749.91045 -61066907.66042  24202264.1414                   24202265.5664
     30366.19947     45413.78244  23311482.7504                   23311483.4024
 -35316407.49247 -27506107.66444  23180917.1414                   23180917.9024
 -35761992.53948 -27853786.58546  20697056.3054                   20697053.1484
 11  7 29  1 18  0.0000000  0  9G10G17G09G12G04G28G05G27G02
 -23296196.21947 -19686491.25745  21156504.0394                   21156503.3954
 -67208639.88347 -52357433.36545  22533131.7194                   22533131.4614
 -23413261.76246 -18205269.43444  22806879.3054                   22806880.0864
 -12085542.68747  -9395752.58045  22189324.0704                   22189322.8014
 -51918928.91847 -40442712.10046  20718576.3914                   20718575.6604
 -78357983.14115                  24206978.023
   -150795.89147    -95751.34944  23277008.6804                   23277009.2384
 -35338088.13747 -27523001.72744  23176791.1254                   23176792.4454
 -35861644.15248 -27931437.16146  20678093.2114                   20678090.2734
 11  7 29  1 18 30.0000000  0  9G10G17G09G12G04G28G05G27G02
 -23416565.73447 -19780285.64345  21133598.4454                   21133597.7894
 -67238389.20347 -52380614.66345  22527471.0234                   22527469.8984
 -23426062.59847 -18215244.18844  22804443.6484                   22804443.8634
 -12242472.80547  -9518035.75745  22159461.4304                   22159460.1914
 -51934027.23448 -40454477.01946  20715702.9064                   20715702.4494
 -78332910.40646 -61028071.90253  24211749.2274                   24211750.5234
   -331750.08647   -236754.53944  23242574.2504                   23242574.7894
 -35359418.55947 -27539622.89944  23172731.9064                   23172733.1374
 -35960831.98048 -28008726.34346  20659218.2974                   20659215.5704
 11  7 29  1 19  0.0000000  0  9G10G17G09G12G04G28G05G27G02
 -23536278.46147 -19873568.23945  21110817.9384                   21110817.1414
 -67267902.72747 -52403612.20845  22521854.2344                   22521854.0474
 -23438376.80547 -18224839.68544  22802100.2194                   22802100.8874
 -12399007.02347  -9640010.46445  22129673.9384                   22129672.7154
 -51948715.13347 -40465922.14246  20712908.0394                   20712907.4844
 -78307530.23046 -61008295.35043  24216578.6094                   24216580.6024
   -512490.56646   -377591.15044  23208180.6564                   23208180.5664
 -35380398.33647 -27555970.82544  23168740.2344                   23168741.2194
 -36059553.61348 -28085652.27146  20640431.8834                   20640428.7274
 11  7 29  1 19 30.0000000  0  9G10G17G09G12G04G28G05G27G02
 -23655334.13747 -19966338.86445  21088162.3914                   21088161.6054
 -67297181.45747 -52426426.81545  22516283.6414                   22516282.3834
 -23450209.32847 -18234059.89844  22799848.4064                   22799849.3634
 -12555143.84447  -9761675.48945  22099962.0864                   22099960.7304
 -51962996.56248 -40477050.53646  20710190.3754                   20710189.7274
 -78281846.03946 -60988281.82842  24221466.9694                   24221467.8834
   -693015.67247   -518259.95944  23173827.4844                   23173828.1254
 -35401031.50847 -27572048.70144  23164813.4064                   23164815.0124
 -36157810.96548 -28162216.40946  20621734.3524                   20621730.9264
 11  7 29  1 20  0.0000000  0  9G10G17G09G12G04G28G05G27G02
 -23773726.03147 -20058592.25545  21065633.1254                   21065632.4304
 -67326220.34847 -52449054.53044  22510757.0234                   22510756.3094
 -23461559.05147 -18242903.89944  22797688.8754                   22797689.4024
 -12710876.77747  -9883025.80345  22070327.1174                   22070325.4184
 -51976869.36748 -40487860.51846  20707550.8914                   20707549.8674
 -78255855.87946 -60968029.73143  24226412.0784                   24226413.2734
   -873318.23447   -658755.37244  23139516.7344                   23139517.8284
 -35421316.35547 -27587855.11744  23160953.2974                   23160954.9304
 -36255600.44548 -28238415.97146  20603125.7274                   20603122.5084
 11  7 29  1 20 30.0000000  0  8G10G17G09G12G04G05G27G02
 -23891456.57447 -20150330.31145  21043229.3984                   21043229.0474
 -67355023.82447 -52471498.79745  22505275.7274                   22505274.6724
 -23472433.98047 -18251377.91144  22795619.1804                   22795620.0664
 -12866208.00047 -10004063.10445  22040768.5554                   22040767.0514
 -51990340.80948 -40498357.74946  20704987.1254                   20704986.6524
  -1053400.01647   -799078.68944  23105247.6954                   23105248.5474
 -35441260.51246 -27603396.08644  23157158.4384                   23157159.6454
 -36352927.51248 -28314255.21646  20584604.8444                   20584601.5164
 11  7 29  1 21  0.0000000  0  8G10G17G09G12G04G05G27G02
 -24008516.93447 -20241546.14645  21020953.5004                   21020952.7704
 -67383584.43047 -52493753.80145  22499841.1414                   22499839.7854
 -23482830.40647 -18259479.05944  22793641.3364                   22793641.6094
 -13021127.85947 -10124779.85845  22011288.1724                   22011287.1454
 -52003406.50848 -40508538.80846  20702500.9614                   20702500.2544
  -1233251.48447   -939222.55544  23071023.3524                   23071024.1764
 -35460859.84046 -27618668.33244  23153429.1724                   23153429.8634
 -36449785.77748 -28389729.15446  20566173.3524                   20566170.0164
 11  7 29  1 21 30.0000000  0  8G10G17G09G12G04G05G27G02
 -24124898.63747 -20332233.13845  20998807.1724                   20998806.3404
 -67411894.97747 -52515814.00445  22494453.9304                   22494452.9064
 -23492744.96947 -18267204.77544  22791754.7664                   22791755.2154
 -13175627.23847 -10245168.96645  21981888.2034                   21981886.4454
 -52016061.86748 -40518400.15046  20700092.7114                   20700091.5784
  -1412862.79747  -1079179.33944  23036844.3444                   23036844.7544
 -35480110.14846 -27633668.64144  23149765.9534                   23149766.8204
 -36546169.04748 -28464832.98546  20547832.0314                   20547828.8594
 11  7 29  1 22  0.0000000  0  8G10G17G09G12G04G05G27G02
 -22665164.90647 -19194778.26545  21276585.3364                   21276584.4264
 -65864522.77747 -51310069.43945  22788909.5084                   22788907.6724
 -21926749.59047 -17046948.68244  23089753.7274                   23089754.1884
 -11754266.91847  -9137615.45445  22252364.2974                   22252362.4104
 -50452877.85948 -39300334.69546  20997556.8134                   20997555.8594
    -16793.95347      8666.62344  23302507.6724                   23302507.7194
 -33923582.45746 -26420789.95744  23445962.9614                   23445964.2664
 -35066643.93448 -27311956.23046  20829376.4064                   20829373.3484
 11  7 29  1 22 30.0000000  0  8G10G17G09G12G04G05G27G02
 -22780162.77747 -19284386.97045  21254701.7974                   21254701.1334
 -65892311.12147 -51331722.69645  22783621.0864                   22783620.2034
 -21935689.96147 -17053915.27444  23088053.0944                   23088053.0474
 -11907896.96147  -9257327.15945  22223129.4844                   22223127.7384
 -50464699.34048 -39309546.26446  20995306.9224                   20995306.2384
   -195895.72747   -130893.08044  23268425.9224                   23268426.1524
 -33942122.13346 -26435236.52844  23442434.5704                   23442436.3834
 -35162059.03548 -27386305.65846  20811219.7734                   20811216.4384
 11  7 29  1 23  0.0000000  0  8G10G17G09G12G04G05G27G02
 -22894473.29348 -19373460.08145  21232949.1884                   21232948.0004
 -65919845.18047 -51353177.80545  22778381.2424                   22778380.8714
 -21944156.01647 -17060512.23644  23086441.2584                   23086441.5434
 -12061096.27347  -9376703.21945  22193976.4924                   22193974.7384
 -50476114.95748 -39318441.56146  20993134.7424                   20993133.6024
   -374745.86747   -270256.72444  23234391.1254                   23234391.8834
 -33960318.24246 -26449415.38943  23438972.1174                   23438973.6254
 -35256998.60247 -27460284.50846  20793152.9304                   20793149.6294
 11  7 29  1 23 30.0000000  0  8G10G17G09G12G04G05G27G02
 -23008097.63347 -19461998.49545  21211327.0234                   21211325.9534
 -65947127.76247 -51374436.97145  22773189.7194                   22773189.1054
 -21952154.10247 -17066744.58344  23084919.2274                   23084919.7624
 -12213865.62947  -9495744.23345  22164905.2034                   22164903.7894
 -50487130.49648 -39327025.12046  20991038.6804                   20991038.0664
   -553344.93747   -409424.69744  23200405.3524                   23200404.9884
 -33978176.72746 -26463331.17143  23435574.1954                   23435575.8284
 -35351466.80148 -27533896.07046  20775176.3364                   20775173.1174
 11  7 29  1 24  0.0000000  0  8G10G17G09G12G04G05G27G02
 -23121033.24647 -19550000.25445  21189836.1954                   21189835.0744
 -65974157.70747 -51395499.29445  22768046.1724                   22768045.3834
 -21959686.64547 -17072614.13944  23083485.9064                   23083486.8284
 -12366201.71947  -9614447.64345  22135916.7814                   22135915.3484
 -50497747.59048 -39335298.19646  20989018.3674                   20989017.2704
   -731689.17247   -548394.10644  23166466.5864                   23166467.5394
 -33995699.63746 -26476985.44643  23432239.7974                   23432241.1174
 -35445463.44948 -27607140.19446  20757289.2734                   20757285.9344
 11  7 29  1 24 30.0000000  0  8G10G17G09G12G04G05G27G02
 -23233282.28147 -19637467.00245  21168475.7424                   21168475.1134
 -66000938.39847 -51416367.39145  22762949.9454                   22762949.3054
 -21966761.31247 -17078126.91944  23082140.2504                   23082140.8244
 -12518105.75447  -9732814.40745  22107010.0314                   22107008.7934
 -50507972.39548 -39343265.58146  20987072.7034                   20987071.8164
   -909779.69547   -687165.81744  23132577.8444                   23132577.9774
 -34012893.86746 -26490383.61444  23428968.2664                   23428969.3984
 -35538993.48448 -27680020.69546  20739490.6804                   20739488.0984
 11  7 29  1 25  0.0000000  0  8G10G17G09G12G04G05G27G02
 -23344839.87947 -19724394.98645  21147247.2584                   21147245.9414
 -66027466.41847 -51437038.59644  22757902.0944                   22757901.3204
 -21973378.30147 -17083283.07044  23080880.6724                   23080880.8324
 -12669572.45747  -9850840.37345  22078187.2814                   22078185.6414
 -50517804.52348 -39350926.99346  20985201.6884                   20985200.6884
  -1087610.30947   -825735.01345  23098737.6804                   23098737.9344
 -34029759.03146 -26503525.37344  23425759.0084                   23425760.3204
 -35632054.43748 -27752535.70046  20721782.2734                   20721779.1454
 11  7 29  1 25 30.0000000  0  8G10G17G09G12G04G05G27G02
 -23455711.96547 -19810788.80845  21126149.4534                   21126148.0124
 -66053749.25047 -51457518.75544  22752899.6254                   22752899.6414
 -21979548.93047 -17088091.40144  23079706.2814                   23079707.0824
 -12820607.22347  -9968529.78045  22049445.9304                   22049444.6954
 -50527253.99648 -39358290.24146  20983403.4614                   20983402.5864
  -1265186.22747   -964105.74744  23064945.7504                   23064946.2664
 -34046305.60946 -26516418.88444  23422610.0784                   23422611.3874
 -35724654.98448 -27824691.96346  20704161.0394                   20704157.6334
 11  7 29  1 26  0.0000000  0  8G10G17G09G12G04G05G27G02
 -23565894.73447 -19896645.48245  21105181.8914                   21105180.7304
 -66079784.09447 -51477805.67145  22747946.4064                   22747945.8364
 -21985274.41047 -17092552.87044  23078617.4144                   23078617.6884
 -12971205.13747 -10085878.77145  22020788.4534                   22020786.8714
 -50536320.98848 -39365355.43646  20981678.0394                   20981677.3014
  -1442502.35247  -1102274.06745  23031203.8134                   23031203.9064
 -34062534.13346 -26529064.55244  23419521.7974                   23419522.7854
 -35816793.52348 -27896488.20446  20686627.6414                   20686624.0044
 11  7 29  1 26 30.0000000  0  8G10G17G09G12G04G05G27G02
 -23675386.44147 -19981963.68345  21084346.1484                   21084344.7074
 -66105570.77047 -51497899.21245  22743039.2974                   22743038.4384
 -21990558.32047 -17096670.25544  23077611.8054                   23077612.3794
 -13121364.28547 -10202885.88645  21992214.2194                   21992212.3794
 -50545008.25048 -39372124.75046  20980024.9534                   20980024.1804
  -1619556.11747  -1240237.93844  22997511.3674                   22997511.5514
 -34078447.94146 -26541465.00043  23416494.0704                   23416494.8834
 -35908471.47347 -27967925.55546  20669181.9534                   20669178.6484
 11  7 29  1 27  0.0000000  0  8G10G17G09G12G04G05G27G02
 -23784187.53948 -20066743.73745  21063642.1414                   21063641.0474
 -66131111.00847 -51517800.71944  22738179.4774                   22738177.8794
 -21995406.20347 -17100447.88244  23076689.1484                   23076689.6914
 -13271084.19947 -10319550.73745  21963723.6174                   21963721.5434
 -50553320.33648 -39378601.69045  20978443.0164                   20978442.1884
  -1796346.71147  -1377996.76345  22963868.8524                   22963869.3794
 -34094052.02746 -26553624.08644  23413523.8594                   23413525.4844
 -35999691.61347 -28039006.16846  20651823.2974                   20651820.0864
 11  7 29  1 27 30.0000000  0  8G10G17G09G12G04G05G27G02
 -23892300.62147 -20150987.67045  21043068.8134                   21043067.8524
 -66156408.44947 -51537513.03745  22733365.5864                   22733364.6644
 -21999825.66047 -17103891.68244  23075848.8134                   23075848.9614
 -13420366.55147 -10435874.62745  21935315.7344                   21935314.0784
 -50561263.59048 -39384791.25446  20976931.9144                   20976930.8204
  -1972875.09847  -1515551.25744  22930276.6414                   22930277.0784
 -34109353.05946 -26565547.06844  23410612.6954                   23410614.0434
 -36090459.22348 -28109734.17046  20634550.9924                   20634547.6214
 11  7 29  1 28  0.0000000  0  8G10G17G09G12G04G05G27G02
 -23999721.96547 -20234692.59546  21022627.5784                   21022626.3834
 -66181460.43047 -51557034.09145  22728598.3054                   22728597.1374
 -22003818.27047 -17107002.86544  23075088.5394                   23075088.9924
 -13569206.59847 -10551853.86445  21906992.3204                   21906990.8674
 -50568838.59448 -39390693.85946  20975490.0704                   20975489.3054
  -2149136.61747  -1652897.77345  22896735.4844                   22896735.9024
 -34124351.81646 -26577234.46943  23407758.1954                   23407760.2624
 -36180772.55147 -28180108.17846  20617365.0554                   20617361.5234
 11  7 29  1 28 30.0000000  0  8G10G17G09G12G04G05G27G02
 -24106448.34848 -20317855.97645  21002318.1414                   21002316.9614
 -66206264.90247 -51576362.27044  22723878.2274                   22723876.7974
 -22007385.59847 -17109782.66344  23074409.4384                   23074410.5164
 -13717600.35547 -10667485.35445  21878753.4224                   21878752.3714
 -50576046.14848 -39396310.14646  20974118.5314                   20974117.7854
  -2325126.71947  -1790032.82845  22863245.1644                   22863246.0704
 -34139049.43746 -26588687.20444  23404961.1724                   23404963.4264
 -36270630.88748 -28250127.65446  20600265.2034                   20600261.8484
 11  7 29  1 29  0.0000000  0  8G10G17G09G12G04G05G27G02
 -24212488.50847 -20400484.64946  20982139.2664                   20982137.8324
 -66230831.85947 -51595505.36844  22719202.7194                   22719201.7034
 -22010541.34847 -17112241.71144  23073809.3914                   23073809.6134
 -13865555.65647 -10782775.18445  21850599.0554                   21850597.2234
 -50582898.50048 -39401649.63846  20972814.7274                   20972813.7974
  -2500852.55947  -1926961.95045  22829805.2894                   22829805.8164
 -34153459.01246 -26599915.49144  23402219.5634                   23402221.0204
 -36360045.60548 -28319801.45046  20583250.2424                   20583246.8524
 11  7 29  1 29 30.0000000  0  8G10G17G09G12G04G05G27G02
 -24317835.33647 -20482573.05245  20962092.1414                   20962091.0944
 -66255155.44947 -51614458.82144  22714574.3834                   22714573.3524
 -22013283.99647 -17114378.94644  23073287.7894                   23073287.8794
 -14013064.80947 -10897717.37145  21822528.6024                   21822527.5664
 -50589393.00448 -39406710.28446  20971578.9064                   20971577.7664
  -2676306.24247  -2063679.00245  22796417.6804                   22796418.0274
 -34167578.13746 -26610917.52244  23399532.4844                   23399534.9694
 -36449012.06247 -28389125.95746  20566320.2584                   20566317.0084
 11  7 29  1 30  0.0000000  0  8G10G17G09G12G04G05G27G02
 -24422489.46947 -20564121.69345  20942177.0634                   20942176.0004
 -66279237.66847 -51633224.20844  22709991.4924                   22709990.8674
 -22015619.22347 -17116198.67344  23072843.1804                   23072844.1024
 -14160127.66847 -11012311.80045  21794543.5474                   21794542.1684
 -50595534.27048 -39411495.69246  20970409.9614                   20970409.2304
  -2851487.03547  -2200183.42545  22763082.0944                   22763082.3014
 -34181411.87946 -26621697.18644  23396900.4844                   23396902.3594
 -36537533.73848 -28458103.87846  20549475.2424                   20549471.9384
 11  7 29  1 30 30.0000000  0  8G10G17G09G12G04G05G27G02
 -24526449.01647 -20645129.11845  20922394.1724                   20922393.0664
 -66303077.73047 -51651800.90444  22705454.7974                   22705454.0944
 -22017550.00847 -17117703.24244  23072476.1024                   23072476.5434
 -14306741.31247 -11126556.19945  21766643.8674                   21766642.5474
 -50601324.47348 -39416007.54145  20969307.9224                   20969307.4774
  -3026391.91847  -2336472.83645  22729798.8054                   22729798.8984
 -34194962.78146 -26632256.35944  23394322.3834                   23394324.0594
 -36625610.99648 -28526735.50946  20532714.9534                   20532711.5164
 11  7 29  1 31  0.0000000  0  8G10G17G09G12G04G05G27G02
 -24629714.09047 -20725595.35745  20902743.4534                   20902742.3554
 -66326676.40247 -51670189.50045  22700964.3594                   22700963.6214
 -22019081.19947 -17118896.46544  23072184.6884                   23072185.1644
 -14452905.06647 -11240450.02145  21738830.1024                   21738828.6374
 -50606767.41048 -39420248.78245  20968272.4534                   20968271.7464
  -3201019.36347  -2472546.04845  22696568.0234                   22696568.4964
 -34208235.01246 -26642598.40344  23391796.5164                   23391798.4454
 -36713246.13348 -28595022.61446  20516038.5554                   20516035.0904
 11  7 29  1 31 30.0000000  0  8G10G17G09G12G04G05G27G02
 -24732282.46947 -20805518.74545  20883225.3364                   20883224.2734
 -66350032.50847 -51688389.09044  22696519.8524                   22696519.3444
 -22020215.67647 -17119780.53844  23071969.1094                   23071969.1414
 -14598615.41047 -11353990.54645  21711101.7894                   21711100.7894
 -50611864.48848 -39424220.53645  20967302.7894                   20967301.9884
  -3375365.27347  -2608399.90645  22663391.1254                   22663391.5354
 -34221230.59846 -26652724.90143  23389323.5084                   23389325.3524
 -36800439.25047 -28662965.29446  20499445.7974                   20499442.7934
 11  7 29  1 32  0.0000000  0  8G10G17G09G12G04G05G27G02
 -24834150.01247 -20884896.01045  20863840.5004                   20863839.6134
 -66373143.19947 -51706397.42045  22692122.3594                   22692121.6644
 -22020954.41847 -17120356.21944  23071828.1804                   23071829.2154
 -14743867.34047 -11467173.84945  21683461.8594                   21683460.3634
 -50616615.67248 -39427922.75645  20966398.6414                   20966397.3914
  -3549424.80147  -2744030.59645  22630268.9694                   22630268.8054
 -34233949.92646 -26662636.14243  23386903.8134                   23386904.2464
 -36887188.75848 -28730562.30846  20482937.7734                   20482934.7734
 11  7 29  1 32 30.0000000  0  8G10G17G09G12G04G05G27G02
 -24935318.15247 -20963728.29945  20844589.0004                   20844587.9144
 -66396011.07447 -51724216.56444  22687770.2814                   22687769.5664
 -22021303.67647 -17120628.42944  23071762.0784                   23071762.3754
 -14888661.48847 -11580000.45945  21655908.1254                   21655907.0944
 -50621026.08248 -39431359.44845  20965559.4454                   20965558.6644
  -3723197.79347  -2879438.03745  22597200.5634                   22597200.4924
 -34246398.79746 -26672336.62543  23384534.4454                   23384536.2194
 -36973498.49648 -28797816.62246  20466513.9924                   20466510.6414
 11  7 29  1 33  0.0000000  0  8G10G17G09G12G04G05G27G02
 -23460362.95347 -19814412.54145  21125263.4694                   21125262.5784
 -64843215.28147 -50514245.83545  22983257.7814                   22983257.1294
 -20445847.69947 -15893000.43044  23371560.7274                   23371561.7074
 -13457570.89147 -10464864.91145  21928235.6174                   21928234.2274
 -49049678.75848 -38206932.97345  21264576.8834                   21264575.9064
  -2321256.09447  -1787015.81045  22863981.4774                   22863981.5474
 -32683160.31646 -25454228.80543  23682009.3444                   23682009.8594
 -35483947.19148 -27637127.29846  20749966.2504                   20749962.8014
 11  7 29  1 33 30.0000000  0  8G10G17G09G12G04G05G27G02
 -23560130.65648 -19892153.58046  21106278.4454                   21106277.5394
 -64865598.16447 -50531687.05745  22978998.8444                   22978997.7464
 -20445431.37147 -15892676.12744  23371640.0314                   23371640.8324
 -13601444.26647 -10576973.99945  21900857.2894                   21900856.4804
 -49053417.40648 -38209846.21145  21263865.0864                   21263864.3554
  -2494449.51247  -1921971.63045  22831023.6954                   22831023.6804
 -32695079.32846 -25463516.44043  23679740.6024                   23679742.2624
 -35569382.55147 -27703700.28746  20733707.9924                   20733704.8204
 11  7 29  1 34  0.0000000  0  8G10G17G09G12G04G05G27G02
 -23659202.87147 -19969352.67145  21087425.6644                   21087424.4964
 -64887744.50047 -50548943.92844  22974784.5634                   22974782.7854
 -20444643.88747 -15892062.57044  23371790.0944                   23371790.7584
 -13744860.40647 -10688726.80345  21873566.3054                   21873565.1174
 -49056830.19948 -38212505.52545  21263215.8834                   21263215.0004
  -2667355.44547  -2056703.41445  22798120.4774                   22798120.6804
 -32706744.21146 -25472605.97743  23677520.6954                   23677522.5514
 -35654388.87948 -27769938.97446  20717532.1024                   20717528.8204
 11  7 29  1 34 30.0000000  0  8G10G17G09G12G04G05G27G02
 -23757572.12948 -20046004.03246  21068706.3364                   21068705.5634
 -64909647.91447 -50566011.52144  22970616.1174                   22970615.1054
 -20443482.76247 -15891157.84544  23372010.8524                   23372012.4414
 -13887810.67247 -10800116.60645  21846363.5004                   21846362.1804
 -49059913.56648 -38214908.16945  21262629.1094                   21262628.6294
  -2839965.35547  -2191204.53945  22765273.7584                   22765273.8674
 -32718151.95746 -25481495.14343  23675350.2974                   23675351.6884
 -35738961.07048 -27835839.39046  20701438.5164                   20701435.1954
 11  7 29  1 35  0.0000000  0  8G10G17G09G12G04G05G27G02
 -23855238.76647 -20122107.87245  21050121.4454                   21050120.2304
 -64931310.09447 -50582891.15044  22966493.7974                   22966493.0164
 -20441952.96547 -15889965.88544  23372302.0784                   23372302.8244
 -14030294.59047 -10911143.00045  21819249.7894                   21819248.4844
 -49062671.42648 -38217057.14145  21262104.3444                   21262103.3594
  -3012277.60247  -2325473.72745  22732484.2344                   22732484.0164
 -32729306.78946 -25490187.27443  23673227.8284                   23673229.6214
 -35823101.65648 -27901403.46846  20685427.2584                   20685423.7504
 11  7 29  1 35 30.0000000  0  8G10G17G09G12G04G05G27G02
 -23952202.77347 -20197664.22545  21031669.3594                   21031668.6764
 -64952731.14547 -50599582.89544  22962417.1414                   22962416.1684
 -20440059.52747 -15888490.55944  23372662.9614                   23372663.5864
 -14172310.99647 -11021805.11946  21792224.9534                   21792223.6844
 -49065107.48448 -38218955.40545  21261640.4614                   21261639.8634
  -3184290.68447  -2459509.80745  22699750.6954                   22699750.9024
 -32740213.04346 -25498685.71743  23671152.6024                   23671153.5984
 -35906812.76248 -27966632.89846  20669497.2584                   20669493.7814
 11  7 29  1 36  0.0000000  0  9G10G17G09G12G04G25G05G27G02
 -24048464.57847 -20272673.37845  21013351.5084                   21013350.4924
 -64973911.93047 -50616087.39644  22958387.1954                   22958385.5944
 -20437807.52047 -15886735.78444  23373091.2584                   23373091.4224
 -14313858.84847 -11132102.09145  21765289.3984                   21765288.1564
 -49067225.47747 -38220605.78145  21261237.3524                   21261237.0044
  15494077.27356  12093558.06153  24692814.7114                   24692816.0474
  -3356003.32447  -2593311.75245  22667074.8284                   22667075.0314
 -32750875.10246 -25506993.87643  23669123.7664                   23669124.6644
 -35990097.05948 -28031529.72546  20653648.8524                   20653645.7814
 11  7 29  1 36 30.0000000  0  9G10G17G09G12G04G25G05G27G02
 -24144030.63348 -20347140.40745  20995165.7734                   20995164.8794
 -64994860.43046 -50632410.91044  22954400.3134                   22954399.2304
 -20435208.11747 -15884710.31744  23373586.5314                   23373586.6054
 -14454943.36747 -11242038.06145  21738441.9454                   21738440.5434
 -49069035.08248 -38222015.88345  21260893.4774                   21260892.6914
  15318446.85246  11956703.22342  24659393.1884                   24659394.9694
  -3527419.96947  -2726883.09045  22634455.1884                   22634455.3484
 -32761303.12546 -25515119.70043  23667138.8834                   23667140.5984
 -36072962.99648 -28096100.58746  20637880.0704                   20637876.6994
 11  7 29  1 37  0.0000000  0  9G10G17G09G12G04G25G05G27G02
 -24238912.71948 -20421074.48246  20977110.6254                   20977109.3284
 -65015589.39546 -50648563.36744  22950456.0234                   22950455.1374
 -20432278.12547 -15882427.28544  23374143.6804                   23374144.7424
 -14595575.34047 -11351621.38746  21711680.3204                   21711678.9414
 -49070552.35248 -38223198.17945  21260604.1254                   21260603.6414
  15143003.51646  11819994.17843  24626008.6024                   24626009.2624
  -3698551.51647  -2860232.24345  22601889.9224                   22601890.0744
 -32771513.73046 -25523076.03243  23665195.9924                   23665197.6454
 -36155425.03547 -28160356.69646  20622187.9844                   20622184.7304
 11  7 29  1 37 30.0000000  0  9G10G17G09G12G04G25G05G27G02
 -24333110.56648 -20494475.37345  20959185.1094                   20959184.2194
 -65036098.67246 -50664544.66344  22946553.3054                   22946552.7504
 -20429021.70747 -15879889.84944  23374763.4614                   23374764.5314
 -14735753.34447 -11460850.97445  21685005.5314                   21685004.2814
 -49071780.11748 -38224154.89145  21260370.8834                   21260370.0704
  14967749.05946  11683432.25943  24592658.2664                   24592659.6844
  -3869395.43747  -2993357.30845  22569379.4224                   22569379.4734
 -32781510.27046 -25530865.62443  23663293.6174                   23663294.5164
 -36237484.68047 -28224299.26446  20606572.7424                   20606568.9734
 11  7 29  1 38  0.0000000  0  9G10G17G09G12G04G25G05G27G02
 -24426617.81248 -20567338.15446  20941391.1174                   20941390.2734
 -65056382.49646 -50680350.27744  22942693.7194                   22942692.3834
 -20425436.77047 -15877096.46444  23375445.2584                   23375446.5004
 -14875469.55147 -11569720.70445  21658418.7664                   21658416.9654
 -49072715.19148 -38224883.52645  21260193.1884                   21260192.2774
  14792691.33246  11547023.74743  24559345.5554                   24559347.8364
  -4039943.46147  -3126251.76545  22536925.2114                   22536925.1024
 -32791290.16046 -25538486.34743  23661432.8914                   23661433.7234
 -36319137.77347 -28287925.03546  20591034.8284                   20591031.0204
 11  7 29  1 38 30.0000000  0  9G10G17G09G12G04G25G05G27G02
 -24519433.34447 -20639661.91545  20923729.2734                   20923728.1374
 -65076441.07046 -50695980.34845  22938876.5394                   22938875.5434
 -20421527.25047 -15874050.14343  23376189.0084                   23376190.3324
 -15014721.85247 -11678228.96046  21631919.7584                   21631918.0084
 -49073360.32847 -38225386.24045  21260070.2734                   21260069.7274
  14617832.25446  11410769.90143  24526070.6564                   24526072.9064
  -4210193.04347  -3258913.68945  22504528.2114                   22504527.6374
 -32800856.68746 -25545940.87043  23659612.9064                   23659614.0824
 -36400385.38347 -28351234.85346  20575573.4534                   20575570.1024
 11  7 29  1 39  0.0000000  0  9G10G17G09G12G04G25G05G27G02
 -24611548.75047 -20711440.12345  20906200.0784                   20906199.1484
 -65096266.18447 -50711428.52944  22935104.1334                   22935103.3984
 -20417288.94946 -15870747.61544  23376995.8594                   23376996.4774
 -15153500.14147 -11786367.85946  21605510.9454                   21605509.4694
 -49073710.00447 -38225658.72845  21260004.0864                   21260002.9734
  14443181.93046  11274678.80543  24492836.6564                   24492838.2734
  -4380133.57047  -3391334.80445  22472189.1804                   22472188.8914
 -32810204.91846 -25553225.24343  23657833.9224                   23657835.0594
 -36481220.90647 -28414223.55646  20560191.0784                   20560187.7504
 11  7 29  1 39 30.0000000  0  9G10G17G09G12G04G25G05G27G02
 -24702968.94147 -20782676.61346  20888803.2344                   20888802.3674
 -65115863.56646 -50726699.26744  22931374.3364                   22931373.9574
 -20412731.84847 -15867196.68144  23377863.3134                   23377864.2704
 -15291808.41047 -11894140.50645  21579191.8364                   21579190.0784
 -49073772.87547 -38225707.73845  21259991.4454                   21259990.7464
  14268736.36146  11138747.24643  24459640.1484                   24459642.4414
  -4549768.71947  -3523517.96245  22439908.5784                   22439908.3554
 -32819344.23046 -25560346.86543  23656094.7274                   23656096.3244
 -36561651.59848 -28476896.80646  20544885.5234                   20544882.5514
 11  7 29  1 40  0.0000000  0  9G10G17G09G12G04G25G05G27G02
 -24793688.27748 -20853366.97646  20871540.1484                   20871538.9064
 -65135227.80147 -50741788.32545  22927689.8984                   22927689.6214
 -20407854.55947 -15863396.24244  23378791.6484                   23378792.0234
 -15429639.18447 -12001541.08446  21552963.0784                   21552961.9184
 -49073546.34848 -38225531.24245  21260034.6414                   21260034.5514
  14094502.86746  11002980.89543  24426484.7814                   24426486.5984
  -4719090.79347  -3655457.16045  22407687.4924                   22407687.4774
 -32828272.57046 -25567304.03643  23654395.3204                   23654396.8634
 -36641674.05147 -28539251.95446  20529657.5944                   20529654.4454
 11  7 29  1 40 30.0000000  0  9G10G17G09G12G04G25G05G27G02
 -24883709.32448 -20923513.23246  20854410.0704                   20854408.3834
 -65154362.29747 -50756698.34945  22924048.7734                   22924048.3674
 -20402664.13347 -15859351.82244  23379779.0864                   23379779.9734
 -15566994.25447 -12108570.98345  21526825.6334                   21526824.0744
 -49073036.37947 -38225133.89745  21260132.0554                   21260131.4964
  13920480.42646  10867379.06743  24393369.2424                   24393371.5664
  -4888100.15247  -3787152.70145  22375526.1484                   22375525.6524
 -32836996.05946 -25574101.66143  23652735.2734                   23652737.4924
 -36721292.48048 -28601292.27746  20514507.2194                   20514503.5394
 11  7 29  1 41  0.0000000  0  9G10G17G09G12G04G25G05G27G02
 -24973029.48048 -20993113.33046  20837412.3444                   20837411.6764
 -65173264.90247 -50771427.67044  22920451.7114                   22920451.3874
 -20397162.61346 -15855064.98744  23380826.0234                   23380827.0164
 -15703869.49647 -12215226.99046  21500779.2664                   21500777.3134
 -49072243.30948 -38224515.90645  21260282.7814                   21260282.2504
  13746672.91846  10731944.75743  24360294.7344                   24360296.7664
  -5056792.45347  -3918601.15645  22343425.1484                   22343424.5864
 -32845516.11746 -25580740.70743  23651114.6564                   23651116.5904
 -36800506.24648 -28663017.27646  20499432.9534                   20499429.6054
 11  7 29  1 41 30.0000000  0  9G10G17G09G12G04G25G05G27G02
 -25061643.41447 -21062163.13646  20820549.7504                   20820548.6914
 -65191931.30146 -50785972.98644  22916899.4224                   22916899.1644
 -20391349.04346 -15850534.99743  23381932.0314                   23381933.1294
 -15840258.06647 -12321503.78046  21474825.2344                   21474823.6484
 -49071165.41447 -38223676.01245  21260487.9454                   21260487.4884
  13573087.09046  10596683.15343  24327262.5394                   24327264.1294
  -5225160.57847  -4049797.04345  22311385.7584                   22311385.1214
 -32853831.41046 -25587220.23843  23649532.1564                   23649533.4964
 -36879312.29748 -28724424.58846  20484436.7584                   20484433.3834
 11  7 29  1 42  0.0000000  0  9G10G17G09G12G04G25G05G27G02
 -25149552.46147 -21130663.65745  20803821.1954                   20803820.1414
 -65210362.94146 -50800335.32144  22913391.8284                   22913390.7114
 -20385229.20346 -15845766.29044  23383096.9454                   23383098.2154
 -15976159.92647 -12427401.31145  21448963.7894                   21448962.5434
 -49069806.81647 -38222617.35645  21260746.6094                   21260746.0824
  13399723.19946  10461594.52543  24294272.7274                   24294274.5744
  -5393203.68447  -4180739.63945  22279407.5394                   22279407.8484
 -32861946.95346 -25593544.08643  23647988.1804                   23647989.4144
 -36957713.78948 -28785516.63646  20469517.6724                   20469514.4414
 11  7 29  1 42 30.0000000  0  9G10G17G09G12G04G25G05G27G02
 -25236756.52747 -21198614.84045  20787227.0944                   20787225.9104
 -65228560.40646 -50814515.21044  22909929.3284                   22909928.2154
 -20378807.73846 -15840762.59644  23384318.3984                   23384320.1214
 -16111573.84847 -12532918.62446  21423195.1954                   21423193.8954
 -49068171.10947 -38221342.80545  21261057.8674                   21261057.0394
  13226582.48846  10326679.74643  24261324.9304                   24261326.6954
  -5560920.34447  -4311427.87445  22247492.4064                   22247492.0634
 -32869866.73446 -25599715.40443  23646480.7274                   23646482.3014
 -37035712.96948 -28846295.21946  20454674.6804                   20454671.3444
 11  7 29  1 43  0.0000000  0  9G10G17G09G12G04G25G05G27G02
 -25323256.30148 -21266017.24746  20770766.2504                   20770765.4344
 -65246524.20746 -50828513.00144  22906510.8444                   22906509.8094
 -20372089.34046 -15835527.57444  23385597.7894                   23385598.5984
 -16246498.29747 -12638054.54846  21397520.0314                   21397518.4224
 -49066261.47747 -38219854.77945  21261421.2344                   21261420.4844
  13053666.46946  10191940.06343  24228419.8134                   24228421.6684
  -5728308.38347  -4441860.03545  22215639.2504                   22215638.7814
 -32877594.67646 -25605737.25043  23645010.0474                   23645012.2774
 -37113311.91448 -28906761.91946  20439908.4924                   20439904.9144
 11  7 29  1 43 30.0000000  0  9G10G17G09G12G04G25G05G27G02
 -23833628.22747 -20105268.07646  21054233.1024                   21054231.8324
 -63688833.85547 -49614728.32844  23202929.5554                   23202928.4614
 -18789658.00847 -14602464.23744  23686724.1094                   23686724.8364
 -14805507.05547 -11515204.20446  21671731.2344                   21671730.1994
 -47488660.66447 -36990555.45445  21561628.6174                   21561628.4534
  14456402.97746  11284981.57843  24495351.7114                   24495353.6334
  -4319939.96147  -3344430.02345  22483643.0314                   22483642.4304
 -31309713.78946 -24384011.92243  23943368.0314                   23943369.6844
 -35615089.22748 -27739315.67246  20725010.6174                   20725007.4344
 11  7 29  1 44  0.0000000  0  9G10G17G09G12G04G25G05G27G02
 -23918720.76648 -20171573.92046  21038040.5864                   21038039.4494
 -63706333.69146 -49628364.57744  23199599.5394                   23199597.3164
 -18782360.33647 -14596777.80943  23688113.4384                   23688113.8484
 -14939450.50847 -11619575.71546  21646242.7114                   21646241.5394
 -47486214.20747 -36988649.13845  21562094.2194                   21562093.6884
  14283939.45746  11150594.54243  24462532.7814                   24462534.8444
  -4486666.68747  -3474346.87545  22451916.4144                   22451915.4654
 -31317070.77346 -24389744.67343  23941968.3754                   23941970.0864
 -35691894.88348 -27799164.22346  20710394.6484                   20710391.4574
 11  7 29  1 44 30.0000000  0  9G10G17G09G12G04G25G05G27G02
 -24003105.50448 -20237328.22845  21021982.6094                   21021981.9144
 -63723597.60947 -49641816.96744  23196314.6484                   23196313.4064
 -18774775.03946 -14590867.21244  23689556.4144                   23689557.8714
 -15072896.78947 -11723559.80746  21620848.8914                   21620847.3794
 -47483499.24647 -36986533.60745  21562611.2504                   21562610.0354
  14111708.93046  11016388.98243  24429758.0944                   24429760.0634
  -4653055.06647  -3604000.09745  22420252.8054                   22420252.6134
 -31324243.25446 -24395333.70143  23940603.9614                   23940605.4494
 -35768302.48848 -27858702.60846  20695854.6804                   20695851.5274
 11  7 29  1 45  0.0000000  0  9G10G17G09G12G04G25G05G27G02
 -24086789.20747 -20302536.30445  21006058.5084                   21006057.0864
 -63740633.02047 -49655091.31744  23193073.0784                   23193071.4654
 -18766913.22746 -14584741.20443  23691052.5314                   23691053.9494
 -15205851.08647 -11827160.55045  21595548.4144                   21595547.0554
 -47480525.93447 -36984216.74545  21563176.4924                   21563175.8714
  13939706.32846  10882361.10343  24397027.1094                   24397029.2114
  -4819110.12947  -3733393.59345  22388653.4454                   22388653.3364
 -31331241.89546 -24400787.25243  23939271.0234                   23939272.5784
 -35844320.42648 -27917937.36346  20681389.0864                   20681385.7624
 11  7 29  1 45 30.0000000  0  9G10G17G09G12G04G25G05G27G02
 -24169764.39147 -20367192.26046  20990268.5864                   20990267.5514
 -63757432.69947 -49668181.99944  23189876.2504                   23189875.2894
 -18758771.78946 -14578397.28344  23692601.4774                   23692602.8834
 -15338304.39547 -11930370.91246  21570343.3834                   21570341.8404
 -47477289.40247 -36981694.79045  21563792.6804                   21563791.9304
  13767940.93046  10748517.99843  24364341.2344                   24364342.9494
  -4984822.14147  -3862519.76145  22357120.2274                   22357119.5864
 -31338062.74246 -24406102.24743  23937972.8834                   23937975.7584
 -35919943.12147 -27976864.12846  20666998.6254                   20666995.0124
 11  7 29  1 46  0.0000000  0  9G10G17G09G12G04G25G05G27G02
 -24252031.27348 -20431296.30246  20974613.7734                   20974612.5354
 -63773997.05546 -49681089.29944  23186723.4064                   23186722.9574
 -18750355.23846 -14571839.00743  23694203.5004                   23694204.2974
 -15470255.07047 -12033189.60246  21545234.2894                   21545232.5784
 -47473793.08248 -36978970.39545  21564457.6564                   21564457.4574
  13596414.11746  10614860.75343  24331700.8524                   24331702.5354
  -5150189.30147  -3991377.19345  22325651.2734                   22325651.0704
 -31344709.53946 -24411281.63343  23936708.4614                   23936710.4804
 -35995172.81248 -28035484.65046  20652682.6484                   20652679.3674
 11  7 29  1 46 30.0000000  0  9G10G17G09G12G04G25G05G27G02
 -24333590.42247 -20494848.87745  20959093.4454                   20959092.3484
 -63790327.16046 -49693814.05544  23183616.2274                   23183615.3014
 -18741668.29746 -14565069.97343  23695856.7114                   23695857.5664
 -15601702.83647 -12135616.43746  21520220.5394                   21520218.9184
 -47470040.19147 -36976046.07745  21565172.2344                   21565171.3164
  13425127.23446  10481390.54243  24299105.6884                   24299107.3984
  -5315209.98047  -4119964.68145  22294249.0394                   22294248.5234
 -31351186.41846 -24416328.66043  23935476.1724                   23935478.4384
 -36070011.90248 -28093800.82246  20638441.5084                   20638438.2154
 11  7 29  1 47  0.0000000  0  9G10G17G09G12G04G25G05G27G02
 -24414444.81247 -20557852.27845  20943707.1724                   20943706.0944
 -63806426.23047 -49706358.78344  23180552.1644                   23180552.5394
 -18732718.22746 -14558095.99643  23697559.1954                   23697560.8834
 -15732648.78147 -12237652.22746  21495302.3364                   21495300.5944
 -47466036.45347 -36972926.29745  21565934.2194                   21565933.3794
  13254078.96946  10348106.17943  24266557.0084                   24266558.5044
  -5479885.23447  -4248282.99245  22262912.3984                   22262912.2304
 -31357499.97746 -24421248.32643  23934275.4694                   23934277.1724
 -36144465.10248 -28151816.27746  20624273.6804                   20624270.3164
 11  7 29  1 47 30.0000000  0  9G10G17G09G12G04G25G05G27G02
 -24494594.96948 -20620306.91846  20928455.2734                   20928454.2464
 -63822294.62146 -49718723.79944  23177532.1804                   23177532.6524
 -18723509.45346 -14550920.34643  23699312.3914                   23699313.1214
 -15863091.71548 -12339296.06246  21470479.5704                   21470478.4104
 -47461785.27047 -36969613.69345  21566743.1024                   21566742.3134
  13083270.94146  10215009.06243  24234052.5164                   24234054.4304
  -5644212.86347  -4376330.41545  22231642.3054                   22231641.3444
 -31363653.96146 -24426043.72643  23933104.3914                   23933106.0394
 -36218534.38348 -28209532.58146  20610178.4614                   20610175.0594
 11  7 29  1 48  0.0000000  0  9G10G17G09G12G04G25G05G27G02
 -24574039.90647 -20682212.05546  20913337.4844                   20913336.3014
 -63837931.84046 -49730908.67744  23174557.9614                   23174557.0864
 -18714045.17246 -14543545.66144  23701112.9694                   23701114.2504
 -15993028.82847 -12440545.75246  21445753.5234                   21445752.1254
 -47457288.62148 -36966109.83545  21567598.8984                   21567598.0354
  12912705.87146  10082101.24843  24201595.7664                   24201597.3984
  -5808189.83647  -4504104.61945  22200438.0474                   22200437.1994
 -31369650.99646 -24430716.83143  23931962.7504                   23931964.6884
 -36292220.70348 -28266950.48846  20596156.5394                   20596152.9694
 11  7 29  1 48 30.0000000  0  9G10G17G09G12G04G25G05G27G02
 -24652775.64148 -20743564.55646  20898354.5634                   20898353.0474
 -63853333.39546 -49742909.90944  23171626.0554                   23171625.4964
 -18704324.87146 -14535971.42843  23702963.2034                   23702964.0864
 -16122454.31647 -12541396.78646  21421124.7344                   21421123.3954
 -47452544.57047 -36962413.19545  21568501.7424                   21568500.6844
  12742390.26246   9949387.84543  24169185.4534                   24169187.2274
  -5971809.39847  -4631600.31445  22169302.2584                   22169301.3754
 -31375489.99246 -24435266.74343  23930850.6254                   23930854.0434
 -36365521.07848 -28324067.64346  20582207.9924                   20582204.5314
 11  7 29  1 49  0.0000000  0  9G10G17G09G12G04G25G05G27G02
 -24730802.45347 -20804364.65845  20883506.7274                   20883505.4104
 -63868500.05146 -49754728.10444  23168740.0394                   23168738.8634
 -18694352.91446 -14528201.13143  23704860.6094                   23704861.7854
 -16251366.83647 -12641848.09446  21396593.7734                   21396592.0234
 -47447556.10547 -36958526.09845  21569450.9304                   21569450.1414
  12572325.49246   9816869.85943  24136823.0234                   24136825.2074
  -6135069.69947  -4758816.07245  22138234.2114                   22138234.2464
 -31381174.94146 -24439696.72943  23929770.0784                   23929772.3444
 -36438437.69548 -28380885.77346  20568332.4224                   20568328.8524
 11  7 29  1 49 30.0000000  0  9G10G17G09G12G04G25G05G27G02
 -24808122.04748 -20864613.69146  20868793.1884                   20868791.9774
 -63883433.62946 -49766364.66044  23165898.5004                   23165897.3554
 -18684135.52046 -14520239.59144  23706805.4384                   23706806.1414
 -16379766.60947 -12741899.86046  21372159.7034                   21372158.2584
 -47442327.85247 -36954452.15445  21570445.7584                   21570444.9304
  12402511.82846   9684547.47943  24104508.6174                   24104510.3324
  -6297970.58247  -4885751.76045  22107235.5314                   22107235.0394
 -31386710.89146 -24444010.51943  23928716.7194                   23928718.4774
 -36510973.99647 -28437407.54646  20554529.1094                   20554525.5864
 11  7 29  1 50  0.0000000  0  9G10G17G09G12G04G25G05G27G02
 -24884731.75448 -20924309.56845  20854214.6804                   20854213.4964
 -63898131.56247 -49777817.57244  23163101.7584                   23163100.0554
 -18673673.46546 -14512087.39343  23708795.2734                   23708796.7704
 -16507648.73447 -12841548.28246  21347825.0084                   21347823.1294
 -47436859.29747 -36950190.96045  21571486.2814                   21571485.5944
  12232954.25846   9552424.75843  24072243.1174                   24072244.5004
  -6460506.47347  -5012403.04445  22076306.5864                   22076305.6524
 -31392098.23046 -24448208.51543  23927690.7274                   23927693.4344
 -36583128.78148 -28493632.04546  20540798.3364                   20540794.9534
 11  7 29  1 50 30.0000000  0  9G10G17G09G12G04G25G05G27G02
 -24960628.91047 -20983450.19245  20839771.7114                   20839770.7384
 -63912591.65647 -49789085.18044  23160350.4304                   23160348.3244
 -18662968.63746 -14503746.00443  23710832.5164                   23710834.2664
 -16635009.60247 -12940790.50946  21323588.5314                   21323587.3094
 -47431151.07447 -36945743.02645  21572572.7194                   21572572.4844
  12063657.06646   9420504.89143  24040026.3674                   24040028.0084
  -6622672.59047  -5138766.17545  22045446.5474                   22045446.1844
 -31397338.28946 -24452291.77043  23926694.4064                   23926697.0784
 -36654901.32447 -28549558.67246  20527140.7664                   20527137.1644
 11  7 29  1 51  0.0000000  0  9G10G17G09G12G04G25G05G27G02
 -25035818.29747 -21042039.30146  20825463.8834                   20825462.7974
 -63926818.31246 -49800170.85844  23157642.7034                   23157640.7464
 -18652029.63746 -14495222.16143  23712914.1414                   23712915.6954
 -16761851.83247 -13039628.61046  21299451.5164                   21299449.9144
 -47425210.14147 -36941113.75145  21573702.8984                   21573702.3444
  11894617.72746   9288786.00843  24007859.4304                   24007861.4494
  -6784471.29347  -5264843.02645  22014657.5944                   22014656.9454
 -31402438.60246 -24456266.15043  23925724.3134                   23925726.1414
 -36726297.81647 -28605192.29746  20513554.4774                   20513551.0234
 11  7 29  1 51 30.0000000  0  9G10G17G09G12G04G25G05G27G02
 -25110300.52047 -21100077.38346  20811290.5474                   20811289.2934
 -63940811.86347 -49811074.92144  23154980.6724                   23154979.0634
 -18640860.45746 -14486518.98343  23715039.9774                   23715041.3484
 -16888173.81647 -13138061.33146  21275413.0394                   21275411.7234
 -47419039.28147 -36936305.31345  21574877.5634                   21574876.7704
  11725838.13746   9157269.40944  23975741.7664                   23975743.6914
  -6945900.50447  -5390631.95845  21983938.7734                   21983938.0514
 -31407402.74645 -24460134.35543  23924778.9614                   23924781.0824
 -36797320.06647 -28660534.29346  20500039.2894                   20500035.5084
 11  7 29  1 52  0.0000000  0  9G10G17G09G12G04G25G05G27G02
 -25184072.23848 -21157561.84145  20797252.3284                   20797250.9494
 -63954569.19547 -49821794.91644  23152362.5084                   23152361.2234
 -18629461.51646 -14477636.77244  23717209.8444                   23717210.5044
 -17013970.65647 -13236084.83346  21251474.9534                   21251473.5354
 -47412637.82847 -36931317.18245  21576095.5164                   21576095.2154
  11557323.58246   9025959.44243  23943674.6644                   23943676.6684
  -7106954.64147  -5516128.63645  21953291.0784                   21953290.1174
 -31412230.67645 -24463896.50843  23923860.0314                   23923862.9964
 -36867966.36347 -28715583.34046  20486595.6484                   20486592.0824
 11  7 29  1 52 30.0000000  0  9G10G17G09G12G04G25G05G27G02
 -25257136.68747 -21214495.16645  20783348.1884                   20783347.0514
 -63968093.37947 -49832333.24044  23149788.5944                   23149787.5824
 -18617840.13746 -14468581.21344  23719421.1644                   23719422.6134
 -17139243.62148 -13333700.12846  21227635.8674                   21227634.3674
 -47406011.32047 -36926153.69045  21577356.6174                   21577355.8914
  11389073.10246   8894855.21243  23911657.6644                   23911659.3324
  -7267634.37547  -5641333.58145  21922714.2974                   21922713.9104
 -31416928.89846 -24467557.58443  23922966.6174                   23922968.6454
 -36938241.42247 -28770343.11846  20473222.5084                   20473219.0784
 11  7 29  1 53  0.0000000  0  9G10G17G09G12G04G25G05G27G02
 -25329489.87947 -21270874.25645  20769580.1094                   20769578.7074
 -63981380.23846 -49842686.67544  23147259.7734                   23147259.4734
 -18605996.29746 -14459352.29844  23721674.8914                   23721676.4184
 -17263987.23448 -13430902.93346  21203898.4924                   21203896.4304
 -47399158.03147 -36920813.47845  21578660.9534                   21578660.4024
  11221093.01646   8763961.72143  23879691.8284                   23879693.7854
  -7427933.42647  -5766241.87545  21892210.6644                   21892210.0274
 -31421496.62946 -24471116.91843  23922097.5004                   23922099.4804
 -37008142.50848 -28824811.48346  20459921.2894                   20459917.6254
 11  7 29  1 53 30.0000000  0  9G10G17G09G12G04G25G05G27G02
 -25401133.35947 -21326700.33746  20755946.5704                   20755945.6564
 -63994431.08646 -49852856.16944  23144776.7974                   23144776.1804
 -18593934.97746 -14449953.96444  23723969.6804                   23723970.9574
 -17388200.76647 -13527692.69446  21180261.3134                   21180259.6254
 -47392081.70747 -36915299.49145  21580007.1954                   21580006.7034
  11053384.27346   8633279.63943  23847778.0394                   23847779.8834
  -7587850.10247  -5890852.23845  21861779.7974                   21861778.7894
 -31425938.16046 -24474577.90043  23921252.8594                   23921254.7504
 -37077672.55148 -28878990.72346  20446689.8444                   20446686.3794
 11  7 29  1 54  0.0000000  0  9G10G17G09G12G04G25G05G27G02
 -25472068.25847 -21381974.26945  20742448.2814                   20742446.8874
 -64007247.23846 -49862842.79444  23142337.3364                   23142338.0704
 -18581660.92646 -14440389.82443  23726305.4384                   23726307.0394
 -17511883.30147 -13624068.68346  21156725.6174                   21156723.6804
 -47384785.99647 -36909614.52545  21581395.8594                   21581394.6764
  10885947.87946   8502809.78243  23815915.7274                   23815917.3204
  -7747383.62947  -6015164.02046  21831421.0784                   21831420.6024
 -31430257.80146 -24477943.93343  23920430.2974                   23920432.9224
 -37146834.21548 -28932882.91846  20433528.8754                   20433525.0554
 11  7 29  1 54 30.0000000  0  9G10G17G09G12G04G25G05G27G02
 -25542288.39147 -21436691.25445  20729085.4774                   20729084.3794
 -64019822.39846 -49872641.67344  23139944.2894                   23139944.1094
 -18569171.87546 -14430658.16443  23728682.2424                   23728684.1414
 -17635027.49647 -13720025.18146  21133291.7034                   21133290.2304
 -47377267.02747 -36903755.60145  21582826.5784                   21582825.8284
  10718792.12147   8372558.56643  23784107.2584                   23784108.7584
  -7906525.05547  -6139170.28745  21801137.8054                   21801137.2344
 -31434452.44546 -24481212.62243  23919631.7504                   23919634.4614
 -37215622.80548 -28986484.40846  20420438.9774                   20420435.4414
 11  7 29  1 55  0.0000000  0  9G10G17G09G12G04G25G05G27G02
 -24036375.87547 -20263252.90445  21015651.4774                   21015650.0084
 -62456740.07846 -48654655.46444  23437389.1094                   23437388.8874
 -16981056.10546 -13193165.48243  24030890.9844                   24030892.2584
 -16182211.45347 -12587960.72246  21409753.5084                   21409751.3134
 -45794111.52047 -35670127.95145  21884091.1484                   21884090.1024
  12127340.71547   9470128.97144  24052145.1564                   24052147.1094
  -6489851.02047  -5035268.39845  22070721.8204                   22070720.7704
 -29863109.35246 -23256789.48943  24218648.8914                   24218651.0744
 -35708621.69547 -27812197.82246  20707211.3444                   20707207.9344
 11  7 29  1 55 30.0000000  0  9G10G17G09G12G04G25G05G27G02
 -24105171.03547 -20316859.53146  21002560.2814                   21002558.6294
 -62468836.54347 -48664081.28244  23435087.8524                   23435087.0234
 -16968152.16446 -13183110.52543  24033346.0084                   24033347.8014
 -16304276.65247 -12683076.44646  21386524.6884                   21386523.4384
 -45786156.66047 -35663929.38845  21885605.2114                   21885603.8794
  11960749.41047   9340317.57744  24020444.0234                   24020445.5474
  -6648205.00447  -5158661.05245  22040587.6254                   22040587.0354
 -29867067.39146 -23259873.73343  24217896.4924                   24217898.1524
 -35776672.36747 -27865224.30346  20694261.8204                   20694258.6454
 11  7 29  1 56  0.0000000  0  9G10G17G09G12G04G25G05G27G02
 -24173253.17247 -20369910.53545  20989604.5944                   20989603.3834
 -62480693.07047 -48673320.14144  23432830.8444                   23432830.6524
 -16955045.35546 -13172897.49043  24035841.5004                   24035842.3054
 -16425799.00448 -12777769.16646  21363399.8594                   21363398.4534
 -45777986.66447 -35657563.17445  21887159.5164                   21887158.8794
  11794444.55047   9210729.45243  23988796.7584                   23988798.3134
  -6806160.53147  -5281743.23945  22010529.5864                   22010529.3014
 -29870910.99246 -23262868.87743  24217164.4924                   24217167.2934
 -35844355.15647 -27917964.14146  20681382.6954                   20681378.5984
 11  7 29  1 56 30.0000000  0  9G10G17G09G12G04G25G05G27G02
 -24240623.91847 -20422407.20446  20976784.2274                   20976783.0124
 -62492310.75047 -48682372.91744  23430620.6724                   23430620.3404
 -16941740.87946 -13162530.46643  24038372.8754                   24038373.6094
 -16546778.30947 -12872038.74046  21340378.3284                   21340376.5944
 -45769605.27747 -35651032.21645  21888754.3984                   21888753.8714
  11628426.99647   9081365.10244  23957204.9774                   23957206.3954
  -6963717.07047  -5404514.50945  21980547.8594                   21980547.1564
 -29874644.55946 -23265778.23543  24216454.1094                   24216456.6054
 -35911673.22348 -27970419.76746  20668572.3914                   20668568.5784
 11  7 29  1 57  0.0000000  0  9G10G17G09G12G04G25G05G27G02
 -24307280.80147 -20474347.62645  20964099.7814                   20964098.5784
 -62503687.03947 -48691237.59444  23428455.4844                   23428455.1684
 -16928240.19946 -13152010.49744  24040941.1954                   24040943.6174
 -16667209.71548 -12965881.37046  21317461.1094                   21317459.2114
 -45761012.10547 -35644336.25545  21890389.4454                   21890388.9264
  11462701.51247   8952228.41943  23925668.5314                   23925669.9844
  -7120869.24647  -5526970.71745  21950642.9384                   21950642.1684
 -29878268.90246 -23268602.48743  24215764.5784                   24215767.2304
 -35978625.55947 -28022590.42146  20655831.4924                   20655827.8554
 11  7 29  1 57 30.0000000  0  9G10G17G09G12G04G25G05G27G02
 -24373227.93747 -20525735.00346  20951550.3204                   20951549.2854
 -62514825.64847 -48699917.01244  23426336.5864                   23426334.9844
 -16914550.63346 -13141343.32943  24043546.8984                   24043547.9804
 -16787095.51248 -13059298.85946  21294647.7664                   21294646.1724
 -45752213.19947 -35637479.97945  21892063.8204                   21892063.5984
  11297266.80947   8823318.31143  23894186.7424                   23894188.3794
  -7277618.31247  -5649112.79145  21920814.3984                   21920813.5664
 -29881790.55946 -23271346.75643  24215094.9384                   24215097.1054
 -36045217.19948 -28074479.99746  20643159.5164                   20643156.0514
 11  7 29  1 58  0.0000000  0  9G10G17G09G12G04G25G05G27G02
 -24438469.76647 -20576572.77845  20939135.1724                   20939134.0394
 -62525730.23847 -48708414.08444  23424260.8524                   23424260.5204
 -16900679.87146 -13130535.10343  24046186.5554                   24046188.1414
 -16906438.52348 -13152293.37946  21271937.0314                   21271935.5904
 -45743214.61747 -35630468.08945  21893776.2274                   21893775.8444
  11132121.05546   8694633.35244  23862760.9534                   23862762.1094
  -7433965.81647  -5770941.95545  21891062.5474                   21891061.4804
 -29885216.53946 -23274016.44543  24214443.2034                   24214445.5354
 -36111453.49248 -28126092.70146  20630555.3204                   20630551.7504
 11  7 29  1 58 30.0000000  0  9G10G17G09G12G04G25G05G27G02
 -24503003.07047 -20626858.46046  20926855.1024                   20926853.9924
 -62536397.42246 -48716726.21144  23422231.5084                   23422230.5274
 -16886628.03946 -13119585.64243  24048860.5234                   24048862.1254
 -17025232.89847 -13244860.41446  21249331.5314                   21249330.1684
 -45734015.38747 -35623299.88145  21895527.0474                   21895526.2274
  10967270.13346   8566178.12343  23831390.5314                   23831392.0784
  -7589905.73447  -5892453.54845  21861387.6174                   21861387.1374
 -29888546.48846 -23276611.28343  24213808.7664                   24213811.2814
 -36177332.69548 -28177427.13146  20618018.8054                   20618015.1604
 11  7 29  1 59  0.0000000  0  9G10G17G09G12G04G25G05G27G02
 -24566828.66447 -20676592.66846  20914709.4454                   20914708.3364
 -62546827.94546 -48724853.89844  23420246.2974                   23420245.2774
 -16872399.46947 -13108498.49343  24051568.5864                   24051569.2584
 -17143477.32847 -13336998.89646  21226830.0084                   21226828.8134
 -45724617.86347 -35615977.12645  21897315.9614                   21897314.5664
  10802715.91846   8437954.09543  23800077.0634                   23800078.7154
  -7745436.03547  -6013645.93445  21831791.6094                   21831790.3484
 -29891783.91446 -23279134.04943  24213192.9454                   24213195.1994
 -36242856.58648 -28228484.71346  20605550.0234                   20605546.4574
 11  7 29  1 59 30.0000000  0  9G10G17G09G12G04G25G05G27G02
 -24629947.60947 -20725776.27345  20902698.2894                   20902696.7814
 -62557021.81646 -48732797.18244  23418306.7974                   23418304.8674
 -16857998.35546 -13097276.93543  24054308.3444                   24054309.6954
 -17261171.08248 -13428708.29946  21204434.1094                   21204432.3984
 -45715025.16047 -35608502.31345  21899140.7504                   21899139.9184
  10638460.05146   8309962.53743  23768819.9614                   23768822.1134
  -7900555.02747  -6134517.81645  21802273.2344                   21802272.2854
 -29894932.58246 -23281587.63443  24212594.2034                   24212596.3094
 -36308027.19548 -28279267.00946  20593148.8914                   20593144.8914
 11  7 29  2  0  0.0000000  0  9G10G17G09G12G04G25G05G27G02
 -24692359.22747 -20774408.71245  20890821.9924                   20890820.8164
 -62566977.93446 -48740555.21543  23416411.5474                   23416410.7734
 -16843427.58246 -13085923.18843  24057081.6564                   24057082.4304
 -17378310.62548 -13519985.83746  21182142.9844                   21182141.2584
 -45705238.43047 -35600876.28845  21901003.0864                   21901002.5084
  10474505.82846   8182206.02244  23737620.6884                   23737622.7194
  -8055259.36747  -6255066.61946  21772834.0394                   21772833.1334
 -29897994.66046 -23283973.68943  24212011.8444                   24212013.4654
 -36372844.95748 -28329774.36546  20580814.0554                   20580810.6174
 11  7 29  2  0 30.0000000  0  9G10G17G09G12G04G25G05G27G02
 -24754061.77047 -20822488.60146  20879080.2034                   20879078.8244
 -62576694.59846 -48748126.69844  23414563.7424                   23414562.6884
 -16828688.71946 -13074438.40543  24059885.5314                   24059888.1644
 -17494893.10548 -13610829.30346  21159958.1094                   21159956.4654
 -45695258.00047 -35593099.31845  21902902.3984                   21902901.6374
  10310857.55947   8054687.90644  23706479.0314                   23706481.1804
  -8209544.54347  -6375288.78346  21743474.1724                   21743473.7854
 -29900971.07846 -23286293.04143  24211444.6884                   24211446.8524
 -36437309.50048 -28380006.48646  20568546.8204                   20568543.4694
 11  7 29  2  1  0.0000000  0  9G10G17G09G12G04G25G05G27G02
 -24815058.81647 -20870018.74845  20867472.7344                   20867471.9304
 -62586174.80947 -48755513.90444  23412759.1644                   23412758.5824
 -16813788.47346 -13062827.89843  24062721.3444                   24062723.5044
 -17610919.93048 -13701239.80146  21137878.7664                   21137876.9534
 -45685089.06247 -35585175.45645  21904837.2734                   21904836.5394
  10147514.44947   7927407.59944  23675396.3284                   23675397.8164
  -8363411.32447  -6495184.91946  21714194.6884                   21714193.8754
 -29903868.11745 -23288550.54843  24210893.4224                   24210895.4104
 -36501425.44548 -28429966.96646  20556345.9144                   20556342.3874
 11  7 29  2  1 30.0000000  0  9G10G17G09G12G04G25G05G27G02
 -24875351.83648 -20917000.30145  20855999.7274                   20855998.1294
 -62595419.25447 -48762717.37744  23410999.8984                   23410999.7774
 -16798731.57046 -13051095.35543  24065587.0314                   24065588.0744
 -17726390.03548 -13791216.47246  21115905.8284                   21115903.9844
 -45674734.37547 -35577106.86445  21906807.7664                   21906807.4344
   9984478.11347   7800366.28144  23644371.3444                   23644372.9344
  -8516858.02747  -6614753.73145  21684994.6484                   21684993.6054
 -29906689.50845 -23290749.14142  24210356.7504                   24210358.5124
 -36565194.64148 -28479657.23546  20544211.2274                   20544207.7664
 11  7 29  2  2  0.0000000  0  9G10G17G09G12G04G25G05G27G02
 -24934942.99647 -20963434.97045  20844659.7734                   20844658.5984
 -62604429.48446 -48769738.37644  23409285.0554                   23409284.8014
 -16783523.14846 -13039244.63143  24068481.0554                   24068482.0314
 -17841303.73447 -13880759.59746  21094038.1484                   21094036.7734
 -45664198.18047 -35568896.82645  21908812.8364                   21908811.8714
   9821749.14547   7673564.47744  23613405.0704                   23613407.2384
  -8669883.85247  -6733994.58946  21655874.6804                   21655873.8834
 -29909439.98046 -23292892.40443  24209833.9844                   24209835.5204
 -36628620.41048 -28529079.91846  20532141.8204                   20532138.2274
 11  7 29  2  2 30.0000000  0  9G10G17G09G12G04G25G05G27G02
 -24993831.59447 -21009322.18445  20833453.3054                   20833451.9264
 -62613204.36347 -48776575.95444  23407615.4534                   23407614.3754
 -16768165.23846 -13027277.59143  24071403.5704                   24071404.6914
 -17955657.75847 -13969866.60846  21072277.3364                   21072275.7194
 -45653481.05947 -35560545.81045  21910852.2894                   21910851.7504
   9659331.34047   7547005.14044  23582498.5704                   23582499.5944
  -8822485.13347  -6852904.62746  21626835.7194                   21626834.6844
 -29912121.06646 -23294981.70342  24209323.0704                   24209325.2854
 -36691703.13748 -28578235.29246  20520137.4844                   20520133.8984
 11  7 29  2  3  0.0000000  0  9G10G17G09G12G04G25G05G27G02
 -25052019.24647 -21054663.18345  20822381.0704                   20822379.3364
 -62621744.68047 -48783230.74644  23405990.8594                   23405989.7074
 -16752663.01646 -13015197.93343  24074353.4384                   24074355.2704
 -18069451.47747 -14058537.04146  21050623.4064                   21050621.8014
 -45642586.12147 -35552056.23445  21912925.0944                   21912924.9184
   9497225.80547   7420689.16044  23551650.1644                   23551652.0204
  -8974660.69947  -6971482.95246  21597877.3204                   21597876.8204
 -29914737.02745 -23297020.17642  24208825.7894                   24208827.7234
 -36754445.57448 -28627125.50146  20508198.0704                   20508194.4964
 11  7 29  2  3 30.0000000  0  9G10G17G09G12G04G25G05G27G02
 -25109503.09047 -21099455.77546  20811442.0164                   20811440.6684
 -62630047.07047 -48789700.17344  23404410.6724                   23404409.8914
 -16737016.63346 -13003006.11043  24077330.6884                   24077333.2274
 -18182679.94148 -14146767.00446  21029076.5164                   21029074.4734
 -45631512.43447 -35543427.38145  21915032.3364                   21915031.9774
   9335438.34847   7294621.00944  23520863.3834                   23520864.9844
  -9126404.47747  -7089724.80446  21569001.5394                   21569000.6764
 -29917287.50445 -23299007.64842  24208340.9534                   24208342.9024
 -36816845.38747 -28675748.73046  20496323.6094                   20496320.1024
 11  7 29  2  4  0.0000000  0  9G10G17G09G12G04G25G05G27G02
 -25166284.13748 -21143700.74446  20800636.7734                   20800635.3834
 -62638111.57046 -48795984.19044  23402875.5944                   23402874.9884
 -16721229.78146 -12990704.72343  24080334.8524                   24080337.1054
 -18295342.11348 -14234555.68746  21007637.7584                   21007635.7854
 -45620262.11747 -35534660.87745  21917173.2274                   21917173.0704
   9173971.12947   7168802.37344  23490137.0864                   23490138.4454
  -9277714.40647  -7207628.59546  21540208.2274                   21540207.0314
 -29919775.52345 -23300946.46542  24207866.3984                   24207869.0864
 -36878903.85248 -28724105.97846  20484514.3754                   20484510.9654
 11  7 29  2  4 30.0000000  0  9G10G17G09G12G04G25G05G27G02
 -25222363.52047 -21187398.96346  20789964.7274                   20789963.9614
 -62645939.18446 -48802083.68644  23401386.4144                   23401385.6884
 -16705306.93446 -12978297.35143  24083365.5554                   24083366.9024
 -18407436.91048 -14321902.27946  20986307.1414                   20986304.9964
 -45608838.05147 -35525758.97945  21919347.7034                   21919346.4384
   9012825.69547   7043234.54044  23459472.4304                   23459474.3014
  -9428588.91447  -7325193.10946  21511498.1174                   21511496.7074
 -29922204.95345 -23302839.59843  24207404.5474                   24207407.2274
 -36940623.63747 -28772199.30146  20472769.4454                   20472765.7974
 11  7 29  2  5  0.0000000  0  9G10G17G09G12G04G25G05G27G02
 -25277742.06247 -21230551.05945  20779427.1884                   20779425.7424
 -62653530.16846 -48807998.72144  23399942.1254                   23399940.7234
 -16689251.51646 -12965786.75543  24086420.4224                   24086422.5394
 -18518963.18448 -14408805.86146  20965083.9064                   20965082.5434
 -45597242.64847 -35516723.58445  21921553.9064                   21921553.0434
   8852004.25447   6917919.13644  23428868.9614                   23428870.0204
  -9579025.72347  -7442416.54746  21482870.2274                   21482869.5274
 -29924578.99646 -23304689.57043  24206952.4304                   24206955.8134
 -37002006.02047 -28820029.71646  20461088.8674                   20461085.3134
 11  7 29  2  5 30.0000000  0  9G10G17G09G12G04G25G05G27G02
 -25332417.61347 -21273155.37945  20769022.9774                   20769021.7734
 -62660880.92246 -48813726.58044  23398543.3134                   23398542.5664
 -16673064.30546 -12953173.37243  24089500.9064                   24089503.3554
 -18629915.88347 -14495262.50646  20943970.4144                   20943968.5664
 -45585474.57447 -35507553.63345  21923793.2194                   21923792.5204
   8691512.29347   6792860.48744  23398327.5084                   23398329.6374
  -9729019.43447  -7559294.72546  21454327.8284                   21454326.7934
 -29926897.52746 -23306496.32943  24206512.7734                   24206514.2974
 -37063049.99247 -28867596.44446  20449472.3754                   20449468.6994
 11  7 29  2  6  0.0000000  0  9G10G17G09G12G04G25G05G27G02
 -25386395.34847 -21315215.94945  20758751.2734                   20758750.0824
 -62667996.10246 -48819270.88644  23397189.1254                   23397188.2584
 -16656753.58246 -12940463.76143  24092603.9924                   24092607.1024
 -18740298.34848 -14581274.81746  20922965.4384                   20922963.7624
 -45573540.82447 -35498254.60145  21926064.3674                   21926063.3324
   8531347.53546   6668056.84344  23367849.6254                   23367851.5274
  -9878572.28947  -7675829.36946  21425868.9774                   21425867.5864
 -29929168.04746 -23308265.63443  24206079.7274                   24206083.0904
 -37123761.29347 -28914903.95446  20437919.5554                   20437915.8094
 11  7 29  2  6 30.0000000  0  9G10G17G09G12G04G25G05G27G02
 -23864254.27347 -20129131.98645  21048404.9064                   21048403.5864
 -61099455.41046 -47597031.40143  23695672.7274                   23695671.6414
 -15064903.44546 -11700061.13743  24395523.5394                   24395525.7934
 -17274685.09448 -13439238.53346  21201862.4064                   21201860.8014
 -43986023.65247 -34261228.20945  22228158.2894                   22228157.8054
   9946937.74646   7771114.20644  23637227.2584                   23637229.1994
  -8452256.93747  -6564414.76146  21697287.5704                   21697286.7304
 -28355973.55946 -22082399.91343  24505449.4694                   24505451.9224
 -35608719.23048 -27734351.68646  20726222.4304                   20726218.6604
 11  7 29  2  7  0.0000000  0  9G10G17G09G12G04G25G05G27G02
 -23916834.02747 -20170103.21845  21038398.9924                   21038397.8054
 -61106094.94547 -47602205.05344  23694409.2664                   23694407.9144
 -15048351.63746 -11687163.70243  24398673.8204                   24398675.5234
 -17383917.66448 -13524354.82346  21181075.9454                   21181074.2424
 -43973759.69947 -34251671.86445  22230492.3054                   22230491.8284
   9787439.28946   7646829.76444  23606876.4064                   23606877.8634
  -8600916.20747  -6680253.10346  21668998.6484                   21668997.4884
 -28358152.43746 -22084097.81343  24505034.2424                   24505037.5664
 -35668764.88347 -27781140.49646  20714796.3054                   20714792.3834
 11  7 29  2  7 30.0000000  0  9G10G17G09G12G04G25G05G27G02
 -23968719.44947 -20210533.41045  21028525.8284                   21028524.8524
 -61112499.79746 -47607195.84644  23693190.4454                   23693189.2304
 -15031687.96546 -11674179.03643  24401844.4454                   24401846.5354
 -17492576.44948 -13609024.01546  21160398.6414                   21160397.3134
 -43961336.92247 -34241991.76845  22232856.4384                   22232855.6254
   9628274.13346   7522805.02244  23576587.4224                   23576589.8324
  -8749128.74247  -6795743.34746  21640794.2034                   21640794.0904
 -28360293.31246 -22085766.13543  24504627.1094                   24504630.1844
 -35728483.10247 -27827674.17946  20703431.7344                   20703428.6094
 11  7 29  2  8  0.0000000  0  9G10G17G09G12G04G25G05G27G02
 -24019907.44947 -20250420.14445  21018784.8364                   21018783.8834
 -61118666.17646 -47612000.82344  23692016.5634                   23692016.2074
 -15014912.07446 -11661107.00543  24405036.2344                   24405038.7194
 -17600656.03548 -13693241.86146  21139832.1174                   21139830.2934
 -43948753.78947 -34232186.68945  22235250.6724                   22235250.4104
   9469448.42247   7399044.81544  23546364.0394                   23546365.8444
  -8896888.47747  -6910880.76046  21612676.5944                   21612676.2734
 -28362395.22746 -22087404.18143  24504227.0554                   24504229.9414
 -35787871.63748 -27873950.95846  20692131.2974                   20692127.3634
 11  7 29  2  8 30.0000000  0  9G10G17G09G12G04G25G05G27G02
 -24070399.52347 -20289764.60845  21009176.8134                   21009175.7194
 -61124595.03146 -47616620.74344  23690888.9924                   23690888.7234
 -14998028.56646 -11647951.06843  24408249.4844                   24408252.2584
 -17708155.83648 -13777007.94746  21119375.6024                   21119374.1764
 -43936013.07447 -34222258.83444  22237675.1644                   22237674.5044
   9310963.75047   7275550.31844  23516205.5394                   23516207.2154
  -9044193.55947  -7025663.88546  21584645.4924                   21584644.4844
 -28364461.80546 -22089014.51043  24503834.1334                   24503836.9144
 -35846932.89148 -27919972.69046  20680891.3984                   20680888.0864
 11  7 29  2  9  0.0000000  0  9G10G17G09G12G04G25G05G27G02
 -24120196.08647 -20328567.12845  20999700.6174                   20999699.2384
 -61130285.60247 -47621054.97344  23689805.8444                   23689805.6454
 -14981040.34446 -11634713.43943  24411482.2814                   24411485.0824
 -17815073.54348 -13860320.44346  21099030.0634                   21099027.9614
 -43923116.02047 -34212209.15344  22240129.3444                   22240128.9144
   9152823.32047   7152324.06844  23486112.3054                   23486114.3914
  -9191040.86347  -7140090.33846  21556701.4924                   21556700.3404
 -28366495.37946 -22090599.25143  24503446.3594                   24503449.9774
 -35905667.21148 -27965739.68646  20669715.0004                   20669711.5554
 11  7 29  2  9 30.0000000  0  9G10G17G09G12G04G25G05G27G02
 -24169294.44547 -20366825.57145  20990357.3594                   20990356.4804
 -61135734.25846 -47625300.67344  23688768.9454                   23688768.4884
 -14963947.23446 -11621394.23643  24414735.6644                   24414737.4734
 -17921404.05548 -13943175.38246  21078795.6564                   21078793.7384
 -43910061.07447 -34202036.45944  22242613.8054                   22242613.3134
   8995032.93047   7029370.60644  23456085.8674                   23456087.5164
  -9337424.82447  -7254155.70846  21528845.4304                   21528844.5234
 -28368495.43746 -22092157.83643  24503067.1024                   24503069.7424
 -35964072.77348 -28011250.50246  20658600.8364                   20658597.2344
 11  7 29  2 10  0.0000000  0  9G10G17G09G12G04G25G05G27G02
 -24217699.27047 -20404543.61945  20981146.5084                   20981145.2774
 -61140944.37146 -47629360.51544  23687777.1564                   23687776.5664
 -14946756.34046 -11607998.77243  24418006.7344                   24418008.8594
 -18027150.15648 -14025574.94346  21058672.8204                   21058670.9734
 -43896853.89147 -34191745.10844  22245126.6954                   22245126.6054
   8837591.31347   6906688.91744  23426126.0314                   23426127.4494
  -9483346.76247  -7367861.07746  21501077.4304                   21501076.5004
 -28370468.41446 -22093695.36443  24502692.1024                   24502694.3984
 -36022154.81248 -28056509.23246  20647548.0634                   20647544.3874
 11  7 29  2 10 30.0000000  0  9G10G17G09G12G04G25G05G27G02
 -24265409.34047 -20441720.28645  20972067.6334                   20972066.5164
 -61145913.85546 -47633232.88143  23686831.4064                   23686830.7624
 -14929468.85546 -11594528.05343  24421296.7194                   24421298.7114
 -18132307.86347 -14107515.99146  21038661.9064                   21038659.9964
 -43883493.89847 -34181334.70344  22247669.3594                   22247668.8754
   8680503.22347   6784282.68544  23396232.7504                   23396234.3554
  -9628802.13747  -7481202.88846  21473397.5474                   21473397.0704
 -28372415.06246 -22095212.31743  24502321.1174                   24502323.9304
 -36079912.43448 -28101515.15046  20636557.1024                   20636553.6374
 11  7 29  2 11  0.0000000  0  9G10G17G09G12G04G25G05G27G02
 -24312433.27747 -20478362.30945  20963119.2664                   20963117.7274
 -61150650.55146 -47636923.85644  23685930.3524                   23685930.1644
 -14912096.21146 -11580990.93643  24424602.8754                   24424604.2974
 -18236883.51648 -14189003.49646  21018762.0314                   21018759.8324
 -43869991.07447 -34170812.99844  22250238.2894                   22250238.0634
   8523763.12947   6662147.60344  23366406.1334                   23366407.4224
  -9773796.37547  -7594185.36546  21445806.2814                   21445805.8324
 -28374346.09446 -22096717.09643  24501953.5004                   24501956.6644
 -36137354.85948 -28146275.48146  20625626.2424                   20625622.9184
 11  7 29  2 11 30.0000000  0  9G10G17G09G12G04G25G05G27G02
 -24358768.89847 -20514467.96645  20954301.4844                   20954300.6454
 -61155151.52346 -47640431.12844  23685074.0474                   23685073.8954
 -14894638.67246 -11567387.73943  24427924.5554                   24427926.6174
 -18340872.55548 -14270033.90246  20998973.3444                   20998971.5554
 -43856344.17247 -34160179.02644  22252835.5234                   22252835.0864
   8367376.58647   6540288.05444  23336646.6724                   23336648.0784
  -9918324.27048  -7706804.45346  21418303.5634                   21418302.8204
 -28376261.14846 -22098209.44043  24501588.7584                   24501592.1994
 -36194480.16848 -28190788.69046  20614755.7664                   20614752.0704
 11  7 29  2 12  0.0000000  0  8G10G17G09G12G04G25G05G02
 -24404416.93047 -20550037.84945  20945615.0864                   20945613.9694
 -61159416.17246 -47643754.28644  23684262.2034                   23684262.0474
 -14877099.18046 -11553720.64943  24431262.1954                   24431264.0514
 -18444273.35948 -14350605.94946  20979297.1804                   20979295.1684
 -43842554.78947 -34149434.03344  22255459.6254                   22255458.6804
   8211346.41847   6418706.15844  23306954.9224                   23306956.1684
 -10062382.93048  -7819057.93846  21390890.1884                   21390889.4224
 -36251289.46548 -28235055.65546  20603945.0394                   20603941.6564
 11  7 29  2 12 30.0000000  0  8G10G17G09G12G04G25G05G02
 -24449376.84847 -20585071.54445  20937059.7664                   20937058.5234
 -61163442.80146 -47646891.99143  23683495.9224                   23683495.4574
 -14859479.55146 -11539991.10843  24434615.2974                   24434616.6094
 -18547082.85547 -14430717.22946  20959733.0634                   20959731.1954
 -43828623.16047 -34138578.20644  22258110.9534                   22258109.8444
   8055676.65647   6297405.09344  23277331.6174                   23277333.0084
 -10205968.45747  -7930942.70846  21363567.0394                   21363565.9534
 -36307782.55148 -28279076.22646  20593194.7584                   20593191.4414
 11  7 29  2 13  0.0000000  0  8G10G17G09G12G04G25G05G02
 -24493639.18047 -20619561.66945  20928636.8674                   20928635.6294
 -61167220.71146 -47649835.84243  23682777.4924                   23682776.8164
 -14841772.57846 -11526193.60643  24437984.2504                   24437985.5824
 -18649289.09848 -14510358.45046  20940283.7734                   20940282.0944
 -43814540.60947 -34127604.78145  22260790.3364                   22260790.1484
   7900380.30947   6176395.02044  23247779.9224                   23247781.5824
 -10349068.00447  -8042448.80246  21336335.9064                   21336334.6414
 -36363950.32448 -28322843.29846  20582506.4844                   20582502.9884
 11  7 29  2 13 30.0000000  0  8G10G17G09G12G04G25G05G02
 -24537204.27347 -20653508.47845  20920346.5944                   20920345.1804
 -61170749.62146 -47652585.65244  23682106.2974                   23682104.8674
 -14823981.48846 -11512330.41543  24441369.8834                   24441372.2894
 -18750890.31247 -14589528.21146  20920949.5944                   20920947.6254
 -43800308.40247 -34116514.75245  22263499.0554                   22263498.3324
   7745460.37547   6055678.23644  23218299.6724                   23218300.8404
 -10491679.04348  -8153574.25446  21309198.0004                   21309196.6804
 -36419793.49648 -28366357.44646  20571880.3204                   20571876.4574
 11  7 29  2 14  0.0000000  0  8G10G17G09G12G04G25G05G02
 -24580069.23847 -20686909.74645  20912189.8754                   20912188.4964
 -61174025.01247 -47655137.88044  23681482.9844                   23681481.5944
 -14806105.26246 -11498400.92243  24444771.7114                   24444773.6914
 -18851880.88748 -14668222.15046  20901731.7664                   20901729.5514
 -43785924.07447 -34105306.18545  22266236.2274                   22266235.7114
   7590923.46547   5935259.93644  23188892.1954                   23188893.0904
 -10633794.85248  -8264313.79746  21282154.1954                   21282153.0044
 -36475309.47748 -28409616.63746  20561315.5314                   20561311.9614
 11  7 29  2 14 30.0000000  0  8G10G17G09G12G04G25G05G02
 -24622240.50447 -20719770.46045  20904164.8754                   20904163.5474
 -61177052.39546 -47657496.92144  23680906.9534                   23680906.1844
 -14788153.01246 -11484412.17343  24448188.2734                   24448190.3364
 -18952264.76647 -14746443.35146  20882629.7424                   20882627.7704
 -43771394.90247 -34093984.75645  22269000.5704                   22269000.1024
   7436766.53947   5815137.68444  23159556.6724                   23159558.3484
 -10775418.67248  -8374669.98646  21255204.2584                   21255203.0314
 -36530505.13348 -28452626.22246  20550812.1804                   20550808.5394
 11  7 29  2 15  0.0000000  0  8G10G17G09G12G04G25G05G02
 -24663720.18447 -20752092.27445  20896271.5634                   20896270.0164
 -61179832.63346 -47659663.39044  23680377.2344                   23680377.0234
 -14770128.98046 -11470367.51343  24451616.6954                   24451620.4264
 -19052041.54747 -14824191.48446  20863642.2274                   20863640.7344
 -43756723.76647 -34082552.75244  22271792.7034                   22271792.3674
   7282991.02347   5695312.63544  23130294.6254                   23130295.7114
 -10916549.22748  -8484641.80746  21228347.6564                   21228346.6844
 -36585382.59448 -28495387.87646  20540369.4454                   20540365.9264
 11  7 29  2 15 30.0000000  0  8G10G17G09G12G04G25G05G02
 -24704510.79747 -20783877.15345  20888509.5634                   20888508.0354
 -61182367.50846 -47661638.64743  23679895.4694                   23679894.2154
 -14752038.10246 -11456270.81242  24455060.9304                   24455062.9384
 -19151212.10247 -14901467.21746  20844771.1724                   20844769.0124
 -43741914.00447 -34071012.73144  22274611.2194                   22274610.5274
   7129597.70747   5575785.42244  23101105.1024                   23101105.9184
 -11057185.93048  -8594228.82246  21201585.4534                   21201584.4964
 -36639944.92248 -28537903.96846  20529986.8674                   20529983.0004
 11  7 29  2 16  0.0000000  0  8G10G17G09G12G04G25G05G02
 -24744617.33647 -20815128.99745  20880877.0084                   20880875.6134
 -61184660.39146 -47663425.26743  23679459.3914                   23679457.9224
 -14733887.00846 -11442127.15642  24458516.1484                   24458516.1604
 -19249778.50447 -14978272.19546  20826013.9924                   20826012.5394
 -43726970.96547 -34059368.81144  22277454.8594                   22277453.9574
   6976585.56647   5456555.18644  23071987.7114                   23071988.9734
 -11197330.17648  -8703432.08146  21174917.1094                   21174915.7274
 -36694197.32048 -28580178.54346  20519662.4454                   20519659.2304
 11  7 29  2 16 30.0000000  0  8G10G17G09G12G04G25G05G02
 -24784042.02347 -20845849.51345  20873374.8134                   20873373.4654
 -61186711.95746 -47665023.95443  23679068.2664                   23679067.6724
 -14715680.03146 -11427939.95543  24461979.1804                   24461980.9454
 -19347740.29747 -15054606.05346  20807373.0234                   20807371.0164
 -43711897.30947 -34047623.14144  22280323.3444                   22280322.5434
   6823956.14547   5337623.20344  23042943.3524                   23042944.5044
 -11336980.57848  -8812250.53546  21148342.2344                   21148341.2734
 -36748141.50048 -28622212.95446  20509397.5944                   20509393.7304
 11  7 29  2 17  0.0000000  0  8G10G17G09G12G04G25G05G02
 -24822783.28547 -20876037.49646  20866002.8834                   20866001.5274
 -61188519.62146 -47666432.57143  23678724.0864                   23678723.7274
 -14697417.77746 -11413709.67343  24465454.6484                   24465456.3754
 -19445093.44547 -15130465.63046  20788847.2664                   20788845.2464
 -43696692.02747 -34035774.91244  22283216.4614                   22283216.1094
   6671714.60547   5218993.45644  23013972.8984                   23013973.9414
 -11476132.28148  -8920680.40746  21121862.4064                   21121861.1524
 -36801776.21548 -28664006.21246  20499191.3054                   20499187.5704
 11  7 29  2 17 30.0000000  0  8G10G17G09G12G04G25G05G02
 -24860843.53147 -20905694.81145  20858760.1174                   20858758.6914
 -61190084.35546 -47667651.87644  23678427.1954                   23678426.2464
 -14679104.41046 -11399439.59042  24468940.2664                   24468942.1884
 -19541837.68447 -15205850.74746  20770437.1254                   20770435.2974
 -43681357.60947 -34023826.08044  22286134.1884                   22286134.2114
   6519862.48847   5100667.14444  22985076.0164                   22985077.5164
 -11614784.02048  -9028720.68046  21095477.8524                   21095476.9884
 -36855103.96148 -28705560.28946  20489043.0634                   20489039.3484
 11  7 29  2 18  0.0000000  0  8G10G17G09G12G04G25G05G02
 -23322804.99647 -19707223.21345  21151438.8834                   21151437.9454
 -59615988.50446 -46441083.72144  23977967.3594                   23977966.9884
 -13085326.33646 -10157534.67743  24772225.6024                   24772228.0984
 -18062550.91847 -14053159.74946  21051936.2814                   21051934.2854
 -42090478.79747 -32784180.30944  22588869.0234                   22588868.3554
   7943824.98447   6210248.30744  23256046.7194                   23256048.2704
 -10177511.25048  -7908767.83546  21368981.9384                   21368980.8554
 -35332706.51648 -27519276.55046  20778745.7504                   20778742.2234
 11  7 29  2 18 30.0000000  0  8G10G17G09G12G04G25G05G02
 -23359513.67247 -19735827.35245  21144453.8594                   21144452.4694
 -59617074.46546 -46441929.96443  23977760.9144                   23977759.3054
 -13066928.14146 -10143198.37143  24775726.8054                   24775729.4414
 -18158080.68447 -14127598.53246  21033757.4144                   21033755.8674
 -42074898.73447 -32772040.04844  22591833.8134                   22591832.6684
   7792751.89847   6092529.03344  23227298.9144                   23227300.4344
 -10315163.34048  -8016029.17446  21342787.2734                   21342786.4024
 -35385431.30148 -27560360.79146  20768712.1724                   20768708.7934
 11  7 29  2 19  0.0000000  0  8G10G17G09G12G04G25G05G02
 -23395549.28147 -19763907.03945  21137596.4454                   21137594.7464
 -59617921.59846 -46442590.06543  23977599.3834                   23977598.4184
 -13048493.15246 -10128833.56743  24779235.3284                   24779237.4574
 -18253002.21547 -14201563.34246  21015694.7344                   21015692.5084
 -42059198.83647 -32759806.39444  22594821.6564                   22594820.3244
   7642071.52047   5975115.74044  23198625.7734                   23198627.0434
 -10452313.04348  -8122899.02746  21316688.4454                   21316687.4534
 -35437857.12148 -27601212.07346  20758735.9924                   20758732.4694
 11  7 29  2 19 30.0000000  0  8G10G17G09G12G04G25G05G02
 -23430909.77747 -19791460.64945  21130867.4534                   21130866.2384
 -59618526.61346 -46443061.53143  23977484.0944                   23977483.1454
 -13030021.12546 -10114439.87643  24782750.4694                   24782752.5944
 -18347310.99647 -14275050.70046  20997748.3364                   20997746.3714
 -42043377.50447 -32747478.11344  22597832.0314                   22597831.1484
   7491789.47347   5858012.84744  23170027.6414                   23170029.2664
 -10588954.78148  -8229373.07946  21290686.3284                   21290685.2734
 -35489982.34048 -27641829.12246  20748816.7584                   20748813.5904
 11  7 29  2 20  0.0000000  0  8G10G17G09G12G04G25G05G02
 -23465598.77747 -19818491.03445  21124266.3754                   21124265.1334
 -59618891.37146 -46443345.80843  23977415.1094                   23977413.9734
 -13011517.29746 -10100021.38843  24786271.5084                   24786274.1174
 -18441007.27747 -14348060.78046  20979918.2424                   20979916.5634
 -42027438.53947 -32735058.18344  22600865.2194                   22600864.2934
   7341906.28947   5741220.76444  23141506.1414                   23141507.1174
 -10725088.48047  -8335451.24746  21264781.2034                   21264779.8204
 -35541810.30548 -27682214.54246  20738954.3594                   20738951.1024
 11  7 29  2 20 30.0000000  0  8G10G17G09G12G04G25G05G02
 -23499618.57847 -19844999.95845  21117792.4694                   21117791.1684
 -59619017.15646 -46443443.83144  23977391.3054                   23977390.3134
 -12992986.35546 -10085581.79743  24789797.5784                   24789799.7664
 -18534092.20748 -14420594.47346  20962204.9144                   20962203.1024
 -42011384.81247 -32722548.82144  22603920.0234                   22603919.7074
   7192422.95347   5624740.25045  23113059.9384                   23113061.5784
 -10860713.38747  -8441132.94946  21238972.5864                   21238971.2774
 -35593343.09848 -27722369.96146  20729148.0784                   20729144.3244
 11  7 29  2 21  0.0000000  0  8G10G17G09G12G04G25G05G02
 -23532970.37947 -19870988.35045  21111445.8754                   21111444.4384
 -59618903.37146 -46443355.14444  23977413.2344                   23977412.0044
 -12974431.02746 -10071123.20643  24793329.0704                   24793331.0744
 -18626563.78947 -14492650.24746  20944608.2274                   20944606.3634
 -41995217.52047 -32709950.94944  22606997.3364                   22606996.0204
   7043342.49247   5508573.63144  23084691.0944                   23084692.4614
 -10995826.81247  -8546416.11546  21213261.1094                   21213259.9494
 -35644581.61348 -27762296.08246  20719397.5704                   20719394.2304
 11  7 29  2 21 30.0000000  0  8G10G17G09G12G04G25G05G02
 -23565656.67247 -19896458.17145  21105225.9064                   21105224.4844
 -59618551.47346 -46443080.88743  23977479.1334                   23977478.3164
 -12955855.49646 -10056648.78043  24796863.9774                   24796866.2464
 -18718422.33647 -14564228.32746  20927127.8914                   20927126.3794
 -41978939.56247 -32697266.86444  22610094.2424                   22610093.3054
   6894666.10947   5392721.90744  23056398.5394                   23056400.5004
 -11130427.90647  -8651300.04746  21187647.5394                   21187646.3634
 -35695528.77048 -27801995.16046  20709702.6804                   20709699.2344
 11  7 29  2 22  0.0000000  0  8G10G17G09G12G04G25G05G02
 -23597683.09447 -19921413.81345  21099131.0314                   21099129.8244
 -59617965.69146 -46442624.41943  23977591.1174                   23977589.6684
 -12937267.44946 -10042164.67343  24800401.1484                   24800403.2234
 -18809670.59847 -14635330.86446  20909764.3524                   20909762.3594
 -41962556.43747 -32684500.84744  22613211.7114                   22613211.1684
   6746392.06647   5277183.70844  23028183.0864                   23028184.7114
 -11264518.86747  -8755786.46046  21162130.7584                   21162129.7384
 -35746189.90248 -27841471.35446  20700062.1414                   20700058.5274
 11  7 29  2 22 30.0000000  0  8G10G17G09G12G04G25G05G02
 -23629052.10247 -19945857.18945  21093162.0784                   21093160.8134
 -59617146.80946 -46441986.35243  23977747.0474                   23977745.5474
 -12918670.75446 -10027673.91243  24803939.5314                   24803942.2704
 -18900308.57448 -14705957.84446  20892516.1954                   20892514.4024
 -41946070.88347 -32671654.97344  22616349.0004                   22616348.0944
   6598522.03547   5161960.31044  23000044.4454                   23000045.8444
 -11398098.25447  -8859874.27646  21136711.3444                   21136710.2234
 -35796567.23448 -27880726.42646  20690475.8754                   20690472.2034
 11  7 29  2 23  0.0000000  0  8G10G17G09G12G04G25G05G02
 -23659759.72347 -19969785.19445  21087318.8054                   21087317.4414
 -59616088.94146 -46441162.00043  23977948.0234                   23977947.2664
 -12900063.10245 -10013174.41643  24807481.6094                   24807483.2274
 -18990329.46947 -14776103.98746  20875385.7974                   20875384.1644
 -41929478.66446 -32658726.00144  22619506.4224                   22619505.5944
   6451063.93447   5047057.90544  22971983.9534                   22971985.7504
 -11531158.66847  -8963557.68446  21111391.1484                   21111389.7934
 -35846656.58248 -27919757.07446  20680944.0704                   20680940.4534
 11  7 29  2 23 30.0000000  0  8G10G17G09G12G04G25G05G02
 -23689804.97347 -19993197.05445  21081601.1254                   21081600.0274
 -59614790.18746 -46440150.01943  23978195.3444                   23978194.8634
 -12881445.27045  -9998667.20243  24811022.7814                   24811025.6954
 -19079730.23448 -14845766.90646  20858373.4614                   20858371.7894
 -41912779.30547 -32645713.55644  22622684.5004                   22622683.7384
   6304022.52747   4932480.22844  22944002.7114                   22944004.4614
 -11663695.53547  -9066833.13446  21086170.0784                   21086169.1604
 -35896456.91048 -27958562.52346  20671467.5004                   20671463.4844
 11  7 29  2 24  0.0000000  0  8G10G17G09G12G04G25G05G02
 -23719193.63347 -20016097.28645  21076009.0164                   21076007.7854
 -59613254.77345 -46438953.61843  23978487.0554                   23978487.1334
 -12862824.54745  -9984157.52143  24814566.8834                   24814569.3404
 -19168513.78147 -14914948.88246  20841478.6564                   20841476.6214
 -41895978.40247 -32632621.98244  22625881.3284                   22625881.2114
   6157396.04347   4818225.84544  22916101.0314                   22916101.9924
 -11795711.47347  -9169702.67046  21061047.9844                   21061046.8954
 -35945973.50848 -27997146.87946  20662044.8204                   20662041.2304
 11  7 29  2 24 30.0000000  0  8G10G17G09G12G04G25G05G02
 -23747925.31247 -20038485.59745  21070541.2584                   21070540.2704
 -59611480.45346 -46437570.98543  23978825.0944                   23978824.7384
 -12844201.91045  -9969646.45543  24818109.3984                   24818112.8754
 -19256677.23448 -14983647.66346  20824701.6094                   20824699.6764
 -41879075.52347 -32619450.92244  22629098.2814                   22629097.5554
   6011189.03147   4704298.33644  22888278.5314                   22888279.9454
 -11927201.59447  -9272162.46446  21036026.4844                   21036025.4064
 -35995205.82848 -28035509.71046  20652676.0554                   20652672.5554
 11  7 29  2 25  0.0000000  0  8G10G17G09G12G04G25G05G02
 -23776002.75447 -20060364.10445  21065198.0004                   21065197.1914
 -59609468.58646 -46436003.27443  23979208.3444                   23979207.6884
 -12825582.12945  -9955137.59043  24821654.1884                   24821656.4574
 -19344220.89848 -15051863.48846  20808042.6024                   20808040.9264
 -41862073.23047 -32606202.41144  22632333.2814                   22632332.9024
   5865402.69547   4590698.62245  22860536.3204                   22860537.8094
 -12058165.47747  -9374212.21646  21011104.7274                   21011103.9024
 -36044156.42648 -28073653.03546  20643361.2274                   20643357.8524
 11  7 29  2 25 30.0000000  0  7G10G17G12G04G25G05G02
 -23803429.24647 -20081735.36945  21059979.3754                   21059977.8244
 -59607220.89146 -46434251.82843  23979636.3134                   23979634.9964
 -19431145.43047 -15119596.88546  20791501.0634                   20791499.3984
 -41844974.85247 -32592879.06544  22635586.7974                   22635586.7234
   5720037.84447   4477427.38844  22832874.3284                   22832875.3594
 -12188602.84047  -9475851.67346  20986283.2814                   20986282.2344
 -36092827.96948 -28111578.89246  20634099.2734                   20634095.5084
 11  7 29  2 26  0.0000000  0  7G10G17G12G04G25G05G02
 -23830209.77047 -20102603.28745  21054882.9454                   21054881.5744
 -59604740.51246 -46432319.02144  23980108.1334                   23980107.1134
 -19517453.12148 -15186849.61846  20775077.5634                   20775075.5904
 -41827784.95747 -32579484.36844  22638858.2114                   22638857.7234
   5575093.61747   4364483.87345  22805292.3284                   22805293.8524
 -12318514.89548  -9577081.80946  20961561.6644                   20961560.8554
 -36141225.00448 -28149290.86046  20624889.4924                   20624886.0314
 11  7 29  2 26 30.0000000  0  7G10G17G12G04G25G05G02
 -23856331.47347 -20122957.84345  21049912.1564                   21049910.8554
 -59602012.88746 -46430193.60444  23980626.3914                   23980626.5004
 -19603128.39847 -15253609.56446  20758774.1954                   20758771.9774
 -41810490.85247 -32566008.47444  22642149.1094                   22642148.6804
   5430586.78547   4251881.24445  22777793.4384                   22777794.8524
 -12447885.22748  -9677889.81846  20936943.4844                   20936942.3324
 -36189334.44548 -28186778.72546  20615734.4694                   20615731.2034
 11  7 29  2 27  0.0000000  0  7G10G17G12G04G25G05G02
 -23881789.81247 -20142795.49145  21045067.3594                   21045065.9534
 -59599032.01646 -46427870.84943  23981193.8834                   23981193.6134
 -19688164.58648 -15319871.53346  20742592.1414                   20742590.1454
 -41793087.59447 -32552447.50044  22645461.0394                   22645460.2384
   5286526.13747   4139626.24845  22750380.1024                   22750381.1454
 -12576705.46147  -9778269.20946  20912429.8444                   20912428.3914
 -36237151.23448 -28224038.57146  20606635.5474                   20606632.1484
 11  7 29  2 27 30.0000000  0  7G10G17G12G04G25G05G02
 -23906588.37947 -20162119.02445  21040348.3674                   21040347.1334
 -59595799.69947 -46425352.13844  23981809.1644                   23981808.8054
 -19772562.82848 -15385636.39046  20726531.9774                   20726529.6724
 -41775578.52347 -32538804.10044  22648793.5784                   22648792.1454
   5142912.05147   4027719.24745  22723050.9534                   22723052.1214
 -12704975.94547  -9878220.20046  20888020.5474                   20888019.5944
 -36284678.84448 -28261073.06646  20597591.3204                   20597587.6684
 11  7 29  2 28  0.0000000  0  7G10G17G12G04G25G05G02
 -23930735.63347 -20180935.03845  21035753.5004                   21035751.9774
 -59592323.14547 -46422643.13244  23982471.2504                   23982470.5354
 -19856328.69548 -15450908.48646  20710591.3914                   20710589.8524
 -41757971.92247 -32525084.68344  22652143.6174                   22652142.9184
   4999740.21947   3916156.83145  22695805.9304                   22695807.4184
 -12832701.31647  -9977746.41846  20863715.2664                   20863714.3324
 -36331925.12148 -28297888.33846  20588600.5164                   20588597.0124
 11  7 29  2 28 30.0000000  0  7G10G17G12G04G25G05G02
 -23954230.14147 -20199242.41545  21031282.9454                   21031281.4144
 -59588598.90247 -46419741.10643  23983179.4534                   23983178.5004
 -19939458.07447 -15515684.60146  20694772.4304                   20694770.8054
 -41740265.87947 -32511287.75144  22655512.5864                   22655512.1804
   4857016.36347   3804943.50845  22668646.5004                   22668647.6954
 -12959876.16447 -10076843.67046  20839514.4774                   20839513.3984
 -36378887.97748 -28334482.76946  20579664.2194                   20579660.1914
 11  7 29  2 29  0.0000000  0  7G10G17G12G04G25G05G02
 -23977078.40247 -20217046.22445  21026934.4144                   21026933.3134
 -59584631.68046 -46416649.70743  23983933.9064                   23983933.3834
 -20021955.40648 -15579968.23046  20679073.8674                   20679071.8834
 -41722466.88347 -32497418.41544  22658899.5474                   22658899.0164
   4714737.87547   3694077.20345  22641572.2344                   22641573.5944
 -13086503.89147 -10175514.58846  20815418.0704                   20815416.7934
 -36425573.85548 -28370861.37046  20570779.9844                   20570776.5234
 11  7 29  2 29 30.0000000  0  7G10G17G12G04G25G05G02
 -23999286.09847 -20234350.88345  21022708.6484                   21022707.4064
 -59580425.72346 -46413372.34843  23984733.9694                   23984733.8054
 -20103823.47348 -15643761.52346  20663494.8364                   20663493.0474
 -41704580.18047 -32483480.74944  22662303.6094                   22662302.9064
   4572903.27347   3583556.79045  22614581.4694                   22614583.1884
 -13212586.28147 -10273760.57246  20791425.6804                   20791424.2424
 -36471987.72348 -28407028.00246  20561947.5944                   20561944.1524
 11  7 29  2 30  0.0000000  0  7G10G17G12G04G25G05G02
 -22445432.66847 -19023555.98345  21318397.1644                   21318396.0554
 -58000559.34446 -45182307.64643  24285372.4454                   24285372.5274
 -18609637.06248 -14479460.41246  20947829.0234                   20947827.3484
 -40111185.80547 -31241874.75644  22965516.7424                   22965515.3244
   6006941.64147   4700989.35645  22887469.5164                   22887471.6414
 -11762695.49247  -9143975.50246  21067330.6644                   21067329.0944
 -34942707.15648 -27215380.81746  20852960.0004                   20852956.5434
 11  7 29  2 30 30.0000000  0  7G10G17G12G04G25G05G02
 -22466364.85247 -19039866.73445  21314413.6414                   21314412.4064
 -57995875.91846 -45178658.21443  24286264.7424                   24286263.7544
 -18690244.18448 -14542271.15446  20932490.2504                   20932488.0904
 -40093127.41047 -31227803.25844  22968952.6644                   22968951.8634
   5866002.43847   4591166.62845  22860649.8594                   22860651.5234
 -11887681.49247  -9241367.17746  21043546.8754                   21043545.4184
 -34988579.85248 -27251125.76646  20844230.8054                   20844227.3014
 11  7 29  2 31  0.0000000  0  7G10G17G12G04G25G05G02
 -22486662.01647 -19055682.68345  21310551.3134                   21310549.6254
 -57990953.70746 -45174822.70543  24287200.6254                   24287200.0234
 -18770219.98048 -14604589.94546  20917271.1644                   20917269.3874
 -40074985.52047 -31213666.75644  22972405.8524                   22972404.3404
   5725514.20747   4481695.32545  22833915.8284                   22833917.4534
 -12012116.66047  -9338329.60546  21019867.1094                   21019865.8204
 -35034184.34848 -27286661.75146  20835552.7114                   20835548.8714
 11  7 29  2 31 30.0000000  0  7G10G17G12G04G25G05G02
 -22506330.71947 -19071008.90745  21306808.5944                   21306807.2304
 -57985797.51646 -45170804.91943  24288181.3444                   24288181.6724
 -18849568.73048 -14666420.13046  20902171.5944                   20902169.5274
 -40056766.01247 -31199469.72644  22975872.1094                   22975871.1954
   5585474.77347   4372573.72245  22807267.0164                   22807268.8754
 -12136003.62147  -9434864.89746  20996292.3364                   20996290.9304
 -35079526.36348 -27321993.20346  20826924.3914                   20826920.4264
 11  7 29  2 32  0.0000000  0  7G10G17G12G04G25G05G02
 -22525374.03147 -19085847.80245  21303184.7034                   21303182.9184
 -57980408.66846 -45166605.81642  24289207.6644                   24289206.0004
 -18928290.43447 -14727761.70546  20887191.0704                   20887189.4964
 -40038471.39847 -31185214.18044  22979353.3054                   22979352.7894
   5445885.34047   4263802.76245  22780704.1564                   22780705.7424
 -12259341.93747  -9530972.64546  20972821.8754                   20972820.4924
 -35124608.27748 -27357121.94246  20818345.1414                   20818341.6414
 11  7 29  2 32 30.0000000  0  7G10G17G12G04G25G05G02
 -22543793.32847 -19100200.46345  21299679.4144                   21299678.2504
 -57974786.74246 -45162225.07543  24290277.6484                   24290276.7384
 -19006384.14848 -14788613.93946  20872330.4384                   20872328.7234
 -40020102.47347 -31170900.71844  22982849.2274                   22982848.0394
   5306748.86747   4155384.75945  22754227.1884                   22754228.8794
 -12382129.31247  -9626651.08346  20949456.2974                   20949455.0274
 -35169430.69948 -27392048.51546  20809815.7664                   20809812.7384
 11  7 29  2 33  0.0000000  0  7G10G17G12G04G25G05G02
 -22561585.98447 -19114064.83245  21296293.5704                   21296292.3834
 -57968927.41846 -45157659.40843  24291392.2734                   24291392.0204
 -19083844.74248 -14848972.84746  20857590.1254                   20857588.3364
 -40001656.18047 -31156526.99844  22986359.3594                   22986358.5594
   5168072.08247   4047324.93245  22727837.9774                   22727839.3094
 -12504359.43047  -9721895.30746  20926196.6094                   20926195.1134
 -35213990.45748 -27426770.42046  20801336.4534                   20801333.1764
 11  7 29  2 33 30.0000000  0  7G10G17G12G04G25G05G02
 -22578759.52047 -19127446.76345  21293025.5864                   21293024.0784
 -57962836.25846 -45152912.99443  24292551.4454                   24292551.4344
 -19160676.93747 -14908842.07646  20842969.4304                   20842967.8594
 -39983139.20747 -31142098.16544  22989883.2584                   22989882.3834
   5029851.97347   3939620.93445  22701535.7734                   22701537.0864
 -12626035.92648  -9816708.11946  20903042.0784                   20903040.6764
 -35258294.32848 -27461292.93246  20792905.6804                   20792902.3524
 11  7 29  2 34  0.0000000  0  7G10G17G12G04G25G05G02
 -22595314.08247 -19140346.39445  21289875.7424                   21289873.6454
 -57956511.38346 -45147984.52043  24293755.2034                   24293754.5204
 -19236878.70348 -14968220.06646  20828468.9534                   20828466.8284
 -39964551.14147 -31127613.92944  22993420.3364                   22993419.3054
   4892092.57047   3832275.94245  22675320.8754                   22675321.8834
 -12747155.30548  -9911086.82046  20879993.9454                   20879992.6524
 -35302341.59048 -27495615.47646  20784523.9064                   20784520.2074
 11  7 29  2 34 30.0000000  0  7G10G17G12G04G25G05G02
 -22611254.00047 -19152767.07645  21286842.1954                   21286840.2464
 -57949955.56646 -45142876.05843  24295002.8754                   24295002.1564
 -19312451.70347 -15027108.12146  20814087.9924                   20814085.9884
 -39945895.64147 -31113077.16444  22996969.8204                   22996969.2034
   4754793.74647   3725289.86045  22649194.3674                   22649195.5274
 -12867718.92248 -10005032.45946  20857051.5784                   20857050.0824
 -35346135.83247 -27529740.85846  20776190.2664                   20776186.6134
 11  7 29  2 35  0.0000000  0  8G10G17G29G12G04G25G05G02
 -22626585.83247 -19164713.92845  21283924.5864                   21283923.1804
 -57943173.61346 -45137591.41643  24296293.2894                   24296292.7194
                                  23418803.81616                  24665411.570
 -19387399.45747 -15085508.96546  20799825.7584                   20799824.0234
 -39927178.43747 -31098492.31644  23000531.4224                   23000530.9654
   4617953.49647   3618661.08645  22623154.1024                   22623155.9064
 -12987728.56648 -10098546.42646  20834214.2974                   20834213.0204
 -35389682.71547 -27563673.50346  20767903.2584                   20767899.6994
 11  7 29  2 35 30.0000000  0  8G10G17G29G12G04G25G05G02
 -22641322.61347 -19176197.11545  21281120.3364                   21281119.0044
 -57936176.18046 -45132138.82043  24297625.0704                   24297624.6484
  23274450.20346  18148775.12952  24637941.3054                   24637941.3594
 -19461733.07447 -15143431.25546  20785680.8364                   20785678.7274
 -39908411.65247 -31083868.84744  23004102.9694                   23004102.3794
   4481563.12147   3512382.85745  22597199.7504                   22597201.4734
 -13107193.88748 -10191636.26146  20811481.0944                   20811479.5044
 -35432994.35247 -27597422.83546  20759661.4384                   20759657.8984
 11  7 29  2 36  0.0000000  0  8G10G17G29G12G04G25G05G02
 -22655467.50847 -19187219.08545  21278428.7504                   21278427.0984
 -57928964.64846 -45126519.45743  24298997.5784                   24298996.5314
  23130062.42246  18036265.19942  24610464.8914                   24610465.1884
 -19535453.16847 -15200875.47346  20771652.0704                   20771650.1564
 -39889598.06247 -31069208.91944  23007682.7504                   23007682.2304
   4345623.66847   3406456.02145  22571331.0704                   22571332.4454
 -13226114.51648 -10284301.65746  20788850.9614                   20788849.5904
 -35476073.28947 -27630990.83846  20751463.8594                   20751460.4884
 11  7 29  2 36 30.0000000  0  8G10G17G29G12G04G25G05G02
 -22669021.52347 -19197780.63545  21275849.3284                   21275847.6954
 -57921537.82046 -45120732.24143  24300410.6174                   24300409.3954
  22985642.19546  17923730.04043  24582983.0474                   24582983.3714
 -19608557.87547 -15257840.18246  20757740.8984                   20757738.9224
 -39870737.51246 -31054512.35944  23011271.8444                   23011271.2424
   4210138.73447   3300883.34845  22545549.7274                   22545550.5354
 -13344487.50448 -10376540.32646  20766325.2974                   20766323.8164
 -35518919.38348 -27664377.42046  20743310.1644                   20743306.7304
 11  7 29  2 37  0.0000000  0  8G10G17G29G12G04G25G05G02
 -22681985.40247 -19207882.35445  21273382.4774                   21273380.8834
 -57913894.80146 -45114776.60643  24301864.9694                   24301864.1604
  22841191.12946  17811170.71743  24555495.4224                   24555496.1644
 -19681045.31647 -15314323.90546  20743946.8284                   20743944.8954
 -39851829.79747 -31039779.05344  23014870.3594                   23014869.7934
   4075111.95747   3195667.69145  22519854.6484                   22519855.9264
 -13462309.94948 -10468349.99446  20743904.2974                   20743903.0474
 -35561532.44548 -27697582.42146  20735201.4304                   20735197.9384
 11  7 29  2 37 30.0000000  0  8G10G17G29G12G04G25G05G02
 -22694363.60247 -19217527.69245  21271026.7584                   21271025.4534
 -57906038.16446 -45108654.56543  24303359.6484                   24303359.2664
  22696706.90246  17698585.65343  24528000.6334                   24528001.3834
 -19752917.90647 -15370328.52346  20730269.6644                   20730267.8874
 -39832878.81646 -31025012.04244  23018476.5704                   23018475.9414
   3940543.01247   3090808.78345  22494246.8284                   22494248.3284
 -13579582.77048 -10559731.38146  20721587.8364                   20721586.8094
 -35603916.35947 -27730608.83646  20727136.1954                   20727132.5164
 11  7 29  2 38  0.0000000  0  8G10G17G29G12G04G25G05G02
 -22706151.89547 -19226713.37245  21268784.0004                   21268782.4844
 -57897961.58646 -45102361.15243  24304896.4384                   24304896.4064
  22552196.44946  17585980.05543  24500501.8754                   24500502.3014
 -19824168.91447 -15425848.79046  20716711.3674                   20716709.6914
 -39813879.35547 -31010207.25844  23022091.9454                   23022091.6954
   3806440.47747   2986313.33245  22468728.2344                   22468729.6294
 -13696298.28548 -10650678.51446  20699378.0474                   20699376.5704
 -35646066.07447 -27763452.78146  20719115.3204                   20719111.5664
 11  7 29  2 38 30.0000000  0  8G10G17G29G12G04G25G05G02
 -22717355.40247 -19235443.39245  21266651.4384                   21266650.6884
 -57889668.50446 -45095899.02143  24306475.4064                   24306474.0744
  22407657.22746  17473352.10543  24472996.7274                   24472996.8874
 -19894800.81647 -15480886.63446  20703270.6884                   20703268.6174
 -39794835.78146 -30995368.12944  23025715.2974                   23025715.1914
   3672803.55547   2882180.68945  22443297.9614                   22443299.3364
 -13812457.66048 -10741192.27946  20677273.3364                   20677272.2544
 -35687985.55547 -27796117.29746  20711138.3524                   20711134.6844
 11  7 29  2 39  0.0000000  0  8G10G17G29G12G04G25G05G02
 -22727974.58647 -19243718.08045  21264630.5554                   21264629.7304
 -57881157.80946 -45089267.32743  24308094.7274                   24308093.4494
  22263091.60546  17360703.51444  24445486.8364                   24445487.1454
 -19964811.82447 -15535440.66746  20689947.6094                   20689946.0434
 -39775747.55946 -30980494.15743  23029348.1024                   23029346.8554
   3539636.36747   2778414.08545  22417957.1954                   22417958.7074
 -13928057.44948 -10831270.01346  20655275.5004                   20655274.4224
 -35729674.05147 -27828601.84546  20703205.2734                   20703201.6724
 11  7 29  2 39 30.0000000  0  8G10G17G29G12G04G25G05G02
 -22738013.52047 -19251540.63445  21262720.6414                   21262718.9144
 -57872430.66046 -45082467.02643  24309755.1174                   24309753.9654
  22118497.88346  17248033.10343  24417970.9384                   24417971.7234
 -20034203.41848 -15589512.04746  20676743.1094                   20676741.4414
 -39756617.54346 -30965587.66843  23032988.4224                   23032987.5164
   3406939.27347   2675013.80645  22392705.4144                   22392706.9224
 -14043098.23448 -10920912.15846  20633383.9534                   20633382.7544
 -35771134.66447 -27860908.80946  20695315.5554                   20695312.0904
 11  7 29  2 40  0.0000000  0  8G10G17G29G12G04G25G05G02
 -22747472.10247 -19258910.96145  21260920.7584                   21260919.5634
 -57863485.04346 -45075496.38343  24311457.0634                   24311456.3714
  21973879.08246  17135343.14244  24390451.4534                   24390452.4344
 -20102972.60547 -15643098.42346  20663656.6644                   20663654.6524
 -39737444.37946 -30950647.53043  23036636.5314                   23036635.8014
   3274716.91847   2571983.44645  22367544.2734                   22367546.1174
 -14157576.16448 -11010115.71846  20611599.3364                   20611598.3014
 -35812366.11747 -27893037.20846  20687469.7114                   20687466.1094
 11  7 29  2 40 30.0000000  0  8G10G17G29G12G04G25G05G02
 -22756353.78947 -19265831.75745  21259230.3444                   21259229.5234
 -57854322.79346 -45068356.91743  24313200.5554                   24313200.1374
  21829234.37946  17022632.98443  24362926.6884                   24362927.5204
 -20171120.57847 -15696200.73946  20650688.6024                   20650686.7154
 -39718230.85946 -30935675.91044  23040293.0004                   23040292.2664
   3142970.04347   2469323.58145  22342473.7664                   22342474.9694
 -14271491.12148 -11098880.59446  20589922.0634                   20589920.9414
 -35853371.24647 -27924989.25946  20679666.4694                   20679662.6524
 11  7 29  2 41  0.0000000  0  8G10G17G29G12G04G25G05G02
 -22764657.77047 -19272302.40245  21257650.5634                   21257649.1604
 -57844941.21146 -45061046.55543  24314986.0474                   24314985.1174
  21684567.48446  16909905.50243  24335397.0474                   24335398.0554
 -20238644.21947 -15748816.56246  20637839.2664                   20637837.6134
 -39698975.16446 -30920671.48444  23043957.2584                   23043956.7544
   3011703.97347   2367038.39445  22317494.5704                   22317496.0594
 -14384838.43048 -11187203.14446  20568352.9144                   20568351.7234
 -35894147.85248 -27956763.25046  20671906.9774                   20671903.1724
 11  7 29  2 41 30.0000000  0  8G10G17G29G12G04G25G05G02
 -22772386.89547 -19278325.12845  21256179.4224                   21256178.2034
 -57835340.61746 -45053565.68943  24316813.5634                   24316812.0234
  21539877.91046  16797160.43543  24307862.8914                   24307864.1844
 -20305543.84447 -15800946.15246  20625108.7894                   20625107.0044
 -39679678.75046 -30905635.29344  23047629.6024                   23047628.2664
   2880920.21947   2265129.01945  22292607.3054                   22292608.9534
 -14497617.62948 -11275083.01046  20546891.7734                   20546890.7464
 -35934697.84848 -27988360.67046  20664190.4694                   20664187.1254
 11  7 29  2 42  0.0000000  0  8G10G17G29G12G04G25G05G02
 -22779542.27047 -19283900.75845  21254817.9144                   21254816.5314
 -57825519.96946 -45045913.23243  24318682.2194                   24318681.5044
  21395167.83246  16684399.37343  24280326.4614                   24280327.1334
 -20371818.11347 -15852588.44446  20612497.2504                   20612495.4024
 -39660341.65646 -30890567.42144  23051308.7974                   23051309.1254
   2750622.33247   2163598.24745  22267812.7814                   22267814.2304
 -14609825.64548 -11362517.80746  20525539.0474                   20525537.9654
 -35975021.04747 -28019781.35246  20656517.5944                   20656513.4964
 11  7 29  2 42 30.0000000  0  8G10G17G29G12G04G25G05G02
 -21210703.92647 -18061429.32245  21553357.9534                   21553356.3134
 -56240058.05546 -43810488.37543  24620385.8674   24620384.9184   22825864.35146
  17799227.86243                  24552578.6804                   24552579.1174
 -18862042.57847 -14676139.97846  20899797.6484                   20899796.0474
 -38065543.64846 -29647867.69044  23354788.7344                   23354788.8754
   4196238.72747   3290052.62745  22542904.0234                   22542906.0354
 -13146035.50048 -10221902.08046  20804089.1254                   20804087.8794
 -34439695.02748 -26823423.41946  20948680.2664                   20948676.2934
 11  7 29  2 43  0.0000000  0  8G10G17G29G12G04G25G05G02
 -21216722.18747 -18066118.91045  21552212.9614                   21552211.1884
 -56229802.04746 -43802496.65143  24622337.1094   24622336.6524   22681110.77046
  17686432.97643                  24525033.7734                   24525033.8794
 -18927069.12547 -14726810.00146  20887423.5314                   20887421.9804
 -38046132.15246 -29632741.86643  23358482.0634                   23358482.0394
   4066915.32847   3189281.19845  22518294.7894                   22518296.0904
 -13257100.83648 -10308446.47646  20782954.0784                   20782952.4224
 -34479571.54748 -26854496.04446  20941091.8364                   20941088.3014
 11  7 29  2 43 30.0000000  0  8G10G17G29G12G04G25G05G02
 -21222173.09847 -18070366.37745  21551175.4844                   21551174.1214
 -56219326.57046 -43794333.94043  24624330.4304   24624329.9884   22536338.53046
  17573623.59343                  24497483.9224                   24497483.9384
 -18991469.55147 -14776992.14846  20875168.3364                   20875166.6454
 -38026682.70746 -29617586.54343  23362183.6254                   23362183.5554
   3938084.61347   3088893.68545  22493778.7584                   22493780.4144
 -13367590.62948 -10394542.38946  20761928.6024                   20761926.7894
 -34519224.28548 -26885394.27146  20933546.2664                   20933542.7664
 11  7 29  2 44  0.0000000  0  7G10G29G12G04G25G05G02
 -21227063.62947 -18074177.19545  21550244.8524   21550243.6484   22391543.57446
  17460796.39043                  24469930.5864                   24469930.2464
 -19055248.07847 -14826689.71046  20863032.2194                   20863030.4494
 -38007201.19146 -29602406.12843  23365892.0004                   23365890.2934
   3809744.15247   2988888.16845  22469356.4844                   22469357.8204
 -13477508.19548 -10480192.40946  20741011.5084                   20741010.4774
 -34558658.73847 -26916122.41246  20926042.3594                   20926038.6484
 11  7 29  2 44 30.0000000  0  7G10G29G12G04G25G05G02
 -21231394.37547 -18077551.79745  21549420.4924   21549419.3484   22246728.50446
  17347953.55343                  24442372.6884                   24442372.9024
 -19118403.01247 -14875901.34446  20851013.7734                   20851012.5164
 -37987686.63347 -29587199.96543  23369604.8524                   23369603.4384
   3681898.07047   2889267.90245  22445027.8364                   22445029.6054
 -13586850.07448 -10565393.85146  20720204.7894                   20720203.4264
 -34597874.01247 -26946679.73746  20918579.3444                   20918576.2854
 11  7 29  2 45  0.0000000  0  7G10G29G12G04G25G05G02
 -21235156.32447 -18080483.20745  21548704.8984   21548703.3674   22101904.98446
  17235104.15443                  24414813.3364                   24414813.9224
 -19180922.96147 -14924618.20146  20839116.8134                   20839115.0824
 -37968129.03547 -29571960.27843  23373326.3914                   23373325.7894
   3554559.53547   2790043.10045  22420796.4924                   22420797.7194
 -13695603.75048 -10650136.95746  20699509.6024                   20699508.0744
 -34636860.31647 -26977058.66046  20911160.9224                   20911157.2814
 11  7 29  2 45 30.0000000  0  7G10G29G12G04G25G05G02
 -21238346.73447 -18082969.25545  21548097.7734   21548096.2074   21957078.76246
  17122252.70543                  24387253.9844                   24387253.8444
 -19242802.87147 -14972836.30246  20827341.5394                   20827339.7034
 -37948524.16047 -29556683.74543  23377056.8914                   23377056.4344
   3427735.80547   2691219.46845  22396662.9924                   22396664.1294
 -13803763.19948 -10734417.02546  20678927.7974                   20678926.1524
 -34675614.00447 -27007256.32946  20903785.9844                   20903782.5274
 11  7 29  2 46  0.0000000  0  7G10G29G12G04G25G05G02
 -21240970.43447 -18085013.69445  21547598.6804   21547596.8674   21812247.91446
  17009397.53543                  24359693.5554                   24359693.5274
 -19304044.90248 -15020557.35146  20815687.7034                   20815685.7774
 -37928875.75047 -29541373.30843  23380796.3444                   23380795.3714
   3301426.47747   2592796.63945  22372626.7504                   22372627.8834
 -13911329.68048 -10818235.03046  20658458.5234                   20658456.9774
 -34714138.11748 -27037275.07346  20896455.2034                   20896451.5904
 11  7 29  2 46 30.0000000  0  7G10G29G12G04G25G05G02
 -21243033.85547 -18086621.57845  21547205.5784   21547204.2894   21667409.26646
  16896536.36243                  24332131.2894                   24332131.2504
 -19364653.41447 -15067784.76246  20804153.9454                   20804152.8754
 -37909188.44546 -29526032.56544  23384542.5004                   23384541.5984
   3175629.74647   2494773.24145  22348688.5474                   22348689.5274
 -14018305.39148 -10901592.70446  20638101.5704                   20638100.0944
 -34752437.53548 -27067118.72946  20889167.2114                   20889163.6524
 11  7 29  2 47  0.0000000  0  7G10G29G12G04G25G05G02
 -21244541.30147 -18087796.22245  21546918.8754   21546917.6604   21522560.98046
  16783667.62843                  24304567.7664                   24304568.0474
 -19424630.66447 -15114520.28246  20792741.0164                   20792738.8914
 -37889465.67646 -29510664.23043  23388295.1644                   23388295.1214
   3050345.46547   2397149.15445  22324847.7274                   22324848.4104
 -14124691.62548 -10984491.05846  20617856.7114                   20617855.6684
 -34790515.64148 -27096789.94546  20881920.8914                   20881917.5664
 11  7 29  2 47 30.0000000  0  7G10G29G12G04G25G05G02
 -21245491.80547 -18088536.89345  21546738.2034   21546736.5864   21377707.58646
  16670794.95843                  24277002.9304                   24277003.3164
 -19483973.23447 -15160761.23246  20781448.1484                   20781446.6174
 -37869704.71546 -29495266.13444  23392055.2344                   23392055.5554
   2925579.31647   2299928.81945  22301105.4534                   22301106.2114
 -14230483.34048 -11066926.13646  20597725.5634                   20597723.8364
 -34828369.57448 -27126286.45046  20874717.2194                   20874713.8204
 11  7 29  2 48  0.0000000  0  7G10G29G12G04G25G05G02
 -21245893.78147 -18088850.14145  21546661.4534   21546660.3164   21232843.83246
  16557914.24343                  24249436.2114                   24249436.4264
 -19542686.79747 -15206512.04946  20770275.6254                   20770273.6884
 -37849912.68046 -29479843.91043  23395822.3134                   23395822.7544
   2801327.40647   2203109.17845  22277460.8054                   22277461.6954
 -14335685.75848 -11148902.02146  20577706.1094                   20577704.7624
 -34866007.03548 -27155614.28646  20867555.5864                   20867552.1524
 11  7 29  2 48 30.0000000  0  7G10G29G12G04G25G05G02
 -21245752.03947 -18088739.70745  21546688.7034   21546687.6954   21087967.71946
  16445023.83943                  24221866.5634                   24221867.6684
 -19600773.89147 -15251774.71346  20759221.8834                   20759220.2194
 -37830092.59446 -29464399.67943  23399593.8284                   23399594.3134
   2677589.35947   2106689.94345  22253914.5084                   22253915.5824
 -14440299.98848 -11230419.57946  20557798.4304                   20557797.0514
 -34903431.23448 -27184775.94046  20860433.6644                   20860430.1764
 11  7 29  2 49  0.0000000  0  7G10G29G12G04G25G05G02
 -21245068.30547 -18088206.92445  21546818.7344   21546817.1684   20943080.78946
  16332125.06843                  24194296.0004                   24194295.9614
 -19658233.68047 -15296548.57146  20748287.5474                   20748285.8134
 -37810244.62147 -29448933.69644  23403371.3284                   23403370.3244
   2554368.09447   2010673.37645  22230466.1564                   22230467.2034
 -14544323.85248 -11311477.11546  20538003.3594                   20538002.2894
 -34940642.34448 -27213771.52346  20853352.5084                   20853349.1804
 11  7 29  2 49 30.0000000  0  7G10G29G12G04G25G05G02
 -21243845.27747 -18087253.92245  21547051.5004   21547050.4414   20798183.60546
  16219218.32143                  24166723.0944                   24166722.7464
 -19715067.18047 -15340834.41846  20737472.5554                   20737470.9454
 -37790370.26647 -29433447.21243  23407153.0704                   23407152.6054
   2431665.38347   1915060.91845  22207116.6254                   22207117.5704
 -14647756.47748 -11392073.94246  20518320.9694                   20518319.3794
 -34977641.50848 -27242601.96646  20846311.8284                   20846308.2274
 11  7 29  2 50  0.0000000  0  7G10G29G12G04G25G05G02
 -21242087.17647 -18085883.97545  21547386.1094   21547384.9614   20653274.73846
  16106302.45843                  24139147.4384                   24139147.2464
 -19771276.19947 -15384633.64646  20726776.2504                   20726774.7384
 -37770472.08247 -29417942.14643  23410940.0704                   23410938.8524
   2309481.38347   1819852.63045  22183865.8754                   22183866.9494
 -14750598.66448 -11472210.69046  20498750.7194                   20498749.2584
 -35014431.84048 -27271269.68046  20839310.6724                   20839307.1724
 11  7 29  2 50 30.0000000  0  7G10G29G12G04G25G05G02
 -21239795.26647 -18084098.10945  21547822.1484   21547820.8484   20508356.73046
  15993379.44343                  24111570.5864                   24111570.6724
 -19826859.43448 -15427945.25346  20716199.2274                   20716197.0044
 -37750549.62946 -29402418.14543  23414730.6254                   23414729.5634
   2187819.34047   1725051.06045  22160713.7194                   22160715.2384
 -14852848.03548 -11551885.50346  20479293.4534                   20479291.9304
 -35051012.72748 -27299774.20846  20832349.6564                   20832345.9574
 11  7 29  2 51  0.0000000  0  7G10G29G12G04G25G05G02
 -21236975.25047 -18081900.69145  21548358.8204   21548357.6024   20363426.87946
  15880447.20243                  24083990.8914                   24083991.0474
 -19881820.71148 -15470772.21246  20705740.3204                   20705738.5084
 -37730607.43446 -29386878.78343  23418525.1884                   23418523.9184
   2066677.94947   1630655.19645  22137661.3524                   22137662.5824
 -14954507.12148 -11631100.34446  20459948.4454                   20459946.7664
 -35087388.72748 -27328119.06446  20825427.1024                   20825423.8134
 11  7 29  2 51 30.0000000  0  7G10G29G12G04G25G05G02
 -21233627.94147 -18079292.41945  21548995.7664   21548994.5124   20218487.70346
  15767507.72443                  24056410.7114                   24056410.5044
 -19936158.08647 -15513113.02746  20695400.2814                   20695398.7074
 -37710643.90246 -29371322.83343  23422324.5634                   23422323.2304
   1946061.11747   1536668.09145  22114708.7664                   22114709.8754
 -15055572.43048 -11709852.52046  20440716.1804                   20440714.5944
 -35123559.02748 -27356303.64946  20818544.4844                   20818540.6994
 11  7 29  2 52  0.0000000  0  7G10G29G12G04G25G05G02
 -21229755.86747 -18076275.22345  21549732.7734   21549731.3164   20073539.72346
  15654561.36343                  24028827.0554                   24028827.5044
 -19989872.48447 -15554968.40046  20685178.7344                   20685177.1884
 -37690660.59046 -29355751.36643  23426127.0084                   23426125.9614
   1825970.55147   1443091.04545  22091856.6414                   22091857.5354
 -15156043.55948 -11788141.68646  20421597.1644                   20421595.3914
 -35159524.39148 -27384328.53946  20811700.3284                   20811696.6294
 11  7 29  2 52 30.0000000  0  7G10G29G12G04G25G05G02
 -21225359.16047 -18072849.22845  21550569.5164   21550568.1484   19928586.51246
  15541610.95443                  24001243.5864                   24001243.2974
 -20042961.25447 -15596336.27946  20675076.4924                   20675074.8594
 -37670655.66846 -29340163.18043  23429934.2584                   23429933.2384
   1706410.84447   1349927.66145  22069105.1724                   22069106.2854
 -15255916.88748 -11865965.05346  20402592.1484                   20402590.4104
 -35195283.43448 -27412192.67646  20804895.5554                   20804891.8164
 11  7 29  2 53  0.0000000  0  7G10G29G12G04G25G05G02
 -21220443.48047 -18069018.84545  21551505.0234   21551503.3984   19783625.57046
  15428654.51343                  23973657.6414                   23973658.1214
 -20095427.82447 -15637219.32546  20665092.4614                   20665090.6644
 -37650633.18046 -29324561.21643  23433744.2814                   23433744.1254
   1587380.85947   1257177.06245  22046454.3284                   22046455.9574
 -15355194.43748 -11943324.16746  20383699.9694                   20383698.5784
 -35230840.12148 -27439899.12146  20798129.3054                   20798125.9884
 11  7 29  2 53 30.0000000  0  7G10G29G12G04G25G05G02
 -21215011.78547 -18064786.37245  21552538.1724   21552537.2934   19638657.02346
  15315692.14043                  23946071.7504                   23946071.5944
 -20147273.07848 -15677618.22646  20655226.3674                   20655224.7504
 -37630594.51646 -29308946.70644  23437557.1644                   23437557.1914
   1468881.79747   1164840.17345  22023904.5784                   22023905.9844
 -15453875.85548 -12020218.75946  20364921.7114                   20364920.0784
 -35266196.38748 -27467449.40546  20791401.5084                   20791397.5354
 11  7 29  2 54  0.0000000  0  7G10G29G12G04G25G05G02
 -21209066.44147 -18060153.63945  21553669.9694   21553668.0784   19493682.15646
  15202724.77343                  23918483.8834                   23918483.9964
 -20198497.43448 -15717533.31146  20645479.1414                   20645477.0864
 -37610540.08646 -29293319.88243  23441373.7424                   23441372.8324
   1350915.93847   1072918.75745  22001456.2114                   22001457.8164
 -15551960.02348 -12096647.97146  20346256.5554                   20346255.0084
 -35301352.74247 -27494843.93446  20784711.3054                   20784707.6804
 11  7 29  2 54 30.0000000  0  7G10G29G12G04G25G05G02
 -21202610.09847 -18055122.74745  21554898.1334   21554897.0004   19348701.42746
  15089752.91843                  23890894.5474                   23890895.1564
 -20249101.16448 -15756964.79846  20635849.5004                   20635847.6174
 -37590470.91447 -29277681.55843  23445192.6334                   23445191.7384
   1233484.96947    981414.12745  21979110.2344                   21979111.4064
 -15649445.75848 -12172610.88146  20327706.0864                   20327704.2464
 -35336310.28148 -27522083.55246  20778059.1564                   20778055.0984
 11  7 29  2 55  0.0000000  0  7G10G29G12G04G25G05G02
 -19620226.71547 -16822096.75545  21856016.0784   21856014.3954   20779139.98846
  16204380.40543                  24163097.6884                   24163098.8524
 -18723664.15648 -14568312.57646  20926130.4924                   20926128.4184
 -35994969.44946 -28034433.64843  23748806.4534                   23748805.7624
   2692013.70747   2117930.05445  22256659.2194                   22256660.1484
 -14170910.75448 -11020505.66646  20609061.9064                   20609060.0944
 -33795649.59848 -26321568.68846  21071237.1884                   21071233.3834
 11  7 29  2 55 30.0000000  0  7G10G29G12G04G25G05G02
 -19612758.57847 -16816277.44645  21857437.2814   21857435.6604   20634148.23046
  16091399.83443                  24135506.8284                   24135507.1024
 -18773030.44148 -14606779.82146  20916736.1954                   20916734.4024
 -35974875.39546 -28018775.98543  23752630.6024                   23752629.4494
   2575655.96947   2027261.72445  22234516.7584                   22234517.9494
 -14267200.30147 -11095536.48046  20590738.3914                   20590736.5474
 -33830214.37947 -26348502.26646  21064659.3674                   21064655.7734
 11  7 29  2 56  0.0000000  0  7G10G29G12G04G25G05G02
 -19604788.11347 -16810066.70745  21858953.7344   21858952.2704   20489152.18446
  15978416.00143                  24107914.8754                   24107915.0234
 -18821778.58648 -14644765.38246  20907459.6804                   20907458.0514
 -35954770.14546 -28003109.58943  23756455.9774                   23756455.2034
   2459837.64547   1937013.70245  22212477.4304                   22212478.5084
 -14362890.16847 -11170100.01046  20572529.1094                   20572527.5704
 -33864584.32047 -26375284.04546  21058118.9064                   21058115.1294
 11  7 29  2 56 30.0000000  0  7G10G29G12G04G25G05G02
 -19596317.71947 -16803466.42045  21860565.9774   21860564.2584   20344153.21546
  15865429.82143                  24080323.0704                   24080322.5944
 -18869908.51248 -14682269.23546  20898301.0554                   20898298.8674
 -35934653.72346 -27987434.44243  23760284.1644                   23760283.0514
   2344561.16448   1847187.91245  22190540.6024                   22190542.2074
 -14457979.03147 -11244195.21446  20554434.3524                   20554432.8244
 -33898759.33647 -26401913.92646  21051616.1884                   21051612.1644
 11  7 29  2 57  0.0000000  0  7G10G29G12G04G25G05G02
 -19587347.40647 -16796476.56145  21862272.8134   21862271.1524   20199154.92246
  15752444.19543                  24052730.5084                   24052730.3714
 -18917417.93448 -14719289.57146  20889260.0234                   20889258.5314
 -35914524.35946 -27971749.24243  23764114.5864                   23764114.0474
   2229830.98047   1757787.80445  22168708.0634                   22168709.3794
 -14552463.84447 -11317819.74746  20536454.0474                   20536452.9414
 -33932737.82447 -26428390.66046  21045149.9924                   21045146.6254
 11  7 29  2 57 30.0000000  0  7G10G29G12G04G25G05G02
 -19577879.14147 -16789098.71245  21864074.4614   21864072.9574   20054158.85546
  15639460.27343                  24025138.5784                   24025138.4454
 -18964307.21148 -14755826.67446  20880337.4384                   20880335.7704
 -35894382.14146 -27956054.00543  23767947.5634                   23767946.9344
   2115649.35547   1668815.11445  22146980.2034                   22146981.0474
 -14646342.60948 -11390972.02846  20518589.8284                   20518588.5004
 -33966520.46548 -26454714.79546  21038721.2734                   21038717.3634
 11  7 29  2 58  0.0000000  0  7G10G29G12G04G25G05G02
 -19567914.31647 -16781333.92445  21865970.9844   21865969.3754   19909166.81646
  15526479.50643                  23997547.0944                   23997547.4454
 -19010575.68748 -14791880.02846  20871532.8524                   20871531.2274
 -35874227.01646 -27940348.78643  23771782.8984                   23771782.8364
   2002019.14547   1580272.13145  22125357.2424                   22125358.1024
 -14739614.12147 -11463651.12646  20500840.7424                   20500839.5704
 -34000107.05147 -26480886.16846  21032330.0084                   21032326.4184
 11  7 29  2 58 30.0000000  0  7G10G29G12G04G25G05G02
 -19557459.16047 -16773187.05045  21867960.3284   21867958.5164   19764176.53946
  15413500.10943                  23969956.4614                   23969956.4774
 -19056227.48848 -14827452.86646  20862845.8524                   20862843.7894
 -35854062.63746 -27924636.28043  23775620.5554                   23775619.5234
   1888938.92647   1492157.70345  22103838.7584                   22103839.8324
 -14832280.57447 -11535858.74246  20483206.8984                   20483205.5044
 -34033501.41847 -26506907.76346  21025975.2424                   21025971.3834
 11  7 29  2 59  0.0000000  0  7G10G29G12G04G25G05G02
 -19546518.10247 -16764661.55545  21870041.9924   21870040.8634   19619186.82846
  15300521.11143                  23942366.2734                   23942365.9184
 -19101265.01648 -14862547.05546  20854275.3444                   20854273.0044
 -35833891.74646 -27908918.74843  23779459.4844                   23779458.5164
   1776408.55547   1404471.71645  22082424.8054                   22082425.7274
 -14924342.99647 -11607595.69646  20465688.3914                   20465686.3554
 -34066706.63747 -26532781.96246  21019656.7114                   21019652.9104
 11  7 29  2 59 30.0000000  0  7G10G29G12G04G25G05G02
 -19535093.54347 -16755759.32145  21872216.1094   21872215.0004   19474199.00046
  15187543.60844                  23914775.5634                   23914775.5824
 -19145688.46948 -14897162.72446  20845821.8524                   20845819.8834
 -35813715.18046 -27893196.77143  23783298.8364                   23783298.2814
   1664429.77347   1317215.54545  22061115.9614                   22061116.9184
 -15015800.87947 -11678861.57846  20448284.4144                   20448282.7274
 -34099723.29747 -26558509.24346  21013373.6094                   21013370.1024
 11  7 29  3  0  0.0000000  0  7G10G29G12G04G25G05G02
 -19523187.05947 -16746481.52545  21874482.0704   21874480.4654   19329215.25446
  15074569.25844                  23887186.4614                   23887185.9694
 -19189497.59048 -14931299.69346  20837485.0314                   20837483.5084
 -35793532.16446 -27877469.82443  23787138.6174                   23787139.0044
   1553005.52347   1230391.48445  22039912.5164                   22039913.6884
 -15106652.44547 -11749654.99946  20430996.0784                   20430994.4494
 -34132551.17647 -26584089.41746  21007126.8284                   21007123.1454
 11  7 29  3  0 30.0000000  0  7G10G29G12G04G25G05G02
 -19510798.76647 -16736828.28145  21876839.3054   21876837.9454   19184239.44946
  14961601.16944                  23859597.8594                   23859597.8244
 -19232690.40648 -14964956.43046  20829265.9224                   20829263.9774
 -35773340.67646 -27861736.20443  23790980.9924                   23790980.9414
   1442140.20347   1144002.95945  22018815.5474                   22018816.6604
 -15196894.17648 -11819973.23246  20413823.1334                   20413821.8244
 -34165188.49647 -26609521.11746  21000916.2504                   21000912.4494
 11  7 29  3  1  0.0000000  0  7G10G29G12G04G25G05G02
 -19497931.78547 -16726802.08345  21879288.3984   21879286.3204   19039271.84046
  14848639.42444                  23832012.2664                   23832011.6914
 -19275267.69548 -14998133.54846  20821163.6564                   20821161.8284
 -35753141.81246 -27845996.82343  23794824.8054                   23794824.8674
   1331835.23448   1058051.03945  21997825.2664                   21997826.1724
 -15286525.94548 -11889816.17046  20396767.0944                   20396765.3364
 -34197636.52048 -26634805.33446  20994741.6884                   20994737.9064
 11  7 29  3  1 30.0000000  0  7G10G29G12G04G25G05G02
 -19484591.38347 -16716406.95545  21881826.7664   21881824.5944   18894310.77046
  14735682.78744                  23804426.6804                   23804426.7854
 -19317232.68048 -15030833.53646  20813178.1334                   20813176.6024
 -35732938.80146 -27830254.32443  23798669.5394                   23798669.2584
   1222089.56648    972534.95745  21976941.3674                   21976942.3524
 -15375550.11348 -11959185.64946  20379826.2274                   20379824.9884
 -34229898.48848 -26659944.53246  20988602.2584                   20988598.7584
 11  7 29  3  2  0.0000000  0  7G10G29G12G04G25G05G02
 -19470779.50847 -16705644.46345  21884455.1414   21884453.4844   18749358.14147
  14622732.73544                  23776842.9614                   23776842.8554
 -19358586.12948 -15063057.00746  20805308.7194                   20805307.3484
 -35712731.78946 -27814508.55543  23802515.3524                   23802514.1484
   1112905.49647    887456.48245  21956164.7344                   21956165.1134
 -15463964.45748 -12028079.93346  20363001.7344                   20363000.1484
 -34261974.87548 -26684939.12446  20982498.2664                   20982494.5084
 11  7 29  3  2 30.0000000  0  7G10G29G12G04G25G05G02
 -19456500.35547 -16694517.85545  21887172.5084   21887170.6524   18604413.12146
  14509788.59744                  23749261.1484                   23749260.4884
 -19399329.87948 -15094805.38346  20797555.1724                   20797553.6374
 -35692522.84946 -27798761.42743  23806359.9224                   23806359.5864
   1004283.07847    802815.67045  21935493.8984                   21935495.0634
 -15551770.73448 -12096500.39946  20346292.7274                   20346291.1174
 -34293867.89148 -26709790.83246  20976429.4844                   20976425.6454
 11  7 29  3  3  0.0000000  0  7G10G29G12G04G25G05G02
 -19441752.74247 -16683026.19345  21889978.6484   21889977.2974   18459480.55946
  14396854.21343                  23721680.8524                   23721680.9144
 -19439461.29348 -15126076.61146  20789918.4924                   20789916.7344
 -35672308.85246 -27783010.21343  23810207.4384                   23810205.5594
    896227.87147    718616.82345  21914931.9924                   21914933.0944
 -15638964.38748 -12164443.48046  20329700.0394                   20329698.6374
 -34325574.18748 -26734497.07046  20970395.6724                   20970392.2704
 11  7 29  3  3 30.0000000  0  7G10G29G12G04G25G05G02
 -19426540.07447 -16671172.17945  21892873.7584   21892872.1524   18314560.94146
  14283929.85244                  23694103.1884                   23694103.8164
 -19478981.76648 -15156871.79146  20782397.7734                   20782396.3364
 -35652090.86346 -27767255.94143  23814054.2974                   23814053.3754
    788740.86347    634860.73245  21894478.0234                   21894478.9414
 -15725545.67648 -12231909.41246  20313224.4454                   20313222.9654
 -34357095.39148 -26759059.06546  20964397.4224                   20964393.6094
 11  7 29  3  4  0.0000000  0  7G10G29G12G04G25G05G02
 -19410865.62947 -16658958.32645  21895856.2194   21895854.5514   18169654.72346
  14171016.03744                  23666529.0784                   23666528.7934
 -19517892.39148 -15187191.75846  20774993.5234                   20774991.8594
 -35631870.07446 -27751499.46443  23817902.0704                   23817901.3244
    681822.98047    551548.12445  21874132.2034                   21874133.2704
 -15811514.55148 -12298898.11546  20296864.9844                   20296863.8054
 -34388432.95748 -26783477.96846  20958434.0864                   20958430.5744
 11  7 29  3  4 30.0000000  0  7G10G29G12G04G25G05G02
 -19394731.82047 -16646386.51445  21898926.4614   21898924.9964   18024763.84046
  14058114.10444                  23638957.2974                   23638956.8674
 -19556193.66848 -15217036.90646  20767705.1414                   20767703.3164
 -35611646.75046 -27735741.02643  23821750.2194                   23821750.4414
    575476.30547    468680.61145  21853895.0084                   21853895.8794
 -15896870.25448 -12365409.01846  20280622.1414                   20280620.9884
 -34419587.23047 -26807754.04046  20952505.7814                   20952501.8484
 11  7 29  3  5  0.0000000  0  7G10G29G12G04G25G05G02
 -19378141.85947 -16633459.29045  21902083.2734   21902081.7424   17879888.80946
  13945224.52244                  23611387.6884                   23611388.1334
 -19593886.98848 -15246408.33346  20760532.3834                   20760530.8164
 -35591421.71946 -27719981.27743  23825599.2974                   23825599.0944
    469701.97348    386259.06545  21833766.7274                   21833767.9344
 -15981612.48048 -12431441.90146  20264496.2504                   20264495.0124
 -34450559.45747 -26831888.26546  20946611.7344                   20946608.3014
 11  7 29  3  5 30.0000000  0  7G10G29G12G04G25G05G02
 -19361095.76247 -16620176.59745  21905327.1174   21905325.7034   17735033.22746
  13832350.12044                  23583823.3914                   23583823.2934
 -19630970.54748 -15275304.60746  20753475.7734                   20753473.8204
 -35571193.07046 -27704218.72543  23829448.0944                   23829448.4574
    364504.21948    304286.82845  21813748.2194                   21813749.8794
 -16065738.20348 -12496994.35546  20248488.0634                   20248486.3554
 -34481347.46147 -26855878.92946  20940753.1484                   20940749.6564
 11  7 29  3  6  0.0000000  0  7G10G29G12G04G25G05G02
 -19343599.84847 -16606543.41845  21908656.3204   21908655.0824   17590194.13346
  13719488.54544                  23556261.1414                   23556261.0474
 -19667449.32448 -15303729.65246  20746534.0554                   20746532.6914
 -35550964.91846 -27688456.58843  23833298.1254                   23833297.0554
    259880.66048    222762.00646  21793839.0164                   21793840.1414
 -16149251.19548 -12562069.37946  20232596.0944                   20232594.3484
 -34511956.00047 -26879729.75246  20934928.3984                   20934924.9264
 11  7 29  3  6 30.0000000  0  7G10G29G12G04G25G05G02
 -19325655.39847 -16592560.71445  21912071.4694   21912069.6914   17445374.61746
  13606642.19444                  23528703.0554                   23528702.6294
 -19703322.12548 -15331682.49746  20739707.6174                   20739706.0824
 -35530736.57446 -27672694.18343  23837147.1884                   23837147.0164
    155834.39548    141686.99546  21774039.4844                   21774040.7034
 -16232149.21148 -12626665.17646  20216820.5704                   20216819.0124
 -34542384.47747 -26903440.27246  20929138.3754                   20929134.5904
 11  7 29  3  7  0.0000000  0  7G10G29G12G04G25G05G02
 -19307266.68047 -16578231.83145  21915570.3984   21915569.1174   17300574.06347
  13493810.67944                  23501148.5394                   23501147.7624
 -19738591.79748 -15359165.35246  20732995.9064                   20732994.5204
 -35510509.44546 -27656932.85343  23840995.8834                   23840996.7234
     52365.58248     61061.97545  21754349.9844                   21754351.0984
 -16314432.97348 -12690782.32546  20201162.5234                   20201160.7894
 -34572634.65248 -26927011.83246  20923382.0164                   20923377.9924
 11  7 29  3  7 30.0000000  0  7G10G29G12G04G25G05G02
 -17713016.01247 -15335958.60345  22218946.5004   22218944.7304   18731220.00847
  14608599.80044                  23773391.2344                   23773390.6254
 -18197836.94148 -14158577.17446  21026192.0704                   21026190.3754
 -33914863.81646 -26413572.59043  24144637.6644                   24144637.5004
   1524900.28147   1208491.63746  22034564.4144                   22034565.1884
 -14820678.73048 -11526817.93046  20485414.3524                   20485412.8754
 -33027285.17248 -25722843.42246  21217452.0394                   21217448.3524
 11  7 29  3  8  0.0000000  0  7G10G29G12G04G25G05G02
 -17693744.62947 -15320941.95745  22222613.4774   22222612.2344   18586463.68047
  14495802.72444                  23745844.8054                   23745844.5434
 -18231900.82848 -14185120.46546  21019709.9614                   21019707.9064
 -33894638.98846 -26397813.05543  24148486.1954                   24148485.8794
   1422592.87547   1128771.60045  22015095.6564                   22015096.8754
 -14901731.79748 -11589976.08746  20469990.5004                   20469989.2624
 -33057178.97748 -25746137.29646  21211763.3914                   21211759.7034
 11  7 29  3  8 30.0000000  0  7G10G29G12G04G25G05G02
 -17674039.51247 -15305587.33744  22226362.9304   22226361.7734   18441727.52047
  14383021.36244                  23718302.5944                   23718302.1804
 -18265367.33247 -14211198.27646  21013341.4144                   21013339.5984
 -33874419.71946 -26382057.75643  24152334.1954                   24152333.3014
   1320864.69948   1049502.92746  21995737.8364                   21995738.3754
 -14982172.58248 -11652657.13646  20454683.0084                   20454681.6294
 -33086899.25048 -25769295.96546  21206107.5554                   21206103.8874
 11  7 29  3  9  0.0000000  0  7G10G29G12G04G25G05G02
 -17653904.35547 -15289897.62044  22230194.5944   22230193.4224   18297012.07846
  14270256.22744                  23690763.8984                   23690762.8794
 -18298237.80548 -14236811.62646  21007086.2424                   21007084.6254
 -33854206.91046 -26366307.51743  24156180.9774                   24156179.7114
   1219716.56647    970686.21846  21976489.6804                   21976490.5664
 -15062001.34448 -11714861.28846  20439492.2274                   20439490.5164
 -33116447.42248 -25792320.51746  21200485.3054                   21200481.4964
 11  7 29  3  9 30.0000000  0  7G10G29G12G04G25G05G02
 -17633340.23846 -15273873.64444  22234107.4614   22234106.3134   18152319.98846
  14157509.17144                  23663230.1724                   23663229.2734
 -18330511.92248 -14261960.30946  21000945.2734                   21000943.0904
 -33833999.85946 -26350561.79343  24160025.8754                   24160025.1094
   1119151.30947    892323.69545  21957352.7034                   21957353.5784
 -15141216.57048 -11776587.36846  20424417.5004                   20424416.5124
 -33145822.42647 -25815210.14746  21194895.0554                   21194891.0904
 11  7 29  3 10  0.0000000  0  7G10G29G12G04G25G05G02
 -17612351.95747 -15257519.16944  22238102.2034   22238100.6094   18007650.74246
  14044779.99744                  23635699.8524                   23635699.0274
 -18362192.56647 -14286646.52146  20994916.2194                   20994914.3794
 -33813800.64146 -26334822.11743  24163869.4844                   24163868.8594
   1019168.48048    814415.02546  21938326.8674                   21938327.2584
 -15219819.74648 -11837836.54046  20409460.0554                   20409458.4844
 -33175027.03147 -25837966.98146  21189337.5864                   21189334.0634
 11  7 29  3 10 30.0000000  0  7G10G29G12G04G25G05G02
 -17590942.22747 -15240836.23344  22242176.0554   22242174.8324   17863005.12147
  13932069.19244                  23608174.8594                   23608174.0474
 -18393281.37148 -14310871.57546  20989000.4694                   20988998.8524
 -33793610.04346 -26319089.19343  24167711.5704                   24167710.9694
    919769.08248    736960.95246  21919411.5164                   21919412.2624
 -15297810.99247 -11898608.88346  20394618.9774                   20394617.5234
 -33204062.37148 -25860591.93246  21183812.4304                   21183809.0394
 11  7 29  3 11  0.0000000  0  7G10G29G12G04G25G05G02
 -17569113.89147 -15223827.15044  22246329.9224   22246328.5084   17718384.84846
  13819378.13044                  23580654.0864                   23580653.8874
 -18423779.14547 -14334636.07846  20983196.9144                   20983194.9064
 -33773428.25046 -26303363.14842  24171552.0314                   24171551.5634
    820954.87948    659962.90145  21900607.8204                   21900608.5824
 -15375189.78948 -11958903.99046  20379894.3054                   20379892.9454
 -33232928.39148 -25883084.94646  21178319.4614                   21178315.7274
 11  7 29  3 11 30.0000000  0  7G10G29G12G04G25G05G02
 -17546869.97347 -15206494.19244  22250562.8364   22250561.5704   17573790.45746
  13706707.23844                  23553138.8834                   23553138.4104
 -18453687.19148 -14357941.05346  20977505.2344                   20977504.2074
 -33753255.99646 -26287644.55543  24175390.9144                   24175390.5944
    722726.62148    583421.42846  21881915.5784                   21881916.3554
 -15451956.49248 -12018722.15346  20365285.8054                   20365284.2854
 -33261626.57448 -25905447.17246  21172858.2194                   21172854.9614
 11  7 29  3 12  0.0000000  0  7G10G29G12G04G25G05G02
 -17524212.14147 -15188838.80344  22254874.5084   22254872.8284   17429224.36746
  13594058.42644                  23525628.5474                   23525628.4454
 -18483005.95348 -14380786.85046  20971926.1884                   20971924.4494
 -33733092.74646 -26271932.94243  24179228.1724                   24179227.2114
    625086.66048    507338.36346  21863335.3204                   21863336.0944
 -15528109.93447 -12078062.44746  20350794.3914                   20350792.5204
 -33290156.39148 -25927678.20446  21167429.6024                   21167425.6024
 11  7 29  3 12 30.0000000  0  7G10G29G12G04G25G05G02
 -17501142.48447 -15170862.44944  22259264.5004   22259263.2074   17284688.78947
  13481433.38144                  23498125.0474                   23498124.0944
 -18511735.38348 -14403173.41646  20966459.0314                   20966457.4534
 -33712938.00446 -26256227.96543  24183062.9924                   24183062.5824
    528037.21948    431715.43946  21844867.1254                   21844867.9144
 -15603649.04747 -12136924.06046  20336419.7664                   20336417.9574
 -33318517.67648 -25949777.91746  21162032.3054                   21162028.6804
 11  7 29  3 13  0.0000000  0  7G10G29G12G04G25G05G02
 -17477663.53547 -15152567.16044  22263732.2504   22263730.7114   17140185.21146
  13368833.25344                  23470625.8914                   23470626.1134
 -18539877.19148 -14425102.10946  20961104.0554                   20961102.1094
 -33692792.02046 -26240529.75343  24186896.8754                   24186896.1914
    431579.64148    356553.72646  21826512.1804                   21826512.9534
 -15678574.15648 -12195307.21546  20322161.8364                   20322160.2544
 -33346710.50848 -25971746.35746  21156667.6804                   21156663.6804
 11  7 29  3 13 30.0000000  0  7G10G29G12G04G25G05G02
 -17453780.52347 -15133957.02544  22268277.4694   22268275.6844   16995712.80947
  13256257.42944                  23443134.1174                   23443133.8094
 -18567434.50848 -14446575.33946  20955859.7504                   20955858.3834
 -33672657.46146 -26224840.48943  24190728.2894                   24190727.8284
    335712.99248    281852.46146  21808269.0784                   21808269.8284
 -15752886.77048 -12253213.11646  20308020.4844                   20308018.6334
 -33374738.07848 -25993586.02746  21151333.9774                   21151330.1844
 11  7 29  3 14  0.0000000  0  7G10G29G12G04G25G05G02
 -17429497.26247 -15115035.00444  22272898.3364   22272896.5554   16851271.56646
  13143705.90644                  23415647.4304                   23415647.4614
 -18594409.48848 -14467594.80746  20950726.9304                   20950725.1644
 -33652535.55146 -26209161.12543  24194557.4924                   24194556.7504
    240437.35248    207611.74046  21790138.6414                   21790139.7344
 -15826588.02048 -12310642.64446  20293995.8834                   20293994.2974
 -33402602.00848 -26015298.18446  21146031.7894                   21146028.2074
 11  7 29  3 14 30.0000000  0  7G10G29G12G04G25G05G02
 -17404815.94147 -15095802.82744  22277594.8984   22277593.5234   16706863.25046
  13031180.00144                  23388167.4614                   23388167.5474
 -18620803.54748 -14488161.60046  20945704.1094                   20945702.6134
 -33632426.44946 -26193491.65243  24198384.0234                   24198383.6134
    145754.36347    133832.79345  21772121.3834                   21772122.1954
 -15899677.46948 -12367595.45046  20280087.3914                   20280085.3554
 -33430302.50047 -26036882.99146  21140760.2814                   21140756.7274
 11  7 29  3 15  0.0000000  0  7G10G29G12G04G25G05G02
 -17379734.07447 -15076258.52444  22282368.1254   22282366.4964   16562494.40646
  12918684.85444                  23360695.4694                   23360695.2584
 -18646612.48848 -14508272.46946  20940792.6334                   20940791.4534
 -33612325.23046 -26177828.50543  24202208.9304                   24202208.5864
     51670.32447     60520.57646  21754217.5234                   21754218.6174
 -15972150.28147 -12424067.76246  20266296.1804                   20266294.3134
 -33457835.01247 -26058336.90246  21135521.1724                   21135517.2384
 11  7 29  3 15 30.0000000  0  7G10G29G12G04G25G05G02
 -17354258.44147 -15056407.38444  22287215.8524   22287214.5634   16418162.50446
  12806218.50644                  23333229.6804                   23333229.5274
 -18671841.48448 -14527931.41646  20935992.1254                   20935990.5354
 -33592236.25846 -26162174.69843  24206032.3524                   24206030.9804
    -41817.47347    -12327.04145  21736427.5864                   21736428.3954
 -16044010.02347 -12480062.38346  20252622.0084                   20252620.0944
 -33485203.89548 -26079663.30746  21130313.1254                   21130309.5864
 11  7 29  3 16  0.0000000  0  7G10G29G12G04G25G05G02
 -17328392.12147 -15036251.82244  22292137.6724   22292136.4454   16273868.77347
  12693781.89444                  23305771.4774                   23305770.8404
 -18696492.38748 -14547139.92246  20931301.2814                   20931299.3554
 -33572159.90246 -26146530.76642  24209852.1954                   24209851.5204
   -134708.16447    -84709.36846  21718750.9224                   21718751.8204
 -16115257.23048 -12535579.67746  20239063.6724                   20239062.1174
 -33512409.92248 -26100862.81246  21125135.9224                   21125132.1454
 11  7 29  3 16 30.0000000  0  7G10G29G12G04G25G05G02
 -17302136.37547 -15015792.76244  22297133.7894   22297132.6844   16129615.82846
  12581377.08444                  23278320.8984                   23278320.7464
 -18720564.67248 -14565897.54246  20926720.3054                   20926718.4264
 -33552095.12946 -26130895.94142  24213670.0394                   24213669.7704
   -226999.23047   -156624.46046  21701188.5084                   21701189.3874
 -16185890.52348 -12590618.60646  20225622.8054                   20225620.9024
 -33539452.48448 -26121934.93246  21119989.5634                   21119986.2034
 11  7 29  3 17  0.0000000  0  7G10G29G12G04G25G05G02
 -17275498.37147 -14995035.90344  22302202.9064   22302201.9184   15985400.68447
  12469001.71944                  23250877.6724                   23250877.3674
 -18744064.91448 -14584209.42646  20922248.3204                   20922246.7304
 -33532046.65245 -26115273.75842  24217485.0554                   24217484.8954
   -318693.84847   -228074.81346  21683739.5234                   21683740.6844
 -16255914.25048 -12645182.55147  20212297.6094                   20212296.0314
 -33566336.27747 -26142883.33646  21114873.8444                   21114870.4884
 11  7 29  3 17 30.0000000  0  7G10G29G12G04G25G05G02
 -17248481.58647 -14973983.87444  22307343.9924   22307342.6844   15841224.23047
  12356656.46644                  23223441.9844                   23223441.1724
 -18766994.57048 -14602076.68446  20917884.8524                   20917883.3444
 -33512015.32845 -26099665.00042  24221297.0004                   24221296.7544
   -409791.61348   -299060.04746  21666403.9614                   21666405.0664
 -16325329.18748 -12699272.11047  20199088.7974                   20199086.8244
 -33593062.68748 -26163709.11346  21109788.2814                   21109784.5984
 11  7 29  3 18  0.0000000  0  7G10G29G12G04G25G05G02
 -17221084.25447 -14952635.32044  22312557.7734   22312556.2234   15697092.43047
  12244346.07944                  23196014.1644                   23196013.6644
 -18789350.37948 -14619496.80146  20913630.6254                   20913629.1254
 -33491996.93046 -26084066.25442  24225107.3284                   24225106.4104
   -500287.05548   -369575.97346  21649183.4454                   21649184.5744
 -16394130.80548 -12752883.75946  20185996.0704                   20185994.3484
 -33619627.60248 -26184409.04646  21104733.0554                   21104729.5354
 11  7 29  3 18 30.0000000  0  7G10G29G12G04G25G05G02
 -17193314.25847 -14930996.36644  22317842.0634   22317841.2234   15553001.78946
  12132067.73044                  23168595.0004                   23168594.3954
 -18811139.60548 -14636475.41046  20909484.3524                   20909482.8444
 -33471996.75046 -26068481.71942  24228912.8594                   24228911.5204
   -590184.01647   -439625.53146  21632076.2114                   21632077.7304
 -16462324.51248 -12806021.71747  20173019.2974                   20173017.6294
 -33646036.35547 -26204987.30046  21099707.6954                   21099703.8244
 11  7 29  3 19  0.0000000  0  8G10G26G29G12G04G25G05G02
 -17165173.14547 -14909068.23944  22323197.2194   22323195.5824
  28129306.89115                  24668351.438                    15408954.72746
  12019823.34344                  23141183.7504                   23141182.5824
 -18832361.77748 -14653012.17546  20905445.5234                   20905444.0944
 -33452013.74246 -26052910.57842  24232715.0234                   24232714.3714
   -679480.39148   -509207.12046  21615084.3984                   21615085.0554
 -16529909.41048 -12858685.26647  20160158.2114                   20160156.1954
 -33672288.55948 -26225443.55446  21094712.4614                   21094708.3954
 11  7 29  3 19 30.0000000  0  8G10G26G29G12G04G25G05G02
 -17136675.07047 -14886861.95244  22328620.2194   22328618.6054
  27973512.379 6                  24638705.133                    15264941.56646
  11907605.37544                  23113778.6024                   23113777.2464
 -18853030.15248 -14669117.39646  20901513.3594                   20901511.2424
 -33432059.56646 -26037361.91043  24236513.3364                   24236512.4774
   -768186.41048   -578328.67746  21598204.1024                   21598205.0904
 -16596896.93748 -12910883.34346  20147410.7114                   20147409.0394
 -33698395.96148 -26245786.98946  21089743.7664                   21089740.1334
 11  7 29  3 20  0.0000000  0  8G10G26G29G12G04G25G05G02
 -17107827.06247 -14864382.97644  22334109.8524   22334108.4734
  27817618.11746  21689860.52853  24609039.6724   24609039.1414   15120959.06347
  11795411.29544                  23086379.3834                   23086378.8404
 -18873150.55548 -14684795.64146  20897684.0554                   20897682.5004
 -33412138.91846 -26021839.37643  24240304.0704                   24240303.2584
   -856305.59047   -646992.95246  21581435.1564                   21581436.1564
 -16663291.76648 -12962619.55747  20134776.3914                   20134774.5274
 -33724363.49248 -26266021.42446  21084802.4694                   21084798.7704
 11  7 29  3 20 30.0000000  0  8G10G26G29G12G04G25G05G02
 -15503208.72347 -13614031.04944  22639458.5004   22639457.3244
  29237056.99646                  22795916.93744  24879150.0314   24879149.8674
  16552438.04346  12910849.53444  23358780.8984                   23358779.4734
 -17317299.48048 -13472444.16646  21193752.7274                   21193750.9804
 -31816828.28146 -24778740.17843  24543881.2194                   24543880.6564
    631590.36748    512406.52246  21864572.3054                   21864573.3204
 -15153667.16048 -11786288.68746  20422048.1484                   20422046.6174
 -32174766.16847 -25058542.99846  21379680.8594                   21379676.8014
 11  7 29  3 21  0.0000000  0  8G10G26G29G12G04G25G05G02
 -15473660.44947 -13591006.40644  22645081.6724   22645080.1604
  29080981.74246                  22674299.93543  24849449.5234   24849449.3094
  16408530.84046  12798714.11344  23331396.2194                   23331395.4534
 -17336319.47348 -13487264.94346  21190133.4304                   21190131.6454
 -31796966.26646 -24763263.25143  24547660.9224                   24547660.1174
    544656.53147    444665.89746  21848029.5864                   21848030.8164
 -15218867.91448 -11837094.46246  20409641.1884                   20409639.4264
 -32200446.06647 -25078553.30746  21374794.7424                   21374790.5354
 11  7 29  3 21 30.0000000  0  8G10G26G29G12G04G25G05G02
 -15443764.04347 -13567710.51444  22650770.4614   22650769.2814
  28924822.44546                  22552617.54044  24819733.1174   24819732.8364
  16264665.40246  12686611.23544  23304019.6334                   23304018.6374
 -17354789.61348 -13501657.27446  21186618.5864                   21186616.6994
 -31777131.71546 -24747807.76543  24551435.1334                   24551434.2774
    458318.95347    377389.87246  21831599.9534                   21831600.5824
 -15283470.38347 -11887434.03947  20397347.4384                   20397345.8484
 -32225980.85947 -25098450.54846  21369935.1484                   21369931.7234
 11  7 29  3 22  0.0000000  0  8G10G26G29G12G04G25G05G02
 -15413522.84047 -13544145.93944  22656525.4064   22656523.8754
  28768581.96146                  22430871.76443  24790002.0084   24790001.4614
  16120842.83246  12574541.76144  23276651.2504                   23276650.4694
 -17372711.79748 -13515622.61546  21183207.9454                   21183206.3364
 -31757325.48046 -24732374.40143  24555204.0864                   24555202.9734
    372577.93048    310578.70646  21815283.8134                   21815285.0824
 -15347475.03948 -11937307.79047  20385167.8594                   20385166.0084
 -32251371.53147 -25118235.49846  21365103.5314                   21365100.0314
 11  7 29  3 22 30.0000000  0  8G10G26G29G12G04G25G05G02
 -15382938.35247 -13520313.86444  22662345.4774   22662344.3014
  28612264.38746                  22309065.88543  24760256.0634   24760254.2274
  15977066.02746  12462507.95844  23249291.4774                   23249290.1174
 -17390086.38748 -13529161.28046  21179902.0704                   21179900.1214
 -31737546.40246 -24716962.12443  24558968.1174                   24558966.8524
    287435.67248    244234.09946  21799082.2814                   21799083.0594
 -15410880.78148 -11986714.85947  20373102.1884                   20373100.5744
 -32276617.33648 -25137907.56646  21360299.1644                   21360295.6054
 11  7 29  3 23  0.0000000  0  8G10G26G29G12G04G25G05G02
 -15352012.10947 -13496215.52344  22668230.5634   22668229.0234
  28455874.38345                  22187203.71243  24730493.8134   24730493.9024
  15833338.13346  12350512.26444  23221940.2274                   23221940.1134
 -17406913.64548 -13542273.43146  21176699.8204                   21176698.2704
 -31717793.30946 -24701570.12243  24562726.6644                   24562726.0514
    202894.41048    178357.82246  21782994.6724                   21782995.1884
 -15473686.86748 -12035654.64747  20361150.3984                   20361148.8444
 -32301717.14147 -25157465.86746  21355522.8204                   21355519.6564
 11  7 29  3 23 30.0000000  0  8G10G26G29G12G04G25G05G02
 -15320746.84447 -13471853.00944  22674180.3054   22674178.9224
  28299414.96546                  22065287.40143  24700721.9304   24700721.5434
  15689660.39147  12238555.61944  23194600.1254                   23194599.1334
 -17423195.52348 -13554960.63446  21173601.5394                   21173599.6724
 -31698066.26646 -24686198.53943  24566480.7194                   24566480.0354
    118954.72347    112950.29546  21767020.9844                   21767022.1994
 -15535893.66448 -12084127.46547  20349312.9534                   20349311.0474
 -32326671.48847 -25176910.82246  21350774.5314                   21350770.7584
 11  7 29  3 24  0.0000000  0  8G10G26G29G12G04G25G05G02
 -15289147.02747 -13447229.78544  22680193.5164   22680192.2624
  28142887.46146                  21943318.01143  24670935.9694   24670935.4224
  15546032.45747  12126637.80644  23167268.5084                   23167267.8324
 -17438935.25848 -13567225.37446  21170606.2974                   21170604.4344
 -31678367.40245 -24670848.77042  24570228.9064                   24570229.5004
     35615.66847     48010.79246  21751162.2274                   21751163.1524
 -15597503.80948 -12132135.35746  20337588.6094                   20337587.3954
 -32351482.79747 -25196244.31146  21346053.0394                   21346049.3014
 11  7 29  3 24 30.0000000  0  8G10G26G29G12G04G25G05G02
 -15257209.52046 -13422343.43044  22686270.8444   22686269.3324
  27986301.05146                  21821302.63043  24641138.4774   24641137.4774
  15402461.90647  12014764.72144  23139947.5704                   23139946.7934
 -17454128.59048 -13579064.33246  21167715.2034                   21167713.0514
 -31658690.41446 -24655516.12542  24573973.8134                   24573973.4734
    -47115.81648    -16455.28346  21735419.0084                   21735419.8014
 -15658510.97348 -12179673.38046  20325979.5004                   20325977.8754
 -32376145.05948 -25215461.65646  21341360.1414                   21341356.1294
 11  7 29  3 25  0.0000000  0  8G10G26G29G12G04G25G05G02
 -15224940.64547 -13397198.88044  22692411.4384   22692410.5664
  27829655.08646                  21699240.88342  24611328.9304   24611326.5824
  15258946.92247  11902934.92444  23112637.1804                   23112636.8134
 -17468780.87548 -13590481.71846  21164927.2194                   21164925.4104
 -31639039.74646 -24640203.94142  24577713.7734                   24577712.8134
   -129242.86348    -80450.38046  21719790.8284                   21719791.6294
 -15718919.67648 -12226745.09046  20314484.4064                   20314482.2974
 -32400662.59047 -25234566.22246  21336694.5164                   21336690.5044
 11  7 29  3 25 30.0000000  0  8G10G26G29G12G04G25G05G02
 -15192345.03947 -13371799.71444  22698613.7814   22698612.7774
  27672951.09047                  21577133.92243  24581509.4304   24581507.6994
  15115487.31346  11791148.28844  23085337.6334                   23085337.6094
 -17482895.89148 -13601480.44046  21162241.1564                   21162239.4024
 -31619416.94946 -24624913.44542  24581447.2584                   24581446.9344
   -210766.37548   -143975.18446  21704277.2814                   21704278.1564
 -15778731.96148 -12273352.04446  20303102.4454                   20303100.7234
 -32425037.19147 -25253559.42046  21332056.0004                   21332052.6804
 11  7 29  3 26  0.0000000  0  8G10G26G29G12G04G25G05G02
 -15159424.71947 -13346147.53244  22704879.1724   22704877.3094
  27516192.77046                  21454984.57842  24551679.9774   24551678.1374
  14972085.66046  11679406.77144  23058049.7584                   23058048.9844
 -17496474.05948 -13612060.84346  21159657.0004                   21159655.6844
 -31599821.31246 -24609644.12542  24585176.6484                   24585175.7384
   -291684.94948   -207028.59646  21688878.6804                   21688880.0004
 -15837947.57848 -12319494.06947  20291833.7194                   20291832.0124
 -32449269.07047 -25272441.39746  21327445.1564                   21327441.0234
 11  7 29  3 26 30.0000000  0  8G10G26G29G12G04G25G05G02
 -15126182.84847 -13320244.78944  22711204.6414   22711203.0704
  27359383.12546                  21332795.20342  24521839.3134   24521836.0594
  14828742.55147  11567710.90244  23030772.3054                   23030771.6844
 -17509517.95748 -13622224.91546  21157174.9534                   21157173.2774
 -31580253.58246 -24594396.61043  24588899.8674                   24588899.6254
   -371998.30148   -269610.41046  21673595.8444                   21673596.8484
 -15896567.53548 -12365171.93346  20280679.2664                   20280677.1884
 -32473358.79348 -25291212.60246  21322861.1024                   21322857.2774
 11  7 29  3 27  0.0000000  0  8G10G26G29G12G04G25G05G02
 -15092619.54747 -13294091.54844  22717591.3284   22717589.7114
  27202527.80146                  21210570.36342  24491991.1024   24491989.2704
  14685462.48046  11456064.16644  23003506.8914                   23003506.3014
 -17522026.46548 -13631971.81346  21154794.8914                   21154792.9344
 -31560711.00846 -24579168.65843  24592618.3914                   24592618.2114
   -451703.27748   -331718.17246  21658428.6884                   21658429.4884
 -15954589.79348 -12410384.06646  20269637.6644                   20269635.6644
 -32497304.00047 -25309871.21645  21318304.3984                   21318300.5594
 11  7 29  3 27 30.0000000  0  8G10G26G29G12G04G25G05G02
 -15058738.62547 -13267690.86744  22724038.5704   22724036.7584
  27045629.40646                  21088311.91943  24462134.4694   24462133.4804
  14542246.42647  11344467.31644  22976253.8754                   22976252.9064
 -17534002.79748 -13641304.01946  21152515.7894                   21152513.8054
 -31541194.66446 -24563961.17443  24596332.3204                   24596331.4694
   -530800.05948   -393352.01146  21643376.6174                   21643377.5984
 -16012015.91448 -12455131.67447  20258709.8204                   20258708.1334
 -32521106.14547 -25328418.35945  21313774.9064                   21313770.9804
 11  7 29  3 28  0.0000000  0  8G10G26G29G12G04G25G05G02
 -15024541.92246 -13241044.09944  22730545.8524   22730544.3634
                                                  24432266.3284   24432268.6134
  14399096.39847  11232921.92644  22949012.5704                   22949012.0704
 -17545447.60548 -13650222.05146  21150338.0314                   21150336.2624
 -31521704.17646 -24548773.78943  24600041.9224                   24600040.9884
   -609287.43748   -454511.00046  21628441.0164                   21628441.9494
 -16068845.85248 -12499414.72146  20247895.5784                   20247893.8754
 -32544764.60247 -25346853.51645  21309272.8054                   21309269.1214
 11  7 29  3 28 30.0000000  0  8G10G26G29G12G04G25G05G02
 -14990035.19546 -13214155.77244  22737112.4844   22737110.5904   26731713.66056
                                  20843702.57052  24402397.7344   24402397.5514
  14256011.20747  11121427.04144  22921784.7664                   22921784.0944
 -17556366.21148 -13658730.05846  21148260.1644                   21148258.4734
 -31502242.81246 -24533609.07943  24603745.0314                   24603745.0314
   -687168.07048   -515197.19846  21613621.0084                   21613621.9884
 -16125083.51648 -12543236.26046  20237193.9384                   20237192.1564
 -32568283.23447 -25365179.70746  21304797.7584                   21304793.8674
 11  7 29  3 29  0.0000000  0  8G10G26G29G12G04G25G05G02
 -14955215.79346 -13187023.75344  22743738.1804   22743736.2464   26574705.74646
                                  20721358.70443  24372520.6094   24372518.4184
  14112997.92647  11009988.22344  22894570.1334                   22894568.8134
 -17566754.57048 -13666824.88746  21146283.5004                   21146281.6094
 -31482804.71946 -24518462.46343  24607444.2274                   24607443.5084
   -764435.65648   -575405.69946  21598917.6094                   21598918.4224
 -16180723.18747 -12586591.83946  20226606.0944                   20226604.0164
 -32591656.46147 -25383392.62346  21300349.5084                   21300345.8444
 11  7 29  3 29 30.0000000  0  8G10G26G29G12G04G25G05G02
 -14920091.85246 -13159654.43644  22750423.0234   22750420.6524   26417665.14145
                                  20598989.47643  24342635.0944   24342635.7814
  13970053.28947  10898602.89644  22867368.9454                   22867367.7854
 -17576620.09848 -13674512.31246  21144406.0234                   21144404.2344
 -31463395.55946 -24503338.46943  24611137.3134                   24611137.0394
   -841095.10548   -635140.33146  21584329.3914                   21584330.4924
 -16235771.49647 -12629486.60746  20216130.5474                   20216128.8554
 -32614890.06647 -25401496.71946  21295928.3754                   21295924.3054
 11  7 29  3 30  0.0000000  0  8G10G26G29G12G04G25G05G02
 -14884662.94546 -13132047.48044  22757164.1334   22757162.0634   26260598.06646
                                  20476599.64643  24312747.7734   24312747.0474
  13827181.75047  10787274.48444  22840181.0704                   22840180.0944
 -17585961.53947 -13681791.35646  21142628.4774                   21142626.4304
 -31444011.82046 -24488234.24843  24614825.9224                   24614825.5084
   -917142.68048   -694398.14846  21569857.8984                   21569858.7894
 -16290225.72747 -12671918.46046  20205768.3594                   20205766.3134
 -32637981.15647 -25419489.76245  21291534.2114                   21291530.3364
